[[{"header":{"parameterUnit":"m.s-1","parameterCategory":1,"la1":30.6,"la2":29.2853,"lo1":-89.7004,"lo2":-87.6739,"dy":0.0162,"dx":0.0183,"nx":112,"ny":82,"refTime":"2023-03-26T06:00:00:Z","depth":0,"parameterNumber":2,"parameterNumberName":"U-component_of_WINDS"},"data":[0.0,0.0,0.0,0.0,0.0,0.0,0.0,0.0,0.0,0.0,0.0,0.0,0.0,0.0,0.0,0.0,0.0,0.0,0.0,0.0,0.0,0.0,0.0,0.0,0.0,0.0,0.0,0.0,0.0,0.0,0.0,0.0,0.0,0.0,0.0,0.0,0.0,0.0,0.0,0.0,0.0,0.0,0.0,0.0,0.0,0.0,0.0,0.0,0.0,0.0,0.0,0.0,0.0,0.0,0.0,0.0,0.0,0.0,0.0,0.0,0.0,0.0,0.0,0.0,0.0,0.0,0.0,0.0,0.0,0.0,0.0,0.0,0.0,0.0,0.0,0.0,0.0,0.0,0.0,0.0,0.0,0.0,0.0,0.0,0.0,0.0,0.0,0.0,0.0,0.0,-2.5446,-2.8991,-3.3956,-3.7009,-3.6934,-3.8209,-3.7978,-3.5551,0.0,0.0,0.0,0.0,0.0,0.0,0.0,0.0,0.0,0.0,0.0,0.0,0.0,0.0,0.0,0.0,0.0,0.0,0.0,0.0,0.0,0.0,0.0,0.0,0.0,0.0,0.0,0.0,0.0,0.0,0.0,0.0,0.0,0.0,0.0,0.0,0.0,0.0,0.0,0.0,0.0,0.0,0.0,0.0,0.0,0.0,0.0,0.0,0.0,0.0,0.0,0.0,0.0,0.0,0.0,0.0,0.0,0.0,0.0,0.0,0.0,0.0,0.0,0.0,0.0,0.0,0.0,0.0,0.0,0.0,0.0,0.0,0.0,0.0,0.0,0.0,0.0,0.0,0.0,0.0,0.0,0.0,0.0,0.0,0.0,0.0,0.0,0.0,0.0,0.0,0.0,0.0,0.0,0.0,0.0,0.0,0.0,0.0,0.0,0.0,0.0,0.0,0.0,0.0,-2.7129,-3.1911,-3.4739,-3.647,-3.6944,-3.6976,-3.6352,-3.4989,0.0,0.0,0.0,0.0,0.0,0.0,0.0,0.0,0.0,0.0,0.0,0.0,0.0,0.0,0.0,0.0,0.0,0.0,0.0,0.0,0.0,0.0,0.0,0.0,0.0,0.0,0.0,0.0,0.0,0.0,0.0,0.0,0.0,0.0,0.0,0.0,0.0,0.0,0.0,0.0,0.0,0.0,0.0,0.0,0.0,0.0,0.0,0.0,0.0,0.0,0.0,0.0,0.0,0.0,0.0,0.0,0.0,0.0,0.0,0.0,0.0,0.0,0.0,0.0,0.0,0.0,0.0,0.0,0.0,0.0,0.0,0.0,0.0,0.0,0.0,0.0,0.0,0.0,0.0,0.0,0.0,0.0,0.0,0.0,0.0,0.0,0.0,0.0,0.0,0.0,0.0,0.0,0.0,0.0,0.0,0.0,0.0,0.0,0.0,0.0,0.0,0.0,0.0,-2.6266,-2.8841,-3.2532,-3.445,-3.5745,-3.6504,-3.6297,-3.5628,-3.448,-3.308,0.0,0.0,0.0,0.0,0.0,0.0,0.0,0.0,0.0,0.0,0.0,0.0,0.0,0.0,0.0,0.0,0.0,0.0,0.0,0.0,0.0,0.0,0.0,0.0,0.0,0.0,0.0,0.0,0.0,0.0,0.0,0.0,0.0,0.0,0.0,0.0,0.0,0.0,0.0,0.0,0.0,0.0,0.0,0.0,0.0,0.0,0.0,0.0,0.0,0.0,0.0,0.0,0.0,0.0,0.0,0.0,0.0,0.0,0.0,0.0,0.0,0.0,0.0,0.0,0.0,0.0,0.0,0.0,0.0,0.0,0.0,0.0,0.0,0.0,0.0,0.0,0.0,0.0,0.0,0.0,0.0,0.0,0.0,0.0,0.0,0.0,0.0,0.0,0.0,0.0,0.0,0.0,0.0,0.0,0.0,0.0,0.0,0.0,0.0,0.0,0.0,0.0,-2.8113,-3.0105,-3.2617,-3.3863,-3.4867,-3.5718,-3.5501,-3.488,-3.3751,-3.1892,0.0,0.0,0.0,0.0,0.0,0.0,0.0,0.0,0.0,0.0,0.0,0.0,0.0,0.0,0.0,0.0,0.0,0.0,0.0,0.0,0.0,0.0,0.0,0.0,0.0,0.0,0.0,0.0,0.0,0.0,0.0,0.0,0.0,0.0,0.0,0.0,0.0,0.0,0.0,0.0,0.0,0.0,0.0,0.0,0.0,0.0,0.0,0.0,0.0,0.0,0.0,0.0,0.0,0.0,0.0,0.0,0.0,0.0,0.0,0.0,0.0,0.0,0.0,0.0,0.0,0.0,0.0,0.0,0.0,0.0,0.0,0.0,0.0,0.0,0.0,0.0,0.0,0.0,0.0,0.0,0.0,0.0,0.0,0.0,0.0,0.0,0.0,0.0,0.0,0.0,0.0,0.0,0.0,0.0,0.0,0.0,0.0,0.0,0.0,0.0,0.0,0.0,-2.8574,-3.0515,-3.2841,-3.328,-3.3749,-3.4546,-3.4261,-3.3583,-3.25,-3.1116,0.0,0.0,0.0,0.0,0.0,0.0,0.0,0.0,0.0,0.0,0.0,0.0,0.0,0.0,0.0,0.0,0.0,0.0,0.0,0.0,0.0,0.0,0.0,0.0,0.0,0.0,0.0,0.0,0.0,0.0,0.0,0.0,0.0,0.0,0.0,0.0,0.0,0.0,0.0,0.0,0.0,0.0,0.0,0.0,0.0,0.0,0.0,0.0,0.0,0.0,0.0,0.0,0.0,0.0,0.0,0.0,0.0,0.0,0.0,0.0,0.0,0.0,0.0,0.0,0.0,0.0,0.0,0.0,0.0,0.0,0.0,0.0,0.0,0.0,0.0,0.0,0.0,0.0,0.0,0.0,0.0,0.0,0.0,0.0,0.0,0.0,0.0,0.0,0.0,0.0,0.0,0.0,0.0,0.0,0.0,0.0,0.0,0.0,0.0,0.0,0.0,0.0,-2.8473,-3.0331,-3.2152,-3.2652,-3.3216,-3.4053,-3.3228,-3.2337,-3.1642,0.0,0.0,0.0,0.0,0.0,0.0,0.0,0.0,0.0,0.0,0.0,0.0,0.0,0.0,0.0,0.0,0.0,0.0,0.0,0.0,0.0,0.0,0.0,0.0,0.0,0.0,0.0,0.0,0.0,0.0,0.0,0.0,0.0,0.0,0.0,0.0,0.0,0.0,0.0,0.0,0.0,0.0,0.0,0.0,0.0,0.0,0.0,0.0,0.0,0.0,0.0,0.0,0.0,0.0,0.0,0.0,0.0,0.0,0.0,0.0,0.0,0.0,0.0,0.0,0.0,0.0,0.0,0.0,0.0,0.0,0.0,0.0,0.0,0.0,0.0,0.0,0.0,0.0,0.0,0.0,0.0,0.0,0.0,0.0,0.0,0.0,0.0,0.0,0.0,0.0,0.0,0.0,0.0,0.0,0.0,0.0,0.0,0.0,0.0,0.0,0.0,0.0,-2.6787,-2.8435,-2.9983,-3.1404,-3.1848,-3.2313,-3.286,-3.1707,-3.0883,-3.0773,0.0,0.0,0.0,0.0,0.0,0.0,0.0,0.0,0.0,0.0,0.0,0.0,0.0,0.0,0.0,0.0,0.0,0.0,0.0,0.0,0.0,0.0,0.0,0.0,0.0,0.0,0.0,0.0,0.0,0.0,0.0,0.0,0.0,0.0,0.0,0.0,0.0,0.0,0.0,0.0,0.0,0.0,0.0,0.0,0.0,0.0,0.0,0.0,0.0,0.0,0.0,0.0,0.0,0.0,0.0,0.0,0.0,0.0,0.0,0.0,0.0,0.0,0.0,0.0,0.0,0.0,0.0,0.0,0.0,0.0,0.0,0.0,0.0,0.0,0.0,0.0,0.0,0.0,0.0,0.0,0.0,0.0,0.0,0.0,0.0,0.0,0.0,0.0,0.0,0.0,0.0,0.0,0.0,0.0,0.0,0.0,0.0,0.0,0.0,0.0,0.0,0.0,-2.7365,-2.849,-2.9503,-3.0647,-3.0838,-3.0872,-3.0803,-2.9622,-2.9185,0.0,0.0,0.0,0.0,0.0,0.0,0.0,0.0,0.0,0.0,0.0,0.0,0.0,0.0,0.0,0.0,0.0,0.0,0.0,0.0,0.0,0.0,0.0,0.0,0.0,0.0,0.0,0.0,0.0,0.0,0.0,0.0,0.0,0.0,0.0,0.0,0.0,0.0,0.0,0.0,0.0,0.0,0.0,0.0,0.0,0.0,0.0,0.0,0.0,0.0,0.0,0.0,0.0,0.0,0.0,0.0,0.0,0.0,0.0,0.0,0.0,0.0,0.0,0.0,0.0,0.0,0.0,0.0,0.0,0.0,0.0,0.0,0.0,0.0,0.0,0.0,0.0,0.0,0.0,0.0,0.0,0.0,0.0,0.0,0.0,0.0,0.0,0.0,0.0,0.0,0.0,0.0,0.0,0.0,0.0,0.0,0.0,0.0,0.0,0.0,0.0,0.0,0.0,-2.4953,-2.6816,-2.8318,-2.9013,-2.9933,-3.0476,-3.0499,-2.9457,-2.8851,-2.8978,0.0,0.0,0.0,0.0,0.0,0.0,0.0,0.0,0.0,0.0,0.0,0.0,0.0,0.0,0.0,0.0,0.0,0.0,0.0,0.0,0.0,0.0,0.0,0.0,0.0,0.0,0.0,0.0,0.0,0.0,0.0,0.0,0.0,0.0,0.0,0.0,0.0,0.0,0.0,0.0,0.0,0.0,0.0,0.0,0.0,0.0,0.0,0.0,0.0,0.0,0.0,0.0,0.0,0.0,0.0,0.0,0.0,0.0,0.0,0.0,0.0,0.0,0.0,0.0,0.0,0.0,0.0,0.0,0.0,0.0,0.0,0.0,0.0,0.0,0.0,0.0,0.0,0.0,0.0,0.0,0.0,0.0,0.0,0.0,0.0,0.0,0.0,0.0,0.0,0.0,0.0,0.0,0.0,0.0,0.0,0.0,0.0,0.0,0.0,0.0,0.0,0.0,-2.4365,-2.6261,-2.7697,-2.8147,-2.914,-2.9765,-2.969,-2.8401,-2.7688,-2.7906,0.0,0.0,0.0,0.0,0.0,0.0,0.0,0.0,0.0,0.0,0.0,0.0,0.0,0.0,0.0,0.0,0.0,0.0,0.0,0.0,0.0,0.0,0.0,0.0,0.0,0.0,0.0,0.0,0.0,0.0,0.0,0.0,0.0,0.0,0.0,0.0,0.0,0.0,0.0,0.0,0.0,0.0,0.0,0.0,0.0,0.0,0.0,0.0,0.0,0.0,0.0,0.0,0.0,0.0,0.0,0.0,0.0,0.0,0.0,0.0,0.0,0.0,0.0,0.0,0.0,0.0,0.0,0.0,0.0,0.0,0.0,0.0,0.0,0.0,0.0,0.0,0.0,0.0,0.0,0.0,0.0,0.0,0.0,0.0,0.0,0.0,0.0,0.0,0.0,0.0,0.0,0.0,0.0,0.0,0.0,0.0,0.0,0.0,0.0,0.0,0.0,0.0,-2.4991,-2.6482,-2.7506,-2.785,-2.8518,-2.8832,-2.8592,-2.6878,-2.6066,-2.6745,0.0,0.0,0.0,0.0,0.0,0.0,0.0,0.0,0.0,0.0,0.0,0.0,0.0,0.0,0.0,0.0,0.0,0.0,0.0,0.0,0.0,0.0,0.0,0.0,0.0,0.0,0.0,0.0,0.0,0.0,0.0,0.0,0.0,0.0,0.0,0.0,0.0,0.0,0.0,0.0,0.0,0.0,0.0,0.0,0.0,0.0,0.0,0.0,0.0,0.0,0.0,0.0,0.0,0.0,0.0,0.0,0.0,0.0,0.0,0.0,-2.7469,-2.5791,0.0,0.0,0.0,0.0,0.0,0.0,0.0,0.0,0.0,0.0,0.0,0.0,0.0,0.0,0.0,0.0,0.0,0.0,0.0,0.0,0.0,0.0,0.0,0.0,0.0,0.0,0.0,0.0,0.0,0.0,0.0,0.0,0.0,0.0,0.0,0.0,0.0,0.0,0.0,0.0,-2.4423,-2.6119,-2.7302,-2.7559,-2.8046,-2.831,-2.8151,-2.7083,-2.6291,-2.6041,-2.4072,0.0,0.0,0.0,0.0,0.0,0.0,0.0,0.0,0.0,0.0,0.0,0.0,0.0,0.0,0.0,0.0,0.0,0.0,0.0,0.0,0.0,0.0,0.0,0.0,0.0,0.0,0.0,0.0,0.0,0.0,0.0,0.0,0.0,0.0,0.0,0.0,0.0,0.0,0.0,0.0,0.0,0.0,0.0,0.0,0.0,0.0,0.0,0.0,0.0,0.0,0.0,0.0,0.0,0.0,0.0,0.0,0.0,0.0,0.0,-3.0332,-2.8941,0.0,0.0,0.0,0.0,0.0,0.0,0.0,0.0,0.0,0.0,0.0,0.0,0.0,0.0,0.0,0.0,0.0,0.0,0.0,0.0,0.0,0.0,0.0,0.0,0.0,0.0,0.0,0.0,0.0,0.0,0.0,0.0,0.0,0.0,0.0,0.0,0.0,0.0,0.0,0.0,-2.4041,-2.5575,-2.6766,-2.7224,-2.7692,-2.7925,-2.7825,-2.6812,-2.6015,-2.5545,-2.413,0.0,0.0,0.0,0.0,0.0,0.0,0.0,0.0,0.0,0.0,0.0,0.0,0.0,0.0,0.0,0.0,0.0,0.0,0.0,0.0,0.0,0.0,0.0,0.0,0.0,0.0,0.0,0.0,0.0,0.0,0.0,0.0,0.0,0.0,0.0,0.0,0.0,0.0,0.0,0.0,0.0,0.0,0.0,0.0,0.0,0.0,0.0,0.0,0.0,0.0,0.0,0.0,0.0,-3.3374,-3.4064,-3.4531,-3.4246,-3.4306,-3.4483,-3.2619,-3.2143,-3.2507,-2.9962,0.0,0.0,0.0,0.0,0.0,0.0,0.0,0.0,0.0,0.0,0.0,0.0,0.0,0.0,0.0,0.0,0.0,0.0,0.0,0.0,0.0,0.0,-2.3018,-2.2925,-2.316,-2.3396,-2.3496,0.0,0.0,0.0,0.0,0.0,0.0,0.0,0.0,0.0,0.0,0.0,-2.3933,-2.525,-2.6391,-2.6992,-2.7425,-2.764,-2.7408,-2.6498,-2.5689,-2.5109,-2.4231,-2.3519,0.0,0.0,0.0,0.0,0.0,0.0,0.0,0.0,0.0,0.0,0.0,0.0,0.0,0.0,0.0,0.0,0.0,0.0,0.0,0.0,0.0,0.0,0.0,0.0,0.0,0.0,0.0,0.0,0.0,0.0,0.0,0.0,-0.8347,-1.5431,0.0,0.0,0.0,0.0,0.0,0.0,0.0,0.0,0.0,0.0,0.0,0.0,0.0,-3.0114,-3.1684,-3.3125,-3.3904,-3.4101,-3.5602,-3.6196,-3.5938,-3.5881,-3.555,-3.4957,-3.5278,0.0,-3.2944,-3.0602,0.0,0.0,0.0,0.0,0.0,0.0,0.0,0.0,0.0,0.0,0.0,0.0,0.0,0.0,0.0,0.0,0.0,0.0,0.0,0.0,0.0,0.0,-2.4963,-2.4024,-2.4328,-2.4696,-2.4189,-2.3141,-2.2081,-2.1224,-2.0675,-2.0552,0.0,0.0,0.0,0.0,0.0,0.0,-2.4457,-2.5977,-2.71,-2.7318,-2.7291,-2.7115,-2.6669,-2.6491,-2.5887,-2.4729,-2.3795,-2.3002,-2.2387,-2.1783,0.0,0.0,0.0,0.0,0.0,0.0,0.0,0.0,0.0,0.0,0.0,0.0,0.0,0.0,0.0,0.0,0.0,0.0,0.0,0.0,0.0,0.0,0.0,0.0,0.0,0.0,0.0,0.0,0.0,-1.2196,-1.7318,-2.2924,-2.3947,-2.455,0.0,0.0,0.0,0.0,0.0,0.0,0.0,0.0,0.0,-3.3254,-3.1864,-3.2027,-3.4117,-3.4383,-3.4693,-3.508,-3.6696,-3.7256,-3.6872,-3.7088,-3.685,-3.6345,-3.5907,-3.5105,-3.3865,-3.181,-2.9954,-2.8158,0.0,0.0,0.0,0.0,-2.2304,-2.2353,-2.2436,-2.2776,-2.3276,-2.3091,0.0,0.0,0.0,0.0,0.0,0.0,0.0,-2.3128,-2.3132,-2.4055,-2.4955,-2.4595,-2.4949,-2.5143,-2.4262,-2.3575,-2.274,-2.135,-2.1055,-2.112,-2.1461,-2.1759,0.0,0.0,0.0,-2.4586,-2.486,-2.5884,-2.6788,-2.7233,-2.6689,-2.6344,-2.6481,-2.5568,-2.4914,-2.4695,-2.3883,-2.3322,-2.303,-2.2536,-2.236,0.0,0.0,0.0,0.0,0.0,0.0,0.0,0.0,0.0,0.0,0.0,0.0,0.0,0.0,0.0,0.0,0.0,0.0,0.0,0.0,0.0,0.0,0.0,0.0,0.0,0.0,0.0,0.0,-2.1361,-2.5401,-2.8558,-3.0749,-3.0827,0.0,0.0,0.0,0.0,0.0,0.0,-3.2351,-3.239,-3.3295,-3.5248,-3.3638,-3.3808,-3.6063,-3.5446,-3.5357,-3.5889,-3.7002,-3.7322,-3.693,-3.7112,-3.6755,-3.5966,-3.5087,-3.4112,-3.2966,-3.1791,-3.0335,-2.8629,-2.6395,-2.5207,-2.4534,-2.3301,-2.2742,-2.2582,-2.2523,-2.2735,-2.3055,-2.3068,-2.3059,-2.2857,-2.2143,0.0,0.0,0.0,0.0,-2.3407,-2.3566,-2.4118,-2.4656,-2.4772,-2.5088,-2.5143,-2.4348,-2.3858,-2.3103,-2.1786,-2.1617,-2.1741,-2.1881,-2.224,0.0,-2.3257,-2.3987,-2.4628,-2.508,-2.5666,-2.6213,-2.6762,-2.5872,-2.5297,-2.5702,-2.4422,-2.379,-2.4199,-2.3735,-2.3399,-2.328,-2.2944,-2.2739,-2.2813,0.0,0.0,0.0,0.0,0.0,0.0,0.0,0.0,0.0,0.0,0.0,0.0,0.0,0.0,0.0,0.0,0.0,0.0,0.0,0.0,0.0,0.0,0.0,0.0,0.0,0.0,0.0,0.0,0.0,-3.1189,-3.3801,0.0,0.0,0.0,0.0,-3.1468,-3.2211,-3.3083,-3.4124,-3.3047,-3.3562,-3.6064,-3.5068,-3.5229,-3.6833,-3.6795,-3.6721,-3.663,-3.6381,-3.6065,-3.5598,-3.5325,-3.4129,-3.2277,-3.2544,-3.1123,-2.8699,-2.9471,-2.9692,-2.9118,-2.5576,-2.4095,-2.3829,-2.2754,-2.1903,-2.1399,-2.1914,-2.2024,-2.1979,-2.2413,-2.2304,-2.2152,-2.268,-2.2438,0.0,0.0,-2.2846,-2.3024,-2.3465,-2.4118,-2.4582,-2.4627,-2.4702,-2.4728,-2.4693,-2.3677,-2.2711,-2.2631,-2.2105,-2.2022,-2.2929,0.0,-2.3369,-2.3946,-2.5039,-2.564,-2.5103,-2.5463,-2.5836,-2.5887,-2.4739,-2.3849,-2.3592,-2.3352,-2.3128,-2.2884,-2.2896,-2.2763,-2.2494,-2.2297,-2.23,-2.2557,-2.2839,0.0,0.0,0.0,0.0,0.0,0.0,0.0,0.0,0.0,0.0,0.0,0.0,0.0,0.0,0.0,0.0,0.0,0.0,0.0,0.0,0.0,0.0,0.0,0.0,0.0,0.0,0.0,0.0,-3.3218,-3.5762,0.0,-3.3857,-3.4592,-3.4993,-3.4389,-3.5472,-3.6344,-3.6735,-3.6031,-3.6026,-3.6936,-3.5972,-3.5642,-3.6123,-3.5392,-3.4962,-3.4832,-3.4493,-3.4105,-3.3698,-3.3519,-3.2739,-3.16,-3.1134,-3.0018,-2.8494,-2.7872,-2.7712,-2.7683,-2.597,-2.5057,-2.4461,-2.3224,-2.2418,-2.192,-2.1883,-2.2082,-2.2442,-2.272,-2.2696,-2.2526,-2.2328,-2.2572,-2.2949,-2.2799,-2.3038,-2.3408,-2.406,-2.4403,-2.4686,-2.5151,-2.5233,-2.4978,-2.3903,-2.3428,-2.2995,-2.2282,-2.1521,-2.1498,-2.2964,-2.2897,-2.3084,-2.4462,-2.532,-2.5626,-2.5019,-2.5147,-2.5095,-2.4646,-2.3381,-2.2598,-2.2751,-2.1936,-2.1686,-2.2292,-2.2085,-2.2068,-2.2273,-2.2247,-2.2219,-2.2285,-2.2411,-2.2357,0.0,0.0,0.0,0.0,0.0,0.0,0.0,0.0,0.0,0.0,0.0,0.0,0.0,0.0,0.0,0.0,0.0,0.0,0.0,0.0,0.0,0.0,0.0,0.0,0.0,-3.3052,-3.5335,-3.4788,-3.7221,-3.8026,-3.5664,-3.7021,-3.778,-3.716,-3.7984,-3.8402,-3.8112,-3.7389,-3.686,-3.6557,-3.584,-3.5356,-3.5125,-3.4099,-3.3471,-3.3186,-3.2604,-3.2151,-3.1806,-3.1493,-3.0941,-3.0122,-2.9316,-2.8411,-2.7478,-2.6422,-2.6061,-2.6076,-2.5485,-2.5025,-2.4476,-2.3238,-2.2418,-2.1907,-2.172,-2.2305,-2.3035,-2.2974,-2.304,-2.3024,-2.2589,-2.2934,-2.3407,-2.3113,-2.326,-2.3642,-2.4134,-2.4283,-2.4388,-2.4822,-2.4671,-2.4159,-2.345,-2.2908,-2.2541,-2.2353,-2.1725,-2.1708,-2.3169,-2.3077,-2.3334,-2.4778,-2.5232,-2.5279,-2.4685,-2.4455,-2.41,-2.3377,-2.2092,-2.1328,-2.1602,-2.0903,-2.0723,-2.1297,-2.1364,-2.156,-2.1909,-2.1765,-2.1825,-2.2185,-2.2197,-2.2061,-2.1851,0.0,0.0,0.0,0.0,0.0,0.0,0.0,0.0,0.0,0.0,0.0,0.0,0.0,0.0,0.0,0.0,0.0,0.0,0.0,0.0,0.0,0.0,0.0,-3.3738,-3.6207,-3.7531,-3.6087,-3.8234,-3.9151,-3.7397,-3.8756,-3.9747,-3.9723,-3.9449,-3.8909,-3.8132,-3.6854,-3.5761,-3.4927,-3.4689,-3.4404,-3.3998,-3.3192,-3.2504,-3.1968,-3.0885,-3.0242,-3.0008,-2.9334,-2.8558,-2.7705,-2.6977,-2.6183,-2.5384,-2.5091,-2.4815,-2.4529,-2.4075,-2.3883,-2.3757,-2.2685,-2.1821,-2.1224,-2.15,-2.2521,-2.367,-2.3078,-2.3157,-2.3509,-2.3566,-2.3566,-2.3509,-2.3566,-2.3595,-2.3595,-2.3595,-2.3595,-2.3565,-2.3565,-2.2758,-2.2264,-2.3271,-2.2147,-2.1369,-2.2922,-2.2673,-2.2538,-2.3727,-2.3876,-2.4072,-2.4745,-2.4797,0.0,-2.4095,-2.3474,-2.279,-2.2163,-2.0936,-2.0169,-2.0042,-2.0361,-2.037,-1.9841,-2.0779,-2.1368,-2.1404,-2.0911,-2.1127,-2.2173,-2.2197,-2.2197,-2.2197,0.0,0.0,0.0,0.0,0.0,0.0,0.0,0.0,0.0,0.0,0.0,0.0,0.0,0.0,0.0,0.0,0.0,0.0,0.0,0.0,0.0,-3.4077,-3.6833,-3.6029,-3.7783,-3.9041,-3.8741,-3.9916,-4.0533,-3.9976,-4.0366,-4.061,-4.0507,-3.9212,-3.8271,-3.7894,-3.6213,-3.5116,-3.4849,-3.4431,-3.4173,-3.3998,-3.273,-3.1935,-3.1696,-2.9982,-2.8972,-2.8543,-2.7743,-2.6905,-2.6131,-2.5907,-2.5484,-2.4918,-2.4351,-2.4193,-2.4177,-2.3628,-2.3333,-2.3109,-2.1889,-2.1115,-2.0778,-2.1212,-2.186,-2.2454,-2.2684,-2.3108,-2.3566,-2.3595,-2.361,-2.3566,-2.3595,-2.3595,-2.3595,-2.3595,-2.3266,-2.2837,-2.251,-2.2123,-2.1668,-2.1284,-2.1253,-2.1452,-2.1931,-2.2087,-2.2486,-2.3698,-2.3212,-2.3027,-2.416,-2.3893,-2.3407,-2.2842,-2.2342,-2.1834,-2.1329,-2.0636,-2.0266,-2.0397,-2.0181,-2.0117,-2.037,-2.0286,-2.0586,-2.1368,-2.126,-2.15,-2.2173,-2.2197,-2.2197,0.0,0.0,0.0,0.0,0.0,0.0,0.0,0.0,0.0,0.0,0.0,0.0,0.0,0.0,0.0,0.0,0.0,0.0,0.0,0.0,0.0,0.0,-3.6762,-3.8788,-3.8624,-3.9532,-4.0259,-4.0335,-4.0781,-4.1087,-4.1048,-4.0988,-4.0765,-4.0333,-3.8884,-3.7796,-3.7277,-3.5759,-3.4831,-3.4687,-3.4293,-3.3954,-3.3671,-3.2437,-3.1382,-3.0567,-2.9136,-2.803,-2.7196,-2.6516,-2.5944,-2.5503,-2.5329,-2.4932,-2.4383,-2.4155,-2.4035,-2.3881,0.0,0.0,0.0,0.0,-2.0955,-2.0864,-2.1167,-2.1715,-2.2302,-2.2584,-2.3101,-2.3595,-2.3595,-2.3415,-2.3206,-2.3206,-2.3011,-2.2802,-2.2802,-2.2532,-2.2181,-2.1723,-2.1322,-2.094,-2.0612,-2.0878,-2.1233,-2.144,-2.1812,0.0,-2.2767,-2.2503,-2.2351,-2.2912,-2.2641,-2.2191,-2.1678,-2.1366,-2.0965,-2.0485,-2.0129,-2.0023,-2.0079,-1.9963,0.0,0.0,0.0,-2.0406,-2.1031,-2.15,0.0,0.0,0.0,-2.2197,-2.2197,-2.2727,0.0,0.0,-2.482,-2.5399,0.0,0.0,0.0,0.0,0.0,0.0,0.0,0.0,0.0,0.0,0.0,0.0,0.0,0.0,0.0,0.0,-3.8124,-4.0073,-4.0974,-4.1097,-4.1095,-4.1109,-4.1097,-4.1093,-4.1077,-4.0877,-4.0421,-3.9616,-3.8446,-3.7379,-3.6501,-3.5437,0.0,0.0,0.0,-3.3752,-3.3214,-3.2199,-3.0903,-2.935,-2.8545,-2.7468,-2.6184,-2.5819,-2.5546,-2.5443,-2.5146,-2.4579,-2.3943,-2.416,-2.3896,-2.328,-2.223,-2.1943,-2.2024,-2.1187,-2.1006,-2.1163,-2.1163,0.0,0.0,-2.2458,-2.2921,-2.3475,-2.3415,-2.3056,-2.2667,-2.2634,-2.2143,-2.1695,-2.1695,-2.1635,-2.1496,-2.1064,-2.0487,-2.0196,-2.0674,-2.0723,-2.0784,-2.1279,-2.178,-2.1908,-2.1335,-2.1669,-2.1842,-2.1392,-2.1272,-2.105,-2.0648,-2.0527,-2.0283,-1.9743,-1.9703,0.0,-1.9605,-1.9836,-1.9776,-1.9291,-2.0113,-2.0598,-2.0574,-2.162,-2.1969,-2.15,-2.1957,-2.2197,-2.2197,-2.2606,-2.3075,-2.3604,-2.4444,-2.5176,0.0,0.0,0.0,0.0,0.0,0.0,0.0,0.0,0.0,0.0,0.0,0.0,0.0,0.0,0.0,-3.7683,-3.9552,-4.0877,-4.1076,-4.1105,-4.1105,-4.1094,-4.1097,-4.1054,-4.0944,-4.0285,-3.9685,-3.9301,-3.7815,-3.6741,-3.6274,-3.5247,-3.4548,-3.434,-3.3707,-3.3332,-3.3214,-3.1727,-3.0751,-3.0315,-2.9132,0.0,-2.6738,-2.6487,-2.5908,-2.5107,-2.5045,-2.4887,-2.4658,-2.3413,-2.209,-2.0942,-2.22,-2.232,-2.171,-2.0926,-2.049,-2.024,-2.024,-2.0603,-2.1096,-2.1096,-2.1904,-2.2757,-2.2218,-2.2353,0.0,-2.2039,-2.1799,-2.1695,-2.1695,-2.1306,-2.0786,-2.0406,-2.0,-1.9744,-1.989,-2.0201,-2.0613,-2.1147,-2.1398,-2.1233,-2.0284,-2.0476,-2.0772,-2.0738,-2.0332,-2.0028,-2.0002,-1.9977,-2.0026,-2.0213,-2.0275,-2.034,-2.0686,-2.0263,-1.9989,-1.9879,-2.0318,-2.061,-2.061,-2.1632,-2.2149,-2.2041,-2.2137,-2.2197,-2.2197,-2.1873,-2.1981,-2.2534,-2.4105,-2.5176,0.0,0.0,0.0,0.0,0.0,0.0,0.0,0.0,0.0,0.0,0.0,-3.4236,-3.5187,0.0,-3.7628,-3.8935,-4.0242,-4.109,-4.1104,-4.1091,-4.1099,-4.1107,-4.1092,-4.105,-4.0959,-4.0474,-3.9721,-3.867,-3.8139,-3.7123,-3.5491,-3.5294,-3.4869,-3.4042,-3.3476,-3.3154,-3.3068,-3.1932,-3.0989,-3.0358,-2.9522,-2.8511,-2.7313,-2.6775,-2.6222,-2.5672,-2.5203,-2.461,-2.3844,-2.2671,-2.1978,-2.1734,-2.2094,-2.1727,-2.0938,-2.0582,-2.0263,-2.0061,-2.0061,-2.0358,-2.073,-2.073,-2.1419,-2.2128,-2.1799,-2.1695,-2.162,-2.1315,-2.0985,-2.0692,-2.073,-2.0707,-2.0593,-2.0216,-2.0333,-2.0436,-1.9962,-2.0175,-2.0441,-2.047,-2.0543,-2.0316,-1.9536,-1.9581,-1.972,-1.9771,-1.9747,-1.9737,-1.9825,-1.9798,-1.9859,-2.0082,-1.9818,-1.9788,-2.0279,-1.9878,-1.9691,-1.9891,-2.0101,-2.0442,-2.0983,-2.1512,-2.1921,-2.2185,-2.2197,-2.2197,-2.2197,-2.1668,-2.168,-2.2197,-2.279,-2.345,0.0,0.0,0.0,0.0,0.0,0.0,0.0,-3.3871,-3.4496,-3.5477,-3.6191,-3.6866,-3.7632,-3.8322,-3.9036,-3.9917,-4.0645,-4.1041,-4.0867,-4.0853,-4.078,-4.0601,-4.0716,-4.0798,-4.0734,-4.0257,-3.9332,-3.7835,-3.8005,-3.7148,-3.4727,-3.5187,-3.4969,-3.3744,-3.3291,-3.2988,-3.2802,-3.2109,-3.1253,-3.0281,-2.9878,-2.9114,-2.8022,-2.7066,-2.6559,-2.6343,-2.5259,-2.4049,-2.276,-2.2134,-2.2202,-2.2594,-2.1719,-2.0922,-2.0304,-2.0304,-2.022,-2.01,-2.01,-2.0324,-2.0595,-2.0632,-2.1023,-2.1509,-2.1389,-2.106,-2.0753,-2.064,-2.0167,-1.9756,-1.9927,-2.0235,-2.0497,-2.0426,-2.0778,-2.0939,-2.0259,-2.0144,-2.0051,-1.9593,-1.9586,-1.9455,-1.8792,-1.8833,-1.8945,-1.8833,-1.9309,-1.961,-1.951,-1.9585,-1.961,-1.9497,-1.8996,-1.8821,-1.9205,-1.9062,-1.9085,-1.9498,-1.9564,-2.0069,-2.1043,-2.1199,-2.15,-2.2029,-2.1945,-2.1945,-2.2041,-2.1404,-2.1308,-2.1777,-2.1246,-2.1499,-2.1015,-2.3551,-2.6548,-3.0494,-3.199,-3.3634,0.0,-3.8318,-3.8071,-3.8954,-3.9203,-3.9335,-3.9492,-3.9591,-3.9945,-4.0801,-4.1046,-4.0823,-4.0055,-3.994,-3.9646,-3.8799,-3.9396,-3.9828,-3.9757,-3.8236,-3.7102,-3.678,-3.5888,-3.5135,-3.4612,-3.4349,-3.4065,-3.3698,-3.3019,-3.2621,-3.247,-3.1674,-3.114,-3.0881,-3.0394,-2.9723,-2.8928,-2.7981,-2.713,-2.6326,-2.4735,-2.3456,-2.2518,-2.2063,-2.1307,-2.0472,-2.0596,-2.0503,-2.0304,-2.0304,-2.022,-2.01,-2.01,-2.0021,-1.9918,-2.004,-2.0442,-2.079,-2.0328,-2.0546,-2.0834,-2.0119,-1.9858,-1.9912,-2.0453,-2.0213,-2.0109,-2.1267,-2.0644,-1.9929,-2.0443,-1.9738,-1.897,-1.8897,-1.9006,-1.8755,-1.7739,-1.838,-1.8869,-1.8367,-1.8769,-1.8945,-1.8442,-1.8807,-1.8932,-1.8442,-1.8329,-1.8174,-1.8031,-1.7995,-1.8068,-1.835,-1.8819,-1.9348,-1.9937,-2.0442,-2.0959,-2.1488,-2.1031,-2.1019,-2.1488,-2.0466,-2.0053,-2.0225,-1.9841,-2.0592,-2.3088,-2.6779,-2.9976,-3.1602,-3.333,-3.515,-3.7053,-3.7214,-3.7483,-3.9379,-3.9751,-3.991,-4.0469,-4.0564,-4.0679,-4.1045,-4.1107,-4.0956,-4.056,-4.0062,-3.954,-3.8996,-3.8685,-3.8526,-3.8504,-3.7783,-3.7018,-3.6254,-3.6156,-3.5566,-3.4311,-3.455,-3.4347,-3.3538,-3.2912,-3.2555,-3.2521,-3.1637,-3.119,-3.1112,-3.0609,-3.0005,-2.9246,-2.833,-2.6918,-2.5038,-2.3846,-2.3075,-2.2671,-2.1676,-2.1145,-2.0949,-2.0615,-2.0426,-2.0304,-2.0304,-2.027,-2.022,-2.022,-2.0115,-1.9975,-2.0045,-2.0172,-2.0282,-2.0081,-2.0203,-2.0318,-1.9765,-1.9726,-1.9837,-1.9901,-2.0102,-2.0437,-2.1083,-2.1034,-2.0741,-2.047,-1.9714,-1.8989,-1.8647,-1.8397,-1.8055,-1.7509,-1.7785,-1.7899,-1.73,-1.7978,-1.8581,-1.8668,-1.8606,-1.8282,-1.7672,-1.7909,-1.7865,-1.7368,-1.7626,-1.7983,-1.8434,-1.8615,-1.9125,-1.9867,-2.0133,-2.0451,-2.0911,-2.0694,-2.0706,-2.0947,-2.0234,-1.997,-2.0013,-1.9572,-1.9858,-2.4576,-2.8078,-3.0719,-3.1835,-3.3944,-3.5849,-3.6437,-3.6585,-3.7157,-3.9033,-3.9614,-3.9997,-4.0602,-4.0934,-4.1166,-4.1385,-4.1248,-4.1068,-4.0988,-4.0038,-3.9228,-3.8914,-3.7982,-3.7332,-3.7279,-3.7219,-3.6768,-3.5791,-3.6043,-3.5581,-3.4104,-3.441,-3.4247,-3.3441,-3.2719,-3.2369,-3.247,-3.16,-3.1112,-3.1072,-3.0516,-2.993,-2.9383,-2.8254,-2.6552,-2.4447,-2.3576,-2.3054,-2.2821,-2.1584,-2.1182,-2.1264,-2.0764,-2.0441,-2.0304,-2.0304,-2.0304,-2.0304,-2.0304,-2.022,-2.01,-2.015,-2.0096,-2.0025,-2.0061,-2.0061,-2.0025,-1.9711,-1.9726,-1.9858,-1.9797,-2.0027,-2.0365,-2.084,-2.0855,-2.0664,-2.0216,-1.9421,-1.8708,-1.8277,-1.7913,-1.7626,-1.7308,-1.7384,-1.7333,-1.6841,-1.7313,-1.7877,-1.8232,-1.799,-1.753,-1.7072,-1.7339,-1.7368,-1.6905,-1.718,-1.7649,-1.813,-1.8167,-1.8547,-1.9385,-1.9422,-1.9612,-2.0024,-2.0024,-2.0108,-2.0278,-2.0001,-1.9848,-1.989,-1.9605,-1.9547,0.0,-2.7972,-2.9999,-3.3987,-3.5342,-3.6145,-3.7844,-3.8325,-3.8424,-3.8429,-3.917,-3.9793,-3.9759,-4.0499,-4.1364,-4.2134,-4.1612,-4.1046,-4.0922,-3.9482,-3.8286,-3.7894,-3.6998,-3.6387,-3.6266,-3.6016,-3.5668,-3.5256,-3.463,-3.4228,-3.4099,-3.3494,-3.3268,-3.3491,-3.2334,-3.1842,-3.2092,-3.1393,-3.0895,-3.0733,-2.9959,-2.957,-2.9327,-2.7555,-2.6186,-2.5214,-2.4268,-2.3496,-2.2869,-2.2137,-2.1355,-2.0559,-2.066,-2.0509,-2.0304,-2.0388,-2.0354,-2.0304,-2.0304,-2.022,-2.0115,-2.027,-2.0185,-2.0115,-2.027,-2.0304,-2.0235,-2.0025,-2.0005,-2.0086,-2.055,-1.99,-1.9488,-2.0779,-1.9824,-1.8755,-1.9377,-1.8613,-1.7747,-1.7702,-1.769,-1.7542,-1.7004,-1.725,-1.7492,-1.7479,-1.693,-1.6572,-1.6597,-1.6572,-1.6559,-1.6504,-1.6559,-1.6516,-1.643,-1.6442,-1.6603,-1.7011,-1.7048,-1.7294,-1.7859,-1.7884,-1.8142,-1.8633,-1.8633,-1.8902,-1.9417,-1.9405,-1.9497,-1.9629,-1.9617,-1.9915,0.0,0.0,-3.0827,-3.378,-3.5063,-3.5805,-3.6431,-3.6608,-3.6805,-3.7366,-3.7257,-3.7247,-3.7812,-3.8598,-3.9286,-3.9643,-4.0379,-4.0902,-4.0906,-3.9733,-3.8748,-3.8427,-3.7848,-3.7169,-3.6453,-3.6148,-3.5882,-3.5553,-3.483,-3.4485,-3.4605,-3.3917,-3.3397,-3.3178,-3.2519,-3.2056,-3.1842,-3.1295,-3.07,-3.0095,-2.8421,-2.7689,-2.7783,-2.6228,-2.4936,-2.3903,-2.3903,-2.2991,-2.1521,-2.179,-2.1405,-2.0644,-2.0693,-2.0577,-2.0441,-2.0475,-2.0407,-2.0354,-2.0304,-2.027,-2.0235,-2.0304,-2.027,-2.0235,-2.0304,-2.0304,-2.0235,-1.9919,-1.9884,-1.9908,-1.9528,-1.9261,-1.9152,-1.9446,-1.9071,-1.8607,-1.8574,-1.8262,-1.7956,-1.7841,-1.7898,-1.7963,-1.801,-1.7837,-1.7448,-1.6935,-1.7005,-1.6948,-1.6572,-1.6522,-1.6522,-1.6522,-1.6522,-1.6479,-1.6479,-1.6479,-1.6673,-1.7247,-1.7285,-1.7476,-1.7917,-1.7941,-1.7993,-1.8081,-1.8081,-1.8351,-1.8892,-1.8981,-1.9205,-1.9617,-2.0107,-2.0435,0.0,-2.9282,-3.1507,-3.3958,-3.5051,-3.5568,-3.556,-3.5602,-3.59,-3.6755,-3.6232,-3.5873,-3.6787,-3.7569,-3.8035,-3.7852,-3.8984,-3.9991,-4.0325,-3.9108,-3.843,-3.9052,-3.8324,-3.755,-3.6978,-3.6342,-3.5909,-3.5715,-3.4961,-3.4582,-3.4743,-3.3978,-3.3426,-3.322,-3.2535,-3.2092,-3.1932,-3.1334,-3.0432,-2.9154,-2.7602,-2.6684,-2.6324,-2.5532,-2.4713,-2.3951,-2.4173,-2.3243,-2.1553,-2.179,-2.144,-2.0693,-2.0726,-2.0644,-2.0525,-2.0808,-2.0693,-2.0388,-2.0354,-2.0304,-2.0304,-2.0304,-2.0304,-2.0258,-2.0027,-1.9934,-1.9866,-1.9556,-1.9451,-1.9355,-1.8991,-1.8784,-1.8599,-1.8426,-1.8286,-1.8076,-1.7817,-1.7774,-1.7839,-1.7948,-1.8044,-1.8226,-1.8636,-1.8125,-1.7441,-1.6597,-1.6835,-1.6936,-1.6572,-1.6522,-1.6522,-1.6522,-1.6522,-1.6522,-1.6522,-1.6522,-1.6672,-1.7049,-1.7074,-1.718,-1.7426,-1.7439,-1.7405,-1.7313,-1.7756,-1.8127,-1.8487,-1.8958,-1.947,-2.002,-2.0501,-2.0932,-2.8457,-3.0698,-3.1923,-3.4461,-3.5254,-3.54,-3.5283,-3.5418,-3.5785,-3.6509,-3.5902,-3.5549,-3.6499,-3.7288,-3.7591,-3.6897,-3.768,-3.8614,-3.9341,-3.7868,-3.7478,-3.9585,-3.8384,-3.7418,-3.7572,-3.6504,-3.5744,-3.5647,-3.4916,-3.4491,-3.4491,-3.3695,-3.3302,-3.3504,-3.2415,-3.1951,-3.223,-3.1439,-3.004,-2.7935,-2.7453,-2.6536,-2.523,-2.5476,-2.5422,-2.5182,-2.502,-2.4119,-2.2675,-2.2074,-2.1361,-2.0616,-2.0698,-2.0663,-2.0605,-2.1381,-2.1136,-2.0469,-2.0438,-2.0354,-2.0304,-2.0273,-2.0258,-2.0119,-1.9456,-1.924,-1.9175,-1.9022,-1.8702,-1.8488,-1.8927,-1.8422,-1.7787,-1.7747,-1.7475,-1.7199,-1.7199,-1.7225,-1.7421,-1.8022,-1.8166,-1.8336,-1.8819,-1.8216,-1.7441,-1.6597,-1.6522,-1.6522,-1.6522,-1.6522,-1.6522,-1.6559,-1.6534,-1.6522,-1.6559,-1.6534,-1.6522,-1.6522,-1.6522,-1.6522,-1.6522,-1.6522,-1.6522,-1.6522,-1.7601,-1.8179,-1.8204,-1.9258,-2.0075,-2.0718,-2.0756,-2.128,-2.6346,-2.9679,-3.1805,-3.3263,-3.4094,-3.452,-3.4501,-3.4949,-3.5249,-3.4745,-3.3925,-3.3374,-3.3513,-3.5131,-3.6444,-3.6546,-3.8783,-4.0411,-4.0185,-3.9051,-3.8364,-3.8753,-3.7667,-3.6675,-3.6103,-3.5879,-3.5574,-3.5009,-3.4426,-3.4253,-3.4485,-3.3902,-3.3182,-3.2354,-3.2284,-3.1812,-3.0975,-2.9881,-2.8762,-2.7549,-2.6492,-2.5863,-2.5733,-2.5269,-2.4595,-2.3743,-2.4046,-2.2817,-2.062,-2.0936,-2.0352,-1.9278,-1.9846,-2.0319,-2.0744,-2.0966,-2.1148,-2.1229,-2.068,-2.0407,-2.0227,-1.9718,-1.9549,-1.9425,-1.8715,-1.8278,-1.8143,-1.8635,-1.8326,-1.7941,-1.8264,-1.8094,-1.772,-1.7434,-1.7282,-1.7199,-1.7199,-1.7552,-1.8035,-1.8597,-1.9054,-1.923,-1.8745,-1.8138,-1.7441,-1.6597,-1.6522,-1.6522,-1.6522,-1.6522,-1.6685,-1.7112,-1.6773,-1.6685,-1.7124,-1.6773,-1.6522,-1.6522,-1.6522,-1.6522,-1.6522,-1.6522,-1.6522,-1.6522,-1.7225,-1.779,-1.8204,-1.8894,-1.9723,-2.0731,-2.1091,-2.1656,-2.5207,-2.857,-3.0721,-3.2105,-3.3025,-3.3547,-3.3437,-3.365,-3.3783,-3.3599,-3.2392,-3.1635,-3.2388,-3.3773,-3.4884,-3.5059,-3.7509,-3.9336,-3.9233,-3.8288,-3.7925,-3.8723,-3.737,-3.6234,-3.5984,-3.5357,-3.4813,-3.4426,-3.4306,-3.4317,-3.4485,-3.3978,-3.3204,-3.2151,-3.2143,-3.1438,-2.9987,-2.8822,-2.7848,-2.7139,-2.6229,-2.5775,-2.5701,-2.5476,-2.4804,-2.3929,-2.4441,-2.3227,-2.0959,-2.1276,-2.056,-1.9337,-1.9988,-2.0289,-2.0447,-2.1047,-2.1214,-2.1058,-2.0618,-2.0392,-2.0243,-1.9857,-1.9533,-1.9131,-1.828,-1.7618,-1.7247,-1.7486,-1.7323,-1.713,-1.7567,-1.7584,-1.7475,-1.724,-1.7199,-1.7199,-1.7199,-1.7473,-1.7865,-1.844,-1.8982,-1.9097,-1.8331,-1.7881,-1.7384,-1.6609,-1.6522,-1.6522,-1.6522,-1.6735,-1.7024,-1.735,-1.7087,-1.6923,-1.6999,-1.6936,-1.6898,-1.6898,-1.7124,-1.7262,-1.7262,-1.7024,-1.7011,-1.725,-1.7576,-1.8016,-1.8568,-1.9108,-2.0079,-2.1437,-2.1758,-2.2446,-2.3897,-2.6891,-2.8821,-3.0767,-3.1848,-3.2367,-3.2145,-3.192,-3.1934,-3.2371,-3.108,-3.0332,-3.1967,-3.2797,-3.3301,-3.3543,-3.5571,-3.7305,-3.7945,-3.7091,-3.7062,-3.8869,-3.7147,-3.589,-3.6116,-3.4763,-3.3934,-3.4001,-3.419,-3.4322,-3.4383,-3.398,-3.3305,-3.2301,-3.1696,-3.0702,-2.9197,-2.8146,-2.7344,-2.6808,-2.6449,-2.6026,-2.5652,-2.5864,-2.5524,-2.4816,-2.5273,-2.4259,-2.2264,-2.2149,-2.1215,-1.9919,-2.048,-2.04,-2.0083,-2.13,-2.1292,-2.0652,-2.0525,-2.0392,-2.0289,-2.0128,-1.9697,-1.9033,-1.799,-1.7141,-1.645,-1.6189,-1.6081,-1.6123,-1.675,-1.701,-1.7094,-1.7094,-1.7146,-1.7199,-1.7199,-1.7264,-1.7486,-1.81,-1.8455,-1.8448,-1.7811,-1.7568,-1.7276,-1.6597,-1.6522,-1.6572,-1.6722,-1.7049,-1.73,-1.7375,-1.7388,-1.7212,-1.6773,-1.72,-1.7488,-1.7488,-1.794,-1.8179,-1.8103,-1.7639,-1.7564,-1.7978,-1.8129,-1.8478,-1.9005,-1.9611,-2.0784,-2.2537,-2.2537,-2.3377,-1.9624,-2.3151,-2.5743,-2.8713,-3.0012,-3.0527,-3.0367,-3.0553,0.0,-2.9428,-2.941,-2.9644,-2.9855,-3.1173,-3.2876,-3.4811,-3.6829,-3.8499,-3.9526,-3.8702,-3.7848,-3.7451,-3.6125,-3.4972,-3.4329,-3.4027,-3.3935,-3.4072,-3.3574,-3.3432,-3.3815,-3.3913,-3.3277,-3.1805,-3.0158,-2.9064,-2.8556,-2.791,-2.738,-2.6945,-2.6657,-2.6503,-2.6417,-2.6295,-2.5721,-2.4802,-2.472,-2.3513,-2.1582,-2.1551,-2.06,-1.9228,-1.9872,-2.0337,-2.0652,-2.0889,-2.1167,-2.1327,-2.0715,-2.0392,-2.0143,-1.9269,-1.8895,-1.8616,-1.7495,-1.6427,-1.573,-1.6215,-1.5646,-1.5029,-1.5774,-1.6256,-1.6532,-1.6532,-1.6872,-1.7199,-1.7199,-1.7492,-1.7956,-1.8552,-1.8267,-1.7837,-1.7658,-1.7206,-1.6789,-1.6534,-1.6522,-1.6861,-1.779,-1.7187,-1.6861,-1.7338,-1.7388,-1.7526,-1.789,-1.8003,-1.8066,-1.8066,-1.8154,-1.8003,-1.7551,-1.7438,-1.72,-1.6823,-1.7727,-1.8465,-1.9008,-2.0002,-2.1351,-2.3082,-2.3082,-2.3771,-1.1837,-1.6949,-2.2012,-2.5101,-2.7524,-2.9206,-2.9391,0.0,0.0,-2.7968,-2.8074,-2.8364,-2.875,-3.0149,-3.1821,-3.3642,-3.6447,-3.8421,-3.8577,-3.888,-3.8639,-3.7445,-3.5974,-3.4835,-3.432,-3.4097,-3.4099,-3.4278,-3.374,-3.344,-3.3496,-3.258,-3.188,-3.1446,-2.9419,-2.8258,-2.8076,-2.7585,-2.7232,-2.7006,-2.6892,-2.6825,-2.6792,-2.6708,-2.6185,-2.5413,-2.5681,-2.4713,-2.294,-2.2861,-2.2017,-2.0763,-2.0621,-2.0671,-2.0794,-2.0794,-2.0915,-2.098,-2.0603,-2.0392,-2.0174,-1.9471,-1.8986,-1.8574,-1.7855,-1.6616,-1.5502,-1.5668,-1.5246,-1.4783,-1.5135,-1.5575,-1.5918,-1.5918,-1.631,-1.6764,-1.7063,-1.7251,-1.7449,-1.7777,-1.7478,-1.7155,-1.7124,-1.684,-1.6565,-1.6522,-1.6773,-1.7162,-1.7702,-1.7551,-1.7614,-1.8179,-1.7978,-1.7915,-1.8179,-1.8204,-1.8329,-1.8618,-1.8894,-1.892,-1.8656,-1.838,-1.8242,-1.8336,-1.8505,-1.9095,-2.0025,-2.0749,-2.2014,-2.377,-2.4024,-2.4769,-0.6399,-1.2743,-1.9418,-2.299,-2.5944,-2.807,-2.8388,-2.7385,-2.647,-2.6692,-2.6845,-2.7228,-2.8131,-2.9282,-3.0637,0.0,-3.5202,-3.7201,-3.708,-3.8117,-3.8534,-3.7581,-3.626,-3.5292,-3.5027,-3.4488,-3.4315,-3.464,-3.3994,-3.3425,-3.3068,-3.1306,-3.0525,-3.1034,-2.9044,-2.8014,-2.818,-2.7687,-2.7486,-2.7518,-2.7454,-2.739,-2.7358,-2.7203,-2.6862,-2.639,-2.6817,-2.6056,-2.4444,-2.424,-2.3437,-2.2231,-2.144,-2.1023,-2.086,-2.0794,-2.0662,-2.0494,-2.0494,-2.0407,-2.025,-2.0106,-1.9486,-1.8737,-1.8353,-1.7051,-1.5682,-1.5343,-1.5012,-1.4739,-1.462,-1.5036,-1.559,-1.5915,-1.614,-1.6466,-1.6998,-1.7031,-1.6947,-1.6876,-1.6761,-1.6675,-1.6675,-1.6577,-1.6559,-1.6716,-1.703,-1.737,-1.7768,-1.815,-1.8641,-1.9195,-1.8654,-1.8302,-1.8415,-1.8427,-1.8667,-1.9171,-1.9572,-1.9748,-1.9686,-1.9246,-1.9257,-1.9861,-1.9419,-1.9801,-2.1083,-2.1519,-2.2565,-2.4226,-2.4575,-2.5363,-0.8941,-1.4755,-1.976,-2.5346,-2.6825,-2.6897,-2.676,0.0,-2.5195,-2.4706,-2.558,-2.6757,-2.7776,-2.8352,0.0,0.0,0.0,-3.4208,-3.6267,-3.6389,-3.6454,-3.6991,-3.6859,-3.6523,-3.6031,-3.5018,-3.4595,-3.5184,-3.3772,-3.2699,-3.2221,-3.0987,-3.0286,-3.0222,-2.8837,-2.8514,-2.944,-2.8853,-2.8762,-2.9187,-2.8918,-2.8719,-2.8499,-2.7849,-2.7667,-2.7861,-2.7262,-2.6102,-2.4658,-2.4461,-2.3418,-2.1893,-2.1466,-2.1183,-2.1023,-2.0793,-2.061,-2.0494,-2.0441,-2.0339,-2.0412,-2.0993,-2.0212,-1.8977,-1.8454,-1.7507,-1.6462,-1.5817,-1.5151,-1.4515,-1.4031,-1.4676,-1.5824,-1.7183,-1.7102,-1.6889,-1.7356,-1.7338,-1.716,-1.6791,-1.662,-1.6522,-1.6522,-1.6522,-1.6741,-1.739,-1.7086,-1.734,-1.8993,-1.9139,-1.9344,-2.0003,-1.905,-1.8583,-1.909,-1.9092,-1.932,-1.9876,-1.9837,-1.9636,-1.9256,-1.9095,-1.9108,-1.9381,-1.9593,-2.0281,-2.1433,-2.1899,-2.2767,-2.3931,-2.3989,-2.438,-0.8834,-1.4399,-2.0425,-2.3655,-2.5544,-2.6852,-2.7695,0.0,-2.506,-2.5479,-2.6298,-2.7028,-2.7238,-2.8005,0.0,0.0,0.0,0.0,-3.4191,-3.5713,-3.6758,-3.6642,-3.6739,-3.6779,-3.671,-3.5531,-3.4296,-3.3154,-3.2374,-3.184,-3.156,-3.0527,-3.0083,-3.0391,-2.9605,-2.9367,-2.9763,-2.9826,-2.9929,-3.0112,-3.0006,-2.9869,-2.9651,-2.8893,-2.8579,-2.8543,-2.7761,-2.6732,-2.5579,-2.5026,-2.4435,-2.365,-2.2094,-2.1843,-2.2239,-2.1144,-2.0628,-2.0494,-2.046,-2.0407,-2.035,-2.0613,-2.008,-1.9332,-1.9276,-1.8166,-1.6842,-1.6307,-1.5404,-1.4546,-1.4324,-1.4589,-1.5265,-1.6795,-1.6692,-1.64,-1.7206,-1.7131,-1.6905,-1.6718,-1.6705,-1.6748,-1.6748,-1.6748,-1.6824,-1.714,-1.7224,-1.7543,-1.8298,-1.8929,-1.9428,-1.9707,-1.9495,-1.9471,-1.9787,-1.9494,-1.9495,-1.9952,-2.0029,-1.9927,-1.9661,-2.0036,-2.0298,-2.0429,-2.0772,-2.1379,-2.223,-2.2658,-2.3255,-2.4046,-2.433,-2.4805,-1.0666,-1.5908,-2.1788,-2.3546,-2.5274,-2.6877,0.0,0.0,-2.4999,-2.5832,-2.6623,-2.713,-2.702,-2.7827,-2.8655,0.0,0.0,-3.2848,-3.2709,-3.4984,-3.6685,-3.6739,-3.7175,-3.7535,-3.7734,-3.6172,-3.4048,-3.1404,-3.1593,-3.163,-3.1212,-3.0748,-3.0509,-3.0544,-3.0149,-3.0046,-3.0231,-3.0782,-3.1063,-3.1063,-3.1004,-3.0791,-3.0404,-2.9798,-2.9306,-2.8903,-2.8082,-2.7052,-2.5901,-2.5062,-2.4577,-2.4143,-2.2314,-2.202,-2.2499,-2.1225,-2.0662,-2.0494,-2.0475,-2.0407,-2.0366,-2.0767,-2.0258,-1.9568,-2.0045,-1.8863,-1.7254,-1.6639,-1.5668,-1.4862,-1.5082,-1.5039,-1.527,-1.674,-1.6639,-1.6427,-1.7152,-1.7089,-1.682,-1.6718,-1.6803,-1.6876,-1.6876,-1.6876,-1.6982,-1.7192,-1.7367,-1.7689,-1.8248,-1.9008,-1.9561,-1.9778,-2.0156,-2.0374,-2.0309,-1.977,-1.9643,-2.0105,-2.0182,-2.0182,-2.0144,-2.0709,-2.1126,-2.1465,-2.1771,-2.2253,-2.2949,-2.3137,-2.3414,-2.3814,-2.4112,-2.467,-1.5699,-2.0377,-2.4028,-2.6378,-2.6825,-2.6797,-2.7153,-2.5922,-2.4785,-2.5046,-2.6063,-2.6955,-2.7249,-2.7779,-2.8517,-2.9518,-3.0049,0.0,-3.2201,-3.385,-3.5597,-3.7374,-3.8582,-3.9267,-3.9277,-3.6978,-3.4038,-3.0561,-3.1856,-3.2329,-3.1267,-3.1951,-3.177,-3.0442,-3.0191,-3.0396,-3.0966,-3.1781,-3.218,-3.218,-3.1989,-3.1469,-3.0697,-3.0409,-2.9849,-2.9036,-2.8094,-2.6823,-2.5322,-2.4329,-2.3357,-2.2449,-2.1853,-2.1509,-2.1278,-2.0843,-2.061,-2.0494,-2.0407,-2.0354,-2.052,-2.184,-2.1,-1.9657,-2.0541,-1.9471,-1.7785,-1.6692,-1.588,-1.5478,-1.6179,-1.6121,-1.6211,-1.7424,-1.7497,-1.7287,-1.7316,-1.7312,-1.716,-1.6803,-1.6803,-1.6876,-1.6876,-1.6876,-1.7111,-1.7795,-1.7407,-1.7666,-1.9517,-1.9655,-1.9889,-2.0584,-2.1069,-2.1069,-2.0563,-1.9943,-1.9866,-2.0485,-2.0296,-2.0296,-2.0461,-2.0822,-2.1321,-2.2081,-2.236,-2.2844,-2.3509,-2.3216,-2.3097,-2.3097,-2.2962,-2.3583,-2.1823,-2.4369,-2.6784,-2.7075,-2.6918,-2.6987,-2.8104,-2.6603,-2.5372,-2.6708,-2.7226,-2.7624,-2.8404,-2.8388,-2.8496,-2.9137,-2.9799,-3.056,-3.1431,-3.3512,-3.5312,-3.6445,-3.7585,-3.7663,-3.6095,-3.5637,-3.4011,-3.0561,-3.1259,-3.192,-3.215,-3.1178,-3.0847,-3.1336,-3.1745,-3.199,-3.2019,-3.27,-3.3013,-3.3013,-3.2954,-3.2691,-3.2161,-3.1551,-3.0437,-2.8921,-2.8082,-2.6542,-2.4611,-2.4296,-2.3813,-2.317,-2.2355,-2.2032,-2.2021,-2.1757,-2.1487,-2.1288,-2.1755,-2.1802,-2.1639,-2.1645,-2.1118,-2.0437,-2.0003,-1.9161,-1.8218,-1.7429,-1.705,-1.694,-1.7184,-1.7046,-1.7125,-1.7915,-1.7772,-1.7451,-1.7422,-1.7269,-1.7073,-1.6918,-1.7002,-1.7115,-1.7115,-1.7115,-1.718,-1.7405,-1.7274,-1.7509,-1.8519,-1.8917,-1.9373,-2.0009,-2.0584,-2.0807,-2.0675,-2.0442,-2.0367,-2.0498,-2.0835,-2.1019,-2.0957,-2.1846,-2.242,-2.2649,-2.3054,-2.3334,-2.3509,-2.3334,-2.3157,-2.2962,-2.3862,-2.4471,0.0,-2.6068,-2.7449,-2.6824,-2.6747,0.0,-2.8141,-2.6997,-2.6201,-2.7866,-2.8118,-2.8254,-2.8886,-2.8785,-2.8762,-2.927,-3.0017,-3.0994,-3.2264,-3.4426,-3.6243,-3.7283,-3.7733,-3.7006,-3.4603,-3.4693,-3.3637,-3.0522,-3.1288,-3.1958,-3.2088,-3.1606,-3.1487,-3.1859,-3.2224,-3.2435,-3.2491,-3.3176,-3.3481,-3.3393,-3.3334,-3.3082,-3.2606,-3.192,-3.0538,-2.86,-2.7689,-2.6139,0.0,-2.3962,-2.3606,-2.3119,-2.2395,-2.2076,-2.1956,-2.1711,-2.1597,-2.1635,-2.176,-2.1869,-2.184,-2.146,-2.1051,-2.058,-1.9598,-1.8959,-1.8468,-1.8049,-1.7899,-1.7899,-1.7937,-1.7946,-1.8031,-1.8285,-1.8212,-1.7866,-1.7344,-1.7247,-1.7133,-1.676,-1.6972,-1.7199,-1.7253,-1.724,-1.7199,-1.7253,-1.7437,-1.7748,-1.8336,-1.8898,-1.9473,-2.0061,-2.0502,-2.0699,-2.0699,-2.0699,-2.0749,-2.0848,-2.118,-2.1458,-2.1513,-2.242,-2.2889,-2.2889,-2.3377,-2.3566,-2.3509,-2.3334,-2.3112,-2.2931,-2.4268,-2.4863,0.0,-2.5954,-2.6627,-2.6113,-2.6525,-2.717,0.0,0.0,0.0,-2.8488,-2.8783,-2.8858,-2.9036,-2.914,-2.9408,-2.9913,-3.0666,-3.1982,-3.4168,-3.6197,-3.7938,-3.9174,-3.8558,-3.7015,-3.4467,-3.4206,-3.3149,-3.0676,-3.1872,-3.2317,-3.1458,-3.2752,-3.3089,-3.2135,-3.1915,-3.2024,-3.2499,-3.3296,-3.3577,-3.3393,-3.3226,-3.2829,-3.2242,-3.1724,-3.0338,-2.8182,-2.713,-2.5778,-2.427,-2.3508,-2.2972,-2.2569,-2.2214,-2.1787,-2.1327,-2.1005,-2.1198,-2.1526,-2.0914,-2.0996,-2.1383,-2.1285,-2.0857,-2.0226,-1.9471,-1.8907,-1.8553,-1.8592,-1.85,-1.8422,-1.8539,-1.8755,-1.8907,-1.8616,-1.8717,-1.8546,-1.7199,-1.7329,-1.7437,-1.6506,-1.6805,-1.7253,-1.7391,-1.7337,-1.7282,-1.7432,-1.785,-1.8372,-1.8878,-1.9481,-2.007,-2.0646,-2.0699,-2.0699,-2.0699,-2.0699,-2.0898,-2.1375,-2.141,-2.1636,-2.2128,-2.2692,-2.3007,-2.3007,-2.3451,-2.3626,-2.3509,-2.3216,-2.3067,-2.2989,-2.4221,-2.4814,-2.6275,0.0,-2.8063,-2.7789,-2.7736,-2.7916,0.0,0.0,0.0,0.0,0.0,-2.935,-3.0386,-3.0663,-3.0768,-3.0853,-3.1702,-3.2763,-3.4013,-3.5883,-3.7017,-3.6729,-3.6403,-3.5495,-3.3649,-3.4441,-3.429,-3.2363,-3.2551,-3.266,-3.239,-3.147,-3.1644,-3.3107,-3.2362,-3.2131,-3.2509,-3.3166,-3.3452,-3.3393,-3.3364,-3.3166,-3.2859,-3.2036,-3.0543,-2.8604,-2.7639,-2.6182,-2.4511,-2.4339,-2.4007,-2.3594,-2.2995,-2.2422,-2.1888,-2.1837,-2.1711,-2.1728,-2.2586,-2.2537,-2.1963,-2.1366,-2.0664,-2.0044,-1.9735,-1.931,-1.9011,-1.9347,-1.9384,-1.9384,-1.942,-1.9457,-1.942,-1.9049,-1.9011,-1.8893,-1.824,-1.7932,-1.776,-1.7611,-1.745,-1.7391,-1.7447,-1.7679,-1.7828,-1.7841,-1.8549,-1.9167,-1.9387,-1.9965,-2.0414,-2.0683,-2.0699,-2.0699,-2.0699,-2.0699,-2.0898,-2.1375,-2.1732,-2.2189,-2.2694,-2.3656,-2.4208,-2.4208,-2.4268,-2.3985,-2.3363,-2.3171,-2.3285,-2.3688,-2.45,-2.5125,-2.8023,-2.8064,-2.8051,-2.7857,-2.7923,-2.8116,0.0,0.0,0.0,0.0,0.0,-3.0305,-3.1333,-3.178,-3.2047,-3.2232,-3.314,-3.4197,-3.5185,-3.5968,-3.6297,-3.5889,-3.5364,-3.4699,-3.3798,-3.4364,-3.4093,-3.2382,-3.2584,-3.2441,-3.1599,-3.094,-3.1153,-3.2336,-3.2,-3.2228,-3.3093,-3.3386,-3.3509,-3.3393,-3.3393,-3.3334,-3.319,-3.187,-3.0416,-2.882,-2.7517,-2.6113,-2.4756,-2.4637,-2.4269,-2.3672,-2.3069,-2.2344,-2.1631,-2.1531,-2.1755,-2.2051,-2.2129,-2.1854,-2.1301,-2.0809,-2.037,-2.0025,-1.9919,-1.969,-1.9545,-1.9654,-1.969,-1.969,-1.969,-1.969,-1.9654,-1.9435,-1.9398,-1.92,-1.8584,-1.8442,-1.8285,-1.7788,-1.7836,-1.7962,-1.7868,-1.8342,-1.8763,-1.8789,-1.9641,-2.0301,-2.0387,-2.068,-2.0948,-2.1006,-2.1033,-2.1033,-2.1033,-2.1215,-2.1444,-2.1732,-2.2189,-2.2694,-2.3201,-2.4119,-2.4597,-2.4552,-2.4384,-2.3953,-2.3201,-2.3374,-2.3603,-2.3905,-2.4863,-2.5473,-2.934,-2.8559,-2.7637,-2.7556,-2.7923,-2.8311,0.0,0.0,0.0,0.0,0.0,0.0,0.0,-3.2567,-3.3234,-3.357,-3.4587,-3.5699,-3.6651,-3.6306,-3.5891,-3.5729,-3.5042,-3.4503,-3.4322,-3.4192,-3.3473,-3.1916,-3.2163,-3.1738,-3.0247,-3.0687,-3.103,-3.113,-3.1489,-3.2348,-3.3707,-3.3625,-3.352,-3.3334,-3.3334,-3.3207,-3.2907,-3.1448,-3.0069,-2.8729,-2.7192,-2.6045,-2.5222,-2.4995,-2.4418,-2.359,-2.3088,-2.2231,-2.1231,-2.094,-2.1431,-2.215,-2.0914,-2.0469,-2.0408,-2.0216,-2.015,-2.008,-2.0025,-2.0005,-1.9955,-1.9797,-1.9762,-1.9762,-1.9762,-1.9726,-1.9726,-1.9726,-1.9726,-1.9489,-1.8782,-1.8913,-1.8823,-1.7824,-1.8158,-1.8616,-1.8548,-1.9197,-1.9781,-1.9933,-2.0812,-2.1481,-2.1393,-2.1546,-2.1602,-2.1506,-2.1506,-2.1506,-2.1506,-2.1955,-2.2221,-2.2175,-2.2649,-2.3157,-2.3716,-2.4373,-2.4595,-2.449,-2.4334,-2.3873,-2.3082,-2.3531,-2.3847,-2.4065,-2.5139,-2.5691,-2.6906,-2.7551,-2.8518,-2.8872,-2.9173,-2.9326,0.0,0.0,0.0,0.0,0.0,0.0,0.0,-3.2988,-3.4117,-3.4152,-3.5281,-3.6269,-3.6663,-3.6716,-3.625,-3.4943,-3.5169,-3.5125,-3.4367,-3.4224,-3.3782,-3.2781,-3.1331,-3.0371,-3.0064,-2.9971,-3.0471,-3.1635,-3.2023,-3.2538,-3.3291,-3.316,-3.3068,-3.3055,-3.2957,-3.2197,-3.0945,-3.0859,-2.9783,-2.7947,-2.7344,-2.6798,-2.6353,-2.632,-2.5698,-2.468,-2.3968,-2.3063,-2.2004,-2.1132,-2.087,-2.0942,-2.0605,-2.0779,-2.1075,-2.0539,-2.0235,-2.01,-2.008,-2.0061,-2.0005,-1.9955,-1.9955,-1.9955,-1.9955,-1.9884,-1.9762,-1.9762,-1.9762,-1.9732,-1.9591,-1.92,-1.8907,-1.9126,-1.8736,-1.863,-1.9523,-1.9986,-2.0431,-2.0892,-2.1831,-2.2302,-2.186,-2.232,-2.2526,-2.2035,-2.1988,-2.1988,-2.1988,-2.2466,-2.274,-2.2603,-2.2799,-2.3332,-2.4297,-2.4828,-2.4855,-2.4353,-2.4728,-2.4312,-2.3082,-2.3094,-2.3598,-2.4655,-2.4843,-2.527,-2.6673,-2.7598,-2.8634,-2.8783,-2.9287,-2.9696,0.0,0.0,0.0,0.0,0.0,0.0,0.0,-3.3337,-3.4978,-3.6083,-3.6269,-3.6412,-3.677,-3.6075,-3.5117,-3.3942,-3.3964,-3.3735,-3.2858,-3.2724,-3.2105,-3.0686,-2.987,-2.9394,-2.9241,-2.8609,-2.8932,-3.0474,-3.0748,-3.1111,-3.1583,-3.1821,-3.2275,-3.3006,-3.2637,-3.2014,-3.1118,-3.0395,-2.9343,-2.8093,-2.6968,-2.6676,-2.7023,-2.6708,-2.6034,-2.508,-2.4249,-2.3177,-2.2011,-2.1489,-2.1041,-2.074,-2.098,-2.0969,-2.0771,-2.0481,-2.0551,-2.0661,-2.0343,-2.0446,-2.064,-2.0273,-2.0061,-2.0005,-2.0005,-1.9955,-1.9884,-1.9797,-1.9848,-1.9919,-1.9919,-1.9675,-1.9634,-2.0065,-2.005,-2.0091,-2.0676,-2.1342,-2.1844,-2.2021,-2.27,-2.3076,-2.2847,-2.2893,-2.2799,-2.2558,-2.2512,-2.2512,-2.2512,-2.2965,-2.3246,-2.3127,-2.3127,-2.348,-2.4354,-2.4557,-2.4479,-2.42,-2.437,-2.397,-2.2992,-2.3659,-2.4283,-2.48,-2.5183,-2.5879,-2.6521,-2.7298,-2.7956,-2.8026,-2.9023,0.0,0.0,0.0,0.0,0.0,0.0,0.0,0.0,-3.3677,-3.5543,-3.7309,-3.6757,-3.6228,-3.6579,-3.531,-3.3984,-3.2938,-3.2662,-3.2205,-3.1335,-3.0981,-3.0138,-2.8483,-2.8441,-2.8419,-2.8263,-2.7792,-2.8181,-2.9593,-2.9813,-2.9998,-3.0268,-3.0414,-3.1235,-3.2719,-3.2038,-3.1464,-3.0973,-2.9898,-2.8871,-2.7938,-2.6685,-2.6567,-2.7198,-2.6892,-2.6101,-2.4929,-2.428,-2.3046,-2.1632,-2.1616,-2.1201,-2.0771,-2.134,-2.103,-2.0407,-2.0407,-2.0729,-2.0983,-2.0458,-2.0674,-2.0967,-2.0458,-2.02,-2.0076,-2.0076,-2.0147,-2.0218,-2.011,-2.0303,-2.0466,-2.0263,-2.0375,-2.0537,-2.079,-2.1098,-2.1455,-2.1794,-2.2455,-2.2944,-2.2972,-2.3323,-2.3595,-2.3595,-2.329,-2.3068,-2.3068,-2.3068,-2.3068,-2.3068,-2.3526,-2.3762,-2.3688,-2.3408,-2.3511,-2.4027,-2.4212,-2.4253,-2.4092,-2.4276,-2.3949,-2.312,-2.4167,-2.4718,-2.48,-2.5342,-2.6271,-2.5364,-2.5653,-2.6158,-2.6839,-2.8619,0.0,-3.102,-3.0694,0.0,-3.1121,0.0,0.0,0.0,-3.3963,-3.5512,-3.6539,-3.6051,-3.5611,-3.5757,-3.493,-3.3727,-3.218,-3.1864,-3.1438,-3.056,-2.9634,-2.8689,-2.774,-2.7449,-2.7295,-2.7206,-2.8364,-2.9437,-3.0286,-3.0387,-3.0451,-3.0481,-2.9409,-2.9911,-3.1972,-3.0787,-2.981,-2.9013,-2.9218,-2.8287,-2.6479,-2.6974,-2.7031,-2.6791,-2.7166,-2.6056,-2.4099,-2.4208,-2.2898,-2.0906,-2.1231,-2.1038,-2.076,-2.1183,-2.0973,-2.0494,-2.0494,-2.0472,-2.045,-2.032,-2.0335,-2.0366,-2.032,-2.0304,-2.027,-2.027,-2.0661,-2.1011,-2.0916,-2.1477,-2.1858,-2.1105,-2.1273,-2.1529,-2.132,-2.1386,-2.1784,-2.2702,-2.2854,-2.2972,-2.3488,-2.3565,-2.3595,-2.3595,-2.3551,-2.3551,-2.3551,-2.3551,-2.3551,-2.3551,-2.4075,-2.4341,-2.4159,-2.3494,-2.3186,-2.3349,-2.4309,-2.4626,-2.4107,-2.515,-2.5052,-2.3818,-2.3905,-2.4268,-2.4785,-2.4921,-2.5633,-2.5166,-2.5855,-2.6588,-2.6488,-2.808,0.0,0.0,-3.0427,-3.0367,-3.0598,-3.1968,0.0,-3.3881,-3.5105,-3.6151,-3.6589,-3.6363,-3.6034,-3.5745,-3.4464,-3.2935,-3.1283,-3.0417,-2.9627,-2.8799,-2.8223,-2.7751,-2.7373,-2.7231,-2.7304,-2.7699,-2.7712,-2.8093,-2.8926,-2.9091,-2.9008,-2.8706,-2.8617,-2.9141,-3.0277,-2.968,-2.9215,-2.8855,-2.8511,-2.7895,-2.7013,-2.6727,-2.6948,-2.7491,-2.7434,-2.6499,-2.5082,-2.3888,-2.2611,-2.1448,-2.154,-2.1509,-2.1371,-2.1309,-2.1119,-2.0845,-2.0579,-2.0755,-2.0949,-2.0428,-2.0597,-2.0844,-2.0428,-2.0304,-2.0304,-2.0304,-2.0454,-2.0569,-2.0462,-2.1054,-2.1412,-2.0558,-2.1257,-2.2018,-2.1903,-2.2208,-2.2743,-2.3481,-2.3504,-2.3453,-2.3565,-2.3595,-2.3595,-2.3595,-2.3595,-2.3595,-2.3595,-2.3595,-2.3774,-2.4208,-2.4417,-2.4593,-2.4808,-2.4584,-2.4467,-2.4405,-2.489,-2.4989,-2.474,-2.516,-2.5112,-2.463,-2.4927,-2.5465,-2.6156,-2.6119,-2.6968,-2.5248,-2.5782,-2.6265,-2.6483,0.0,0.0,-3.0048,-3.0125,-3.015,-3.0633,-3.2177,-3.378,-3.4854,-3.5675,-3.6138,-3.5971,-3.5861,-3.5495,-3.461,-3.3237,-3.1777,-3.0366,-2.9217,-2.8332,-2.7785,-2.7452,-2.7261,-2.7201,-2.734,-2.7625,-2.8087,-2.7766,-2.7857,-2.8468,-2.8713,-2.8507,-2.7834,-2.837,-2.8767,-2.8969,-2.8653,-2.8675,-2.8916,-2.8211,-2.7771,-2.7535,-2.6993,-2.7134,-2.776,-2.7367,-2.6415,-2.5017,-2.3281,-2.2302,-2.184,-2.1928,-2.1899,-2.1768,-2.1556,-2.1324,-2.1103,-2.0679,-2.0961,-2.1326,-2.0539,-2.0782,-2.1183,-2.0489,-2.0304,-2.0304,-2.0304,-2.0474,-2.0639,-2.0732,-2.1335,-2.1695,-2.0837,-2.1865,-2.2732,-2.1988,-2.2491,-2.3198,-2.3629,-2.358,-2.3513,-2.3666,-2.3638,-2.3595,-2.3595,-2.3595,-2.3595,-2.3595,-2.3789,-2.4118,-2.4537,-2.4939,-2.5263,-2.5549,-2.5834,-2.5726,-2.5154,-2.5379,-2.5511,-2.5497,-2.5819,-2.5834,-2.5448,-2.6115,-2.6623,-2.7018,-2.705,-2.7937,-2.5584,-2.5185,-2.4783,0.0,0.0,0.0,-3.0211,-2.999,-2.9873,-3.154,-3.2522,-3.3553,-3.5091,-3.5438,-3.523,-3.4425,-3.4281,-3.3731,-3.2116,-3.1157,-3.0277,-2.9407,-2.8413,-2.7796,-2.7816,-2.7447,-2.7217,-2.7217,-2.7774,-2.8104,-2.8104,-2.8841,-2.9302,-2.9302,-2.9751,-2.9439,-2.8298,-2.8774,-2.8705,-2.8174,-2.7719,-2.8014,-2.8971,-2.8375,-2.7936,-2.7713,-2.784,-2.7678,-2.7265,-2.6915,-2.5575,-2.3601,-2.2439,-2.1969,-2.194,-2.222,-2.2096,-2.1827,-2.1797,-2.1587,-2.1246,-2.081,-2.1111,-2.1444,-2.0624,-2.0817,-2.1183,-2.0489,-2.0304,-2.0304,-2.0304,-2.0798,-2.1439,-2.1972,-2.2701,-2.3047,-2.224,-2.3253,-2.3661,-2.1522,-2.2147,-2.298,-2.2996,-2.2832,-2.2933,-2.3691,-2.3696,-2.3595,-2.361,-2.3595,-2.3595,-2.361,-2.4223,-2.4582,-2.4597,-2.5824,-2.6538,-2.6436,-2.703,-2.6742,-2.5265,-2.5756,-2.6173,-2.6436,-2.7399,-2.7349,-2.6223,-2.72,-2.7494,-2.7033,-2.7515,-2.8305,-2.5679,-2.6022,0.0,-2.6491,0.0,0.0,0.0,-3.0017,0.0,0.0,-3.199,-3.2687,-3.4082,-3.4063,-3.3903,-3.4187,-3.3796,-3.3093,-3.2048,-3.1157,-3.0277,-2.9407,-2.8373,-2.7953,-2.8528,-2.8241,-2.8293,-2.8856,-2.8792,-2.8725,-2.8725,-2.8942,-2.9089,-2.9089,-2.8998,-2.8764,-2.8453,-2.8099,-2.7959,-2.7982,-2.7321,-2.7518,-2.8396,-2.7674,-2.7264,-2.7228,-2.7361,-2.7282,-2.701,-2.6178,-2.5129,-2.3963,-2.3067,-2.2651,-2.2598,-2.2651,-2.2598,-2.2453,-2.1957,-2.1721,-2.1556,-2.0909,-2.1111,-2.1444,-2.0624,-2.0817,-2.1183,-2.0489,-2.0304,-2.0304,-2.0304,-2.0458,-2.0624,-2.0788,-2.1378,-2.1824,-2.1445,-2.2547,-2.3385,-2.2707,-2.2827,-2.3239,-2.3743,-2.3355,-2.3126,-2.3691,-2.3782,-2.3876,-2.4268,-2.3894,-2.3789,-2.4268,-2.4073,-2.4283,-2.5241,-2.5255,-2.5762,-2.7015,-2.6867,-2.6683,-2.6757,-2.7205,-2.7493,-2.7591,-2.8275,-2.8418,-2.809,-2.8293,-2.8598,-2.8974,-2.9019,-2.9636,-2.5904,-2.6321,0.0,-2.7158,-2.864,-3.0065,-3.0353,0.0,0.0,0.0,-3.2094,-3.2286,-3.3442,-3.3372,-3.3161,-3.3267,-3.2909,-3.2329,-3.1487,-3.0625,-3.0007,-2.9805,-2.8787,-2.8408,-2.9262,-2.8907,-2.8834,-2.9339,-2.8997,-2.8803,-2.8803,-2.8915,-2.9003,-2.9007,-2.9214,-2.9095,-2.8554,-2.8506,-2.8198,-2.762,-2.7192,-2.7179,-2.7525,-2.6957,-2.6871,-2.7169,-2.7536,-2.7456,-2.6994,-2.5932,-2.5024,-2.4241,-2.3368,-2.2995,-2.2893,-2.285,-2.2816,-2.2668,-2.2015,-2.1797,-2.1661,-2.0958,-2.1164,-2.1561,-2.1035,-2.1104,-2.125,-2.0813,-2.052,-2.0304,-2.0304,-2.0304,-2.0366,-2.0643,-2.1013,-2.1347,-2.1535,-2.2279,-2.2862,-2.2815,-2.2531,-2.2546,-2.3305,-2.2899,-2.2733,-2.3398,-2.3857,-2.4207,-2.4582,-2.4492,-2.4462,-2.4567,-2.4492,-2.4717,-2.554,-2.548,-2.5986,-2.7399,-2.72,-2.7304,-2.7745,-2.7993,-2.8222,-2.8511,-2.8889,-2.9028,-2.8795,-2.9158,-2.9422,-2.9678,-2.9781,-3.0342,-2.6264,-2.6317,0.0,-2.836,-2.9826,0.0,-3.201,-3.1568,-3.1352,-3.28,-3.2559,-3.2353,-3.3138,-3.3172,-3.2826,-3.2039,-3.182,-3.1504,-3.0694,-2.9911,-2.9689,-3.0413,-2.9493,-2.9121,-2.9916,-2.9418,-2.9001,-2.8924,-2.8591,-2.842,-2.8395,-2.8717,-2.8911,-2.8993,-2.9928,-2.9876,-2.8646,-2.9441,-2.8996,-2.7335,-2.7234,-2.6952,-2.6512,-2.6308,-2.6617,-2.7363,-2.8034,-2.7911,-2.713,-2.6142,-2.5268,-2.4506,-2.3668,-2.3203,-2.3023,-2.3023,-2.2894,-2.2632,-2.2015,-2.1797,-2.1691,-2.1007,-2.1216,-2.1694,-2.1639,-2.1548,-2.1476,-2.1358,-2.0875,-2.0381,-2.032,-2.0304,-2.0458,-2.1075,-2.1214,-2.1399,-2.2055,-2.2194,-2.2224,-2.2187,-2.1681,-2.143,-2.2171,-2.2085,-2.2179,-2.298,-2.3949,-2.4582,-2.4582,-2.5151,-2.5315,-2.4731,-2.5196,-2.557,-2.5689,-2.6183,-2.6861,-2.7615,-2.7883,-2.8146,-2.8432,-2.8304,-2.8543,-2.9166,-2.9377,-2.9271,-2.8873,-2.9782,-3.0006,-2.9599,-3.006,-3.064,-2.6877,-2.7102,0.0,0.0,-3.0264,-3.2135,-3.3691,-3.3375,-3.2641,-3.2318,-3.2622,-3.2998,-3.3192,-3.2654,-3.2124,-3.193,-3.1292,-3.0733,-3.0549,-3.0365,-3.0297,-3.0409,-2.9956,-2.9725,-2.9908,-2.9551,-2.9005,-2.8273,-2.7958,-2.7749,-2.7634,-2.7866,-2.8256,-2.8819,-2.9159,-2.92,-2.8906,-2.876,-2.8605,-2.8446,-2.7073,-2.6545,-2.6703,-2.5897,-2.5957,-2.6731,-2.738,-2.7513,-2.7166,-2.6826,-2.6161,-2.5356,-2.5207,-2.4662,-2.3981,-2.3877,-2.3424,-2.2747,-2.2044,-2.1797,-2.1691,-2.1007,-2.1216,-2.1694,-2.1694,-2.1983,-2.2207,-2.1554,-2.1255,-2.1023,-2.0528,-2.0339,-2.035,-2.0539,-2.0555,-2.0705,-2.1347,-2.1538,-2.1655,-2.2194,-2.214,-2.2248,-2.2806,-2.2873,-2.3006,-2.3564,-2.4191,-2.4582,-2.4582,-2.4701,-2.4986,-2.536,-2.5061,-2.5255,-2.6303,-2.6033,-2.6494,-2.8033,-2.7716,-2.8062,-2.9406,-2.9361,-2.9406,-2.9661,-2.9897,-3.0044,-3.0113,-3.0177,-3.0275,-3.037,-3.0456,-3.0752,-2.7619,0.0,0.0,-2.9877,0.0,-3.3431,-3.4385,-3.4578,-3.4429,-3.3957,-3.3531,-3.3232,-3.3204,-3.2826,-3.2356,-3.1884,-3.1309,-3.081,-3.0463,-3.0328,-3.026,-3.0203,-2.9992,-2.9666,-2.9183,-2.8818,-2.8255,-2.7295,-2.6982,-2.6796,-2.6644,-2.73,-2.7867,-2.8256,-2.8901,-2.9188,-2.906,-2.8879,-2.8596,-2.8208,-2.7039,-2.648,-2.6447,-2.6094,-2.613,-2.6556,-2.7684,-2.8076,-2.7843,-2.7403,-2.6856,-2.6232,-2.5843,-2.5112,-2.4252,-2.4174,-2.3606,-2.2747,-2.2073,-2.1827,-2.1691,-2.1007,-2.098,-2.129,-2.1584,-2.1659,-2.1588,-2.1501,-2.1217,-2.0856,-2.0481,-2.0354,-2.0304,-2.0339,-2.0339,-2.0489,-2.1168,-2.1322,-2.1615,-2.2578,-2.2517,-2.2501,-2.3084,-2.3127,-2.3193,-2.3634,-2.4237,-2.4582,-2.4582,-2.4896,-2.5226,-2.557,-2.553,-2.5849,-2.6851,-2.6608,-2.7087,-2.8576,-2.8717,-2.9027,-2.975,-3.0293,-3.0413,-3.013,-3.0877,-3.098,-3.0359,-3.0617,-3.0638,-3.0393,-3.0402,-3.0767,-2.829,0.0,-2.9546,-3.1584,-3.331,0.0,-3.475,-3.5362,-3.591,-3.5887,-3.4722,-3.3653,-3.3446,-3.3386,-3.3045,-3.2008,-3.1584,-3.1158,-3.0502,-3.0142,-2.9924,-2.9931,-2.9799,-2.9323,-2.8353,-2.7968,-2.7365,-2.6275,-2.5991,-2.5805,-2.5689,-2.6886,-2.7629,-2.7785,-2.8907,-2.9395,-2.9172,-2.9289,-2.8867,-2.7926,-2.7377,-2.6761,-2.6125,-2.6656,-2.6905,-2.6891,-2.836,-2.8863,-2.8608,-2.7973,-2.7531,-2.7121,-2.625,-2.5288,-2.4375,-2.4252,-2.3563,-2.2668,-2.2084,-2.1811,-2.1601,-2.1007,-2.0777,-2.0852,-2.1509,-2.1365,-2.1045,-2.1655,-2.1335,-2.0783,-2.0659,-2.0593,-2.0578,-2.0578,-2.074,-2.0926,-2.125,-2.1322,-2.1639,-2.2886,-2.2724,-2.2632,-2.3268,-2.3229,-2.3205,-2.3563,-2.4222,-2.4672,-2.4552,-2.5198,-2.5651,-2.5651,-2.6167,-2.676,-2.7365,-2.7535,-2.8031,-2.9042,-2.9878,-3.0144,-2.9826,-3.1063,-3.1404,-3.0543,-3.1632,-3.1577,-3.0231,-3.0967,-3.0935,-3.0248,-3.0258,-3.0668,0.0,0.0,-3.1168,0.0,-3.368,-3.4671,0.0,-3.5737,-3.5888,-3.5821,-3.5577,-3.5154,-3.4384,-3.4128,-3.3705,-3.2573,-3.1798,-3.1207,-3.0881,-3.015,-2.9644,-2.9644,-2.9475,-2.904,-2.8222,-2.7885,-2.7083,-2.5557,-2.5306,-2.5219,-2.5194,-2.6388,-2.74,-2.8108,-2.9083,-2.957,-2.9533,-2.9493,-2.9397,-2.9226,-2.8628,-2.7557,-2.6144,-2.7584,-2.8179,-2.811,-2.9025,-2.9212,-2.8839,-2.8753,-2.8456,-2.7969,-2.7139,-2.6171,-2.5146,-2.4392,-2.3413,-2.2385,-2.1969,-2.1617,-2.1309,-2.0925,-2.0794,-2.0936,-2.1663,-2.2181,-2.2591,-2.2629,-2.2561,-2.2305,-2.1624,-2.1626,-2.1782,-2.1782,-2.2433,-2.2756,-2.1559,-2.1322,-2.1501,-2.227,-2.2668,-2.3056,-2.364,-2.3603,-2.3548,-2.358,-2.4529,-2.5017,-2.4392,-2.5222,-2.5879,-2.5879,-2.6498,-2.7186,-2.7834,-2.8493,-2.8933,-2.9074,-3.0156,-3.0509,-2.9826,-3.1583,-3.1918,-3.0543,-3.1139,-3.1112,-3.0485,-3.1008,-3.1035,-3.0485,-3.0441,-3.0533,-2.8979,-3.0433,-3.1958,0.0,-3.3873,-3.5117,-3.5549,-3.5749,-3.5849,-3.5821,-3.5743,-3.5582,-3.5208,-3.4928,-3.4405,-3.3339,-3.2277,-3.1374,-3.0865,-2.9979,-2.9357,-2.9318,-2.9314,-2.8936,-2.8017,-2.7495,-2.6657,-2.5395,-2.4864,-2.4608,-2.4588,-2.6117,-2.7194,-2.7639,-2.9074,-2.9805,-2.9769,-2.9698,-2.9229,-2.8324,-2.8061,-2.7589,-2.7015,-2.7733,-2.8149,-2.8387,-2.9101,-2.9233,-2.8943,-2.891,-2.8669,-2.8264,-2.7853,-2.6783,-2.5509,-2.5442,-2.449,-2.3185,-2.307,-2.2864,-2.2573,-2.2136,-2.1929,-2.2008,-2.2359,-2.2623,-2.2781,-2.2402,-2.222,-2.2142,-2.1967,-2.1975,-2.2157,-2.2712,-2.2999,-2.3099,-2.2813,-2.2754,-2.2898,-2.3302,-2.3524,-2.369,-2.3794,-2.3739,-2.3696,-2.3595,-2.4253,-2.4641,-2.4348,-2.529,-2.6103,-2.6483,-2.7418,-2.8292,-2.8954,-2.9307,-2.9617,-2.9897,-3.0518,-3.0868,-3.0838,-3.1622,-3.1785,-3.1113,-3.1764,-3.1566,-3.0526,-3.1143,-3.111,-3.0526,-3.0526,-3.0742,0.0,0.0,-3.2506,-3.2768,-3.4102,-3.5391,-3.5538,-3.5678,-3.5775,-3.5813,-3.5755,-3.569,-3.5674,-3.5391,-3.4913,-3.4036,-3.2895,-3.1818,-3.0974,-3.0024,-2.9277,-2.8902,-2.8975,-2.8635,-2.7633,-2.7045,-2.6334,-2.5397,-2.4887,-2.4549,-2.431,-2.6228,-2.732,-2.7226,-2.9049,-3.0019,-2.9984,-2.969,-2.8856,-2.7495,-2.7481,-2.7537,-2.7714,-2.7912,-2.8289,-2.8812,-2.9251,-2.9316,-2.906,-2.8984,-2.8743,-2.838,-2.8013,-2.7077,-2.5924,-2.6055,-2.5207,-2.3978,-2.3927,-2.3786,-2.3499,-2.306,-2.2859,-2.2823,-2.288,-2.2859,-2.2765,-2.2385,-2.2226,-2.2245,-2.2536,-2.2733,-2.3043,-2.3767,-2.3891,-2.3835,-2.3759,-2.3864,-2.4006,-2.4142,-2.4124,-2.4024,-2.3797,-2.3739,-2.3739,-2.3782,-2.4162,-2.4554,-2.4848,-2.5726,-2.6599,-2.7262,-2.8304,-2.9098,-2.9414,-2.9772,-2.9989,-3.002,-3.0866,-3.1307,-3.1139,-3.1781,-3.2,-3.1636,-3.215,-3.1785,-3.0526,-3.1212,-3.1196,-3.0526,-3.0709,-3.1047,0.0,-3.2056,0.0,-3.358,-3.447,-3.5258,-3.5456,-3.5611,-3.5745,-3.5878,-3.5779,-3.5678,-3.5621,-3.5334,-3.4961,-3.4536,-3.3608,-3.2539,-3.1439,-3.0508,-2.9512,-2.838,-2.8264,-2.7853,-2.6845,-2.6611,-2.6186,-2.5447,-2.5643,-2.5452,-2.4622,-2.6968,-2.802,-2.7312,-2.9121,-3.0118,-3.0169,-2.9298,-2.849,-2.7788,-2.7701,-2.7689,-2.7739,-2.8485,-2.9208,-2.9832,-2.9853,-2.9644,-2.9272,-2.9148,-2.8827,-2.8308,-2.7406,-2.6934,-2.6604,-2.542,-2.4778,-2.4394,-2.3885,-2.3515,-2.3183,-2.2952,-2.288,-2.288,-2.288,-2.288,-2.2952,-2.3224,-2.3347,-2.3468,-2.3654,-2.4464,-2.5213,-2.5113,-2.5832,-2.5911,-2.3787,-2.3769,-2.4162,-2.4024,-2.3925,-2.3782,-2.3638,-2.3595,-2.3782,-2.4219,-2.4599,-2.5259,-2.6364,-2.6913,-2.7507,-2.8252,-2.8963,-2.9128,-2.8539,-2.9691,-3.0004,-2.8864,-3.1178,-3.178,-2.9951,-3.2323,-3.3027,-3.1609,-3.1626,-3.1305,-3.0526,-3.1212,-3.1196,-3.0543,-3.1196,-3.1543,0.0,0.0,0.0,-3.2929,-3.3734,-3.4522,-3.5113,-3.5044,-3.502,-3.5544,-3.5641,-3.5551,-3.5329,-3.5007,-3.4734,-3.4529,-3.3496,-3.2284,-3.1157,-3.0376,-2.9455,-2.8116,-2.8299,-2.827,-2.7609,-2.721,-2.6827,-2.634,-2.5914,-2.5689,-2.5679,-2.7184,-2.807,-2.8183,-2.9516,-3.0273,-3.0381,-2.9509,-2.867,-2.7864,-2.7264,-2.7248,-2.772,-2.8001,-2.877,-2.9907,-2.9805,-2.9533,-2.9148,-2.8943,-2.8718,-2.8492,-2.7977,-2.7415,-2.6881,-2.6527,-2.5939,-2.5317,-2.5107,-2.4899,-2.4696,-2.4376,-2.4261,-2.4205,-2.3951,-2.3843,-2.3855,-2.3749,-2.3753,-2.3918,-2.4679,-2.5145,-2.5464,-2.5711,-2.6045,-2.6021,-2.4894,-2.4602,-2.4426,-2.3967,-2.4036,-2.4162,-2.4078,-2.4051,-2.4204,-2.4639,-2.502,-2.5609,-2.649,-2.7416,-2.8257,-2.8969,-2.9698,-3.0029,-2.9781,-3.0228,-3.0525,-3.0553,-3.1467,-3.2095,-3.2356,-3.2821,-3.3061,-3.3011,-3.2547,-3.1951,-3.1196,-3.0981,-3.0775,-3.0526,-3.0791,-3.1669,-2.9719,0.0,0.0,0.0,-3.3369,-3.4234,-3.4312,-3.4565,-3.4865,-3.5055,-3.5375,-3.5504,-3.5162,-3.4794,-3.4508,-3.4398,-3.3586,-3.2565,-3.1529,-3.0784,-2.9917,-2.8747,-2.8514,-2.838,-2.8211,-2.7596,-2.7154,-2.6979,-2.6613,-2.6399,-2.6417,-2.7675,-2.8667,-2.9283,-3.0017,-3.0443,-3.0571,-2.9406,-2.8655,-2.8318,-2.7161,-2.714,-2.8134,-2.8128,-2.8736,-2.9786,-2.9717,-2.9456,-2.9064,-2.8868,-2.8712,-2.8562,-2.8309,-2.7879,-2.7388,-2.73,-2.6871,-2.629,-2.606,-2.5885,-2.5663,-2.524,-2.5107,-2.5112,-2.4857,-2.4518,-2.4256,-2.4398,-2.4263,-2.4359,-2.5389,-2.5778,-2.5967,-2.625,-2.621,-2.5997,-2.5631,-2.523,-2.4799,-2.4328,-2.4436,-2.4558,-2.4533,-2.4492,-2.4639,-2.5059,-2.5313,-2.5935,-2.7081,-2.7888,-2.8738,-2.9682,-3.0228,-3.0427,-3.0162,-3.0377,-3.0725,-3.1179,-3.1719,-3.2415,-3.3375,-3.3425,-3.3541,-3.3789,-3.3354,-3.2757,-3.2027,-3.1298,-3.0817,-3.0526,-3.0817,-3.211,0.0,0.0,0.0,-3.2187,-3.3447,-3.4415,-3.3149,-3.4268,-3.5328,-3.4497,-3.5,-3.55,-3.5147,-3.4699,-3.4353,-3.4221,-3.3972,-3.3486,-3.2582,-3.1814,-3.1021,-3.0277,-2.8888,-2.8123,-2.8575,-2.7728,-2.7198,-2.7307,-2.7725,-2.7607,-2.6808,-2.85,-2.9823,-3.0463,-3.0563,-3.0632,-3.0703,-2.8981,-2.8461,-2.9156,-2.7428,-2.7431,-2.8957,-2.8989,-2.9235,-2.9608,-2.9608,-2.9416,-2.9104,-2.8938,-2.8785,-2.8562,-2.8282,-2.8219,-2.8119,-2.76,-2.7404,-2.731,-2.6556,-2.6173,-2.5941,-2.5454,-2.5384,-2.5508,-2.5475,-2.4732,-2.4132,-2.5208,-2.5031,-2.4785,-2.5785,-2.6461,-2.6893,-2.6742,-2.6401,-2.6068,-2.5852,-2.5519,-2.5192,-2.5091,-2.5013,-2.4918,-2.4902,-2.4902,-2.5044,-2.5465,-2.5503,-2.6227,-2.8136,-2.8412,-2.8936,-3.0361,-3.0526,-3.0228,-2.9499,-3.0112,-3.0543,-3.0576,-3.1901,-3.2696,-3.2746,-3.4137,-3.4568,-3.3839,-3.3943,-3.3639,-3.2907,-3.2174,-3.1382,-3.0543,-3.1465,-3.2918,-2.9999,0.0,0.0,0.0,0.0,0.0,-3.4186,-3.4389,-3.4591,-3.4821,-3.5191,-3.5249,-3.4637,-3.4416,-3.4203,-3.3815,-3.3671,-3.3211,-3.2148,-3.1802,-3.1225,-3.0039,-2.9664,-2.9411,-2.9196,-2.8572,-2.8137,-2.7975,-2.7601,-2.7531,-2.7835,-2.9094,-2.9965,-3.0342,-3.05,-3.0651,-3.0765,-2.9041,-2.8267,-2.8465,-2.7246,-2.7205,-2.8228,-2.8759,-2.9313,-2.9786,-2.9551,-2.9318,-2.9104,-2.891,-2.8687,-2.8432,-2.8273,-2.8136,-2.7996,-2.7557,-2.7404,-2.7341,-2.6758,-2.6556,-2.6436,-2.6068,-2.5634,-2.5141,-2.4813,-2.451,-2.4399,-2.4974,-2.5403,-2.5832,-2.6527,-2.6821,-2.6842,-2.6674,-2.6555,-2.64,-2.6208,-2.6049,-2.5795,-2.5114,-2.5591,-2.5963,-2.5448,-2.5313,-2.5481,-2.5954,-2.599,-2.6607,-2.8191,-2.8412,-2.8936,-3.0361,-3.0526,-3.0444,-3.0228,-3.0352,-3.0974,-3.2017,-3.2464,-3.316,-3.4237,-3.4667,-3.4847,-3.4742,-3.4226,-3.3701,-3.3054,-3.2302,-3.1508,-3.07,-3.2436,-3.357,-2.9525,-3.0383,-3.1191,-3.1347,0.0,0.0,-3.277,-3.3625,-3.4412,-3.4048,-3.4677,-3.51,-3.4524,-3.434,-3.4124,-3.3753,-3.3549,-3.3241,-3.2647,-3.2275,-3.1876,-3.1306,-3.0752,-3.0424,-3.0442,-2.979,-2.9162,-2.861,-2.8285,-2.8262,-2.8572,-2.9401,-2.9985,-3.0286,-3.0524,-3.0716,-3.0843,-2.9107,-2.8415,-2.8738,-2.7756,-2.7691,-2.8424,-2.9186,-2.9665,-2.9888,-2.957,-2.9299,-2.9064,-2.8845,-2.8612,-2.8398,-2.8246,-2.8136,-2.7968,-2.763,-2.7539,-2.7478,-2.7135,-2.6923,-2.6757,-2.642,-2.6101,-2.5782,-2.5475,-2.5246,-2.5261,-2.582,-2.6203,-2.6539,-2.6872,-2.6876,-2.6759,-2.664,-2.6606,-2.6537,-2.633,-2.6528,-2.6518,-2.56,-2.5967,-2.6318,-2.5877,-2.5775,-2.5901,-2.6168,-2.6468,-2.7065,-2.8224,-2.8622,-2.9251,-3.0394,-3.0526,-3.0526,-3.0526,-3.0526,-3.1007,-3.227,-3.2337,-3.3001,-3.4449,-3.4247,-3.4259,-3.4638,-3.4013,-3.3349,-3.2698,-3.2236,-3.155,-3.0742,-3.2807,-3.3789,-2.9344,-3.0002,-3.0551,-2.994,-3.1539,0.0,-3.0716,-3.2689,-3.452,-3.2993,-3.3937,-3.4963,-3.4604,-3.434,-3.4099,-3.3807,-3.3549,-3.3452,-3.3549,-3.2985,-3.2702,-3.313,-3.1917,-3.1312,-3.1924,-3.1094,-3.0196,-2.9384,-2.9454,-2.944,-2.9223,-2.9777,-3.0247,-3.0588,-3.0741,-3.0901,-3.1024,-2.9306,-2.8806,-2.9503,-2.8637,-2.8539,-2.9138,-2.9939,-3.0185,-2.9905,-2.9607,-2.9339,-2.9107,-2.8821,-2.8587,-2.8371,-2.8246,-2.8091,-2.794,-2.776,-2.7701,-2.7672,-2.7478,-2.7206,-2.6914,-2.6707,-2.6655,-2.6698,-2.6655,-2.6453,-2.635,-2.7089,-2.7154,-2.6975,-2.6926,-2.6792,-2.6691,-2.6707,-2.6639,-2.6571,-2.6447,-2.6878,-2.7075,-2.6336,-2.6286,-2.6303,-2.622,-2.622,-2.6236,-2.6319,-2.6866,-2.7599,-2.839,-2.9036,-2.9698,-3.0444,-3.0526,-3.0526,-3.0526,-3.0526,-3.0883,-3.1757,-3.1807,-3.244,-3.3839,-3.3355,-3.3322,-3.3889,-3.3359,-3.2765,-3.2092,-3.1934,-3.1516,-3.0875,-3.2857,-3.3789,-2.9569,-3.0148,-3.0837,-3.1441,-3.1987,0.0,-3.35,-3.3847,-3.4033,-3.4263,-3.4661,-3.4774,-3.4227,-3.4074,-3.3921,-3.3549,-3.3422,-3.3393,-3.3422,-3.3141,-3.2937,-3.3019,-3.2499,-3.2196,-3.2456,-3.1696,-3.1052,-3.0653,-3.0517,-3.0523,-3.0686,-3.1447,-3.2053,-3.2386,-3.1922,-3.1724,-3.1858,-3.0183,-2.9439,-2.9584,-2.9224,-2.9113,-2.9203,-2.9967,-3.024,-3.0109,-2.9625,-2.9379,-2.9299,-2.8803,-2.8484,-2.8246,-2.8201,-2.8035,-2.776,-2.7701,-2.7701,-2.7683,-2.7672,-2.718,-2.6678,-2.7209,-2.6536,-2.5634,-2.6122,-2.6238,-2.632,-2.6943,-2.7055,-2.6975,-2.6926,-2.6792,-2.6809,-2.7207,-2.6904,-2.6652,-2.7005,-2.6753,-2.6369,-2.6236,-2.6667,-2.6882,-2.6319,-2.622,-2.6402,-2.7018,-2.7218,-2.7744,-2.9036,-2.9334,-2.9698,-3.0444,-3.0526,-3.0526,-3.0526,-3.0526,-3.0883,-3.1757,-3.1807,-3.2233,-3.3144,-3.3398,-3.3423,-3.3352,-3.2799,-3.2326,-3.2092,-3.1316,-3.1183,-3.1624,-3.3089,-3.3789,-2.9794,-2.9945,-3.028,-3.081,-3.1242,0.0,0.0,-3.2882,-3.3412,-3.2956,-3.3783,-3.4373,-3.3677,-3.3714,-3.378,-3.3577,-3.3481,-3.3393,-3.3393,-3.3226,-3.3147,-3.3238,-3.2988,-3.2894,-3.3068,-3.2568,-3.2018,-3.1452,-3.1092,-3.0975,-3.1141,-3.1911,-3.2457,-3.2694,-3.2596,-3.24,-3.2109,-3.0866,-3.0027,-2.9591,-2.9405,-2.9256,-2.9237,-2.996,-3.0259,-3.0113,-2.9625,-2.9378,-2.9316,-2.8749,-2.838,-2.8201,-2.8201,-2.8007,-2.7701,-2.7701,-2.7701,-2.7701,-2.7701,-2.7151,-2.6621,-2.7372,-2.6772,-2.593,-2.6606,-2.677,-2.6778,-2.6985,-2.704,-2.6975,-2.6842,-2.6742,-2.6843,-2.7463,-2.7039,-2.6651,-2.7225,-2.6753,-2.622,-2.622,-2.6609,-2.6797,-2.627,-2.622,-2.6452,-2.7201,-2.7616,-2.8207,-2.9284,-2.9731,-3.0112,-3.0477,-3.0526,-3.0593,-3.0861,-3.1049,-3.139,-3.1939,-3.1955,-3.2236,-3.2838,-3.2581,-3.2313,-3.2126,-3.1796,-3.1965,-3.258,-3.2059,-3.1991,-3.2407,-3.4176,-3.4778,-2.9922,-2.97,-2.9683,-2.9941,-3.0452,-3.0809,0.0,0.0,0.0,-3.1614,-3.2888,-3.4003,-3.3133,-3.3335,-3.3597,-3.3587,-3.3433,-3.3304,-3.3304,-3.3178,-3.319,-3.3433,-3.3298,-3.3298,-3.3549,-3.3298,-3.2847,-3.2152,-3.1753,-3.1583,-3.167,-3.2371,-3.2851,-3.3038,-3.3286,-3.3081,-3.2363,-3.1548,-3.0689,-2.9826,-2.9638,-2.9509,-2.9469,-3.0025,-3.0213,-3.0053,-2.9588,-2.9358,-2.9251,-2.8651,-2.8327,-2.8219,-2.8174,-2.7979,-2.7701,-2.7701,-2.7701,-2.7701,-2.7701,-2.7064,-2.6411,-2.732,-2.7168,-2.6678,-2.7074,-2.7224,-2.7267,-2.7057,-2.7007,-2.6942,-2.6742,-2.6691,-2.6894,-2.755,-2.7075,-2.6651,-2.7281,-2.6773,-2.622,-2.6274,-2.645,-2.6554,-2.631,-2.631,-2.6628,-2.7457,-2.8089,-2.8749,-2.9516,-3.0145,-3.0551,-3.0634,-3.0634,-3.0861,-3.1393,-3.1698,-3.1975,-3.2319,-3.22,-3.2287,-3.2715,-3.1759,-3.1258,-3.1376,-3.1314,-3.189,-3.3151,-3.3322,-3.3451,-3.3589,-3.5488,-3.5939,-2.972,-2.9701,-2.987,-3.0603,-3.0828,-3.1259,-3.2647,0.0,-3.3302,-3.2929,0.0,-3.379,-3.2768,0.0,0.0,-3.3178,-3.3073,-3.2948,-3.2948,-3.2802,-3.2866,-3.3364,-3.3226,-3.3208,-3.3491,-3.3327,-3.3166,-3.3135,-3.3161,-3.3213,-3.3413,-3.4054,-3.4599,-3.4969,-3.4507,-3.3946,-3.3258,-3.2402,-3.1524,-3.0662,-3.0522,-3.042,-3.0358,-3.0244,-3.0166,-3.0053,-2.9588,-2.9358,-2.9251,-2.8651,-2.8327,-2.8174,-2.8053,-2.7893,-2.7701,-2.7701,-2.7701,-2.7701,-2.7701,-2.6725,-2.5705,-2.7198,-2.7547,-2.7252,-2.6536,-2.6774,-2.7267,-2.7057,-2.7007,-2.6942,-2.6742,-2.6691,-2.6894,-2.755,-2.7075,-2.6651,-2.7281,-2.6773,-2.6274,-2.652,-2.6589,-2.6589,-2.6554,-2.6759,-2.7284,-2.8387,-2.8619,-2.9075,-3.0212,-3.0477,-3.0675,-3.114,-3.1218,-3.1393,-3.1896,-3.1965,-3.2332,-3.3124,-3.2492,-3.2331,-3.2873,-3.1798,-3.1691,-3.2651,-3.2338,-3.256,-3.3364,-3.4682,-3.548,-3.5869,-3.6769,-3.677,-2.9921,-2.9774,-2.9813,-3.0224,-3.0264,-3.0396,-3.1091,-3.1616,-3.1764,-3.1094,0.0,0.0,0.0,0.0,0.0,0.0,-3.2688,-3.2916,-3.2916,-3.2737,-3.2737,-3.3073,-3.3359,-3.3562,-3.3723,-3.3539,-3.328,-3.2925,-3.3262,-3.3522,-3.3524,-3.42,-3.4775,-3.5172,-3.5154,-3.4827,-3.4163,-3.3295,-3.2394,-3.1496,-3.0899,-3.0543,-3.0443,-3.0266,-3.0123,-2.9972,-2.9698,-2.9436,-2.9148,-2.8749,-2.8518,-2.8396,-2.8109,-2.7864,-2.7701,-2.7701,-2.7701,-2.7631,-2.721,-2.6276,-2.5397,-2.6044,-2.6539,-2.6929,-2.6901,-2.7099,-2.7313,-2.712,-2.7055,-2.7023,-2.6859,-2.6825,-2.6995,-2.762,-2.718,-2.6894,-2.7602,-2.718,-2.6691,-2.6825,-2.7299,-2.7689,-2.7689,-2.7656,-2.8084,-2.9493,-2.9695,-3.0051,-3.1065,-3.1201,-3.1338,-3.1677,-3.1714,-3.2086,-3.3019,-3.3265,-3.365,-3.4288,-3.321,-3.2372,-3.1944,-3.1868,-3.1845,-3.1788,-3.2981,-3.3728,-3.398,-3.5715,-3.707,-3.8116,-3.7509,-3.7398,-3.0042,-2.9825,-2.9756,-2.9841,-2.996,-3.0021,-3.0021,-3.0659,-3.0938,-2.9895,-3.0668,0.0,0.0,0.0,-3.153,-3.1744,0.0,-3.2474,-3.2687,-3.2716,-3.282,-3.287,-3.3303,-3.363,-3.3841,-3.3517,-3.3232,-3.3072,-3.3286,-3.3437,-3.3486,-3.4104,-3.4679,-3.509,-3.5477,-3.5349,-3.469,-3.4031,-3.3145,-3.2012,-3.1239,-3.0723,-3.0423,-3.0254,-3.006,-2.9888,-2.9681,-2.9397,-2.9082,-2.8821,-2.8669,-2.8576,-2.8264,-2.8017,-2.78,-2.78,-2.78,-2.7706,-2.702,-2.6383,-2.5738,-2.5199,-2.6051,-2.7302,-2.7225,-2.7465,-2.7712,-2.7218,-2.7103,-2.7055,-2.6926,-2.7029,-2.7267,-2.7828,-2.7555,-2.7367,-2.8065,-2.7617,-2.7169,-2.7407,-2.8068,-2.8699,-2.9166,-2.8899,-2.9059,-3.0312,-3.0537,-3.0831,-3.1591,-3.175,-3.1896,-3.2162,-3.2406,-3.2931,-3.4005,-3.4533,-3.4871,-3.5098,-3.391,-3.2754,-3.1708,-3.2269,-3.2283,-3.1678,-3.3736,-3.4955,-3.5263,-3.6833,-3.8343,-3.9811,-3.8301,-3.8,-2.9907,-2.9857,-2.9808,-2.9808,-3.0339,-3.0846,-3.0846,-3.1485,-3.1742,-3.0602,-3.0857,-3.0972,-2.9828,-3.0029,-3.0606,-3.1381,-3.1296,0.0,0.0,-3.277,-3.3125,-3.2909,-3.2902,-3.3123,-3.3667,-3.2977,-3.3019,-3.415,-3.3432,-3.3136,-3.3652,-3.4141,-3.4621,-3.509,-3.5437,-3.5281,-3.4617,-3.4517,-3.368,-3.2085,-3.1739,-3.1193,-3.0492,-3.0215,-3.0038,-2.9872,-2.9475,-2.9233,-2.9082,-2.8821,-2.8669,-2.8601,-2.859,-2.8376,-2.8102,-2.8102,-2.8102,-2.8004,-2.7475,-2.7229,-2.686,-2.5084,-2.6738,-2.9078,-2.7194,-2.766,-2.8601,-2.742,-2.7055,-2.6975,-2.6926,-2.7335,-2.7878,-2.8283,-2.8266,-2.8249,-2.8586,-2.801,-2.7635,-2.8477,-2.8683,-2.9222,-3.081,-3.0495,-3.0219,-3.0699,-3.0907,-3.115,-3.1627,-3.186,-3.2179,-3.2636,-3.3377,-3.4041,-3.4545,-3.5318,-3.5573,-3.5132,-3.4381,-3.3611,-3.2865,-3.3172,-3.3355,-3.3339,-3.481,-3.6151,-3.7413,-3.819,-3.9303,-4.0731,-3.9234,-3.8624,-3.006,-3.0019,-2.9839,-2.9179,-2.9602,-3.0001,-2.9288,-2.9832,-3.0298,-2.9554,-2.9747,-2.9839,-2.9198,-2.9494,-3.0091,-3.0856,-3.1087,-3.1408,0.0,-3.2423,-3.244,-3.2196,-3.2948,-3.3771,-3.4429,-3.3894,-3.3557,-3.3739,-3.3229,-3.2988,-3.3166,-3.375,-3.4352,-3.4945,-3.5303,-3.5466,-3.5464,-3.4257,-3.3327,-3.2753,-3.1438,-3.0633,-3.0304,-3.0171,-3.0022,-2.9872,-2.957,-2.9377,-2.9272,-2.9056,-2.8879,-2.8713,-2.8547,-2.8316,-2.8129,-2.8298,-2.8246,-2.7951,-2.6873,-2.6495,-2.6429,-2.6325,-2.6933,-2.7779,-2.8088,-2.8057,-2.7795,-2.7365,-2.7562,-2.7892,-2.7742,-2.8013,-2.8334,-2.8316,-2.8143,-2.8022,-2.817,-2.8035,-2.8003,-2.8298,-2.9184,-3.0082,-3.0632,-3.1426,-3.1966,-3.1982,-3.2133,-3.2353,-3.2601,-3.3146,-3.363,-3.3908,-3.4677,-3.5425,-3.6127,-3.595,-3.5722,-3.5578,-3.4772,-3.4235,-3.3955,-3.5377,-3.5856,-3.5324,-3.7603,-3.8494,-3.7971,-3.9333,-4.0275,-4.0772,-3.9305,-3.8969,-2.9302,-2.9254,-2.9079,-2.8385,-2.8817,-2.9223,-2.8537,-2.9063,-2.9626,-2.9188,-2.927,-2.927,-2.8868,-2.8982,-2.9503,-3.0467,-3.0694,-3.118,0.0,-3.2354,-3.2248,-3.2364,-3.3142,-3.3847,-3.4215,-3.4147,-3.39,-3.3476,-3.3194,-3.3004,-3.2858,-3.3515,-3.4149,-3.4699,-3.5113,-3.5469,-3.5727,-3.4575,-3.3674,-3.3045,-3.1811,-3.0861,-3.0188,-3.0079,-2.9975,-2.9857,-2.9589,-2.9435,-2.9392,-2.9212,-2.902,-2.879,-2.8652,-2.8453,-2.8272,-2.8453,-2.8141,-2.755,-2.6599,-2.6299,-2.6395,-2.6783,-2.7345,-2.7959,-2.8514,-2.834,-2.7844,-2.7431,-2.7816,-2.837,-2.8319,-2.8831,-2.9325,-2.9141,-2.8951,-2.8792,-2.8602,-2.8461,-2.8488,-2.8998,-2.9901,-3.0749,-3.1242,-3.2268,-3.2898,-3.2737,-3.2866,-3.31,-3.3463,-3.4042,-3.4555,-3.4974,-3.5747,-3.6544,-3.7341,-3.6434,-3.6081,-3.6779,-3.5803,-3.5386,-3.5796,-3.7317,-3.7756,-3.6939,-3.9221,-3.9993,-3.9208,-4.0559,-4.1321,-4.1385,-4.0143,-3.9643]},{"header":{"parameterUnit":"m.s-1","parameterCategory":1,"la1":30.6,"la2":29.2853,"lo1":-89.7004,"lo2":-87.6739,"dy":0.0162,"dx":0.0183,"nx":112,"ny":82,"refTime":"2023-03-26T06:00:00:Z","depth":0,"parameterNumber":3,"parameterNumberName":"V-component_of_WINDS"},"data":[0.0,0.0,0.0,0.0,0.0,0.0,0.0,0.0,0.0,0.0,0.0,0.0,0.0,0.0,0.0,0.0,0.0,0.0,0.0,0.0,0.0,0.0,0.0,0.0,0.0,0.0,0.0,0.0,0.0,0.0,0.0,0.0,0.0,0.0,0.0,0.0,0.0,0.0,0.0,0.0,0.0,0.0,0.0,0.0,0.0,0.0,0.0,0.0,0.0,0.0,0.0,0.0,0.0,0.0,0.0,0.0,0.0,0.0,0.0,0.0,0.0,0.0,0.0,0.0,0.0,0.0,0.0,0.0,0.0,0.0,0.0,0.0,0.0,0.0,0.0,0.0,0.0,0.0,0.0,0.0,0.0,0.0,0.0,0.0,0.0,0.0,0.0,0.0,0.0,0.0,-1.5139,-1.306,-1.1033,-1.009,-1.0853,-1.1227,-1.2431,-1.4817,0.0,0.0,0.0,0.0,0.0,0.0,0.0,0.0,0.0,0.0,0.0,0.0,0.0,0.0,0.0,0.0,0.0,0.0,0.0,0.0,0.0,0.0,0.0,0.0,0.0,0.0,0.0,0.0,0.0,0.0,0.0,0.0,0.0,0.0,0.0,0.0,0.0,0.0,0.0,0.0,0.0,0.0,0.0,0.0,0.0,0.0,0.0,0.0,0.0,0.0,0.0,0.0,0.0,0.0,0.0,0.0,0.0,0.0,0.0,0.0,0.0,0.0,0.0,0.0,0.0,0.0,0.0,0.0,0.0,0.0,0.0,0.0,0.0,0.0,0.0,0.0,0.0,0.0,0.0,0.0,0.0,0.0,0.0,0.0,0.0,0.0,0.0,0.0,0.0,0.0,0.0,0.0,0.0,0.0,0.0,0.0,0.0,0.0,0.0,0.0,0.0,0.0,0.0,0.0,-1.4501,-1.0988,-0.9797,-0.9687,-1.0681,-1.1393,-1.2962,-1.5578,0.0,0.0,0.0,0.0,0.0,0.0,0.0,0.0,0.0,0.0,0.0,0.0,0.0,0.0,0.0,0.0,0.0,0.0,0.0,0.0,0.0,0.0,0.0,0.0,0.0,0.0,0.0,0.0,0.0,0.0,0.0,0.0,0.0,0.0,0.0,0.0,0.0,0.0,0.0,0.0,0.0,0.0,0.0,0.0,0.0,0.0,0.0,0.0,0.0,0.0,0.0,0.0,0.0,0.0,0.0,0.0,0.0,0.0,0.0,0.0,0.0,0.0,0.0,0.0,0.0,0.0,0.0,0.0,0.0,0.0,0.0,0.0,0.0,0.0,0.0,0.0,0.0,0.0,0.0,0.0,0.0,0.0,0.0,0.0,0.0,0.0,0.0,0.0,0.0,0.0,0.0,0.0,0.0,0.0,0.0,0.0,0.0,0.0,0.0,0.0,0.0,0.0,0.0,-1.5861,-1.3526,-1.1043,-1.1027,-1.1528,-1.2037,-1.2765,-1.4214,-1.6631,-1.7868,0.0,0.0,0.0,0.0,0.0,0.0,0.0,0.0,0.0,0.0,0.0,0.0,0.0,0.0,0.0,0.0,0.0,0.0,0.0,0.0,0.0,0.0,0.0,0.0,0.0,0.0,0.0,0.0,0.0,0.0,0.0,0.0,0.0,0.0,0.0,0.0,0.0,0.0,0.0,0.0,0.0,0.0,0.0,0.0,0.0,0.0,0.0,0.0,0.0,0.0,0.0,0.0,0.0,0.0,0.0,0.0,0.0,0.0,0.0,0.0,0.0,0.0,0.0,0.0,0.0,0.0,0.0,0.0,0.0,0.0,0.0,0.0,0.0,0.0,0.0,0.0,0.0,0.0,0.0,0.0,0.0,0.0,0.0,0.0,0.0,0.0,0.0,0.0,0.0,0.0,0.0,0.0,0.0,0.0,0.0,0.0,0.0,0.0,0.0,0.0,0.0,0.0,-1.5106,-1.3247,-1.2033,-1.2661,-1.321,-1.3443,-1.4164,-1.5439,-1.7476,-1.8974,0.0,0.0,0.0,0.0,0.0,0.0,0.0,0.0,0.0,0.0,0.0,0.0,0.0,0.0,0.0,0.0,0.0,0.0,0.0,0.0,0.0,0.0,0.0,0.0,0.0,0.0,0.0,0.0,0.0,0.0,0.0,0.0,0.0,0.0,0.0,0.0,0.0,0.0,0.0,0.0,0.0,0.0,0.0,0.0,0.0,0.0,0.0,0.0,0.0,0.0,0.0,0.0,0.0,0.0,0.0,0.0,0.0,0.0,0.0,0.0,0.0,0.0,0.0,0.0,0.0,0.0,0.0,0.0,0.0,0.0,0.0,0.0,0.0,0.0,0.0,0.0,0.0,0.0,0.0,0.0,0.0,0.0,0.0,0.0,0.0,0.0,0.0,0.0,0.0,0.0,0.0,0.0,0.0,0.0,0.0,0.0,0.0,0.0,0.0,0.0,0.0,0.0,-1.6249,-1.4555,-1.3856,-1.3615,-1.355,-1.387,-1.4808,-1.6108,-1.783,-1.9823,0.0,0.0,0.0,0.0,0.0,0.0,0.0,0.0,0.0,0.0,0.0,0.0,0.0,0.0,0.0,0.0,0.0,0.0,0.0,0.0,0.0,0.0,0.0,0.0,0.0,0.0,0.0,0.0,0.0,0.0,0.0,0.0,0.0,0.0,0.0,0.0,0.0,0.0,0.0,0.0,0.0,0.0,0.0,0.0,0.0,0.0,0.0,0.0,0.0,0.0,0.0,0.0,0.0,0.0,0.0,0.0,0.0,0.0,0.0,0.0,0.0,0.0,0.0,0.0,0.0,0.0,0.0,0.0,0.0,0.0,0.0,0.0,0.0,0.0,0.0,0.0,0.0,0.0,0.0,0.0,0.0,0.0,0.0,0.0,0.0,0.0,0.0,0.0,0.0,0.0,0.0,0.0,0.0,0.0,0.0,0.0,0.0,0.0,0.0,0.0,0.0,0.0,-1.611,-1.4712,-1.373,-1.4198,-1.4615,-1.4895,-1.5671,-1.7104,-1.9201,0.0,0.0,0.0,0.0,0.0,0.0,0.0,0.0,0.0,0.0,0.0,0.0,0.0,0.0,0.0,0.0,0.0,0.0,0.0,0.0,0.0,0.0,0.0,0.0,0.0,0.0,0.0,0.0,0.0,0.0,0.0,0.0,0.0,0.0,0.0,0.0,0.0,0.0,0.0,0.0,0.0,0.0,0.0,0.0,0.0,0.0,0.0,0.0,0.0,0.0,0.0,0.0,0.0,0.0,0.0,0.0,0.0,0.0,0.0,0.0,0.0,0.0,0.0,0.0,0.0,0.0,0.0,0.0,0.0,0.0,0.0,0.0,0.0,0.0,0.0,0.0,0.0,0.0,0.0,0.0,0.0,0.0,0.0,0.0,0.0,0.0,0.0,0.0,0.0,0.0,0.0,0.0,0.0,0.0,0.0,0.0,0.0,0.0,0.0,0.0,0.0,0.0,-1.7562,-1.6334,-1.5195,-1.4312,-1.4935,-1.5413,-1.5673,-1.6243,-1.7562,-1.9889,0.0,0.0,0.0,0.0,0.0,0.0,0.0,0.0,0.0,0.0,0.0,0.0,0.0,0.0,0.0,0.0,0.0,0.0,0.0,0.0,0.0,0.0,0.0,0.0,0.0,0.0,0.0,0.0,0.0,0.0,0.0,0.0,0.0,0.0,0.0,0.0,0.0,0.0,0.0,0.0,0.0,0.0,0.0,0.0,0.0,0.0,0.0,0.0,0.0,0.0,0.0,0.0,0.0,0.0,0.0,0.0,0.0,0.0,0.0,0.0,0.0,0.0,0.0,0.0,0.0,0.0,0.0,0.0,0.0,0.0,0.0,0.0,0.0,0.0,0.0,0.0,0.0,0.0,0.0,0.0,0.0,0.0,0.0,0.0,0.0,0.0,0.0,0.0,0.0,0.0,0.0,0.0,0.0,0.0,0.0,0.0,0.0,0.0,0.0,0.0,0.0,0.0,-1.8458,-1.7203,-1.627,-1.6039,-1.5882,-1.5815,-1.6035,-1.6336,-1.745,0.0,0.0,0.0,0.0,0.0,0.0,0.0,0.0,0.0,0.0,0.0,0.0,0.0,0.0,0.0,0.0,0.0,0.0,0.0,0.0,0.0,0.0,0.0,0.0,0.0,0.0,0.0,0.0,0.0,0.0,0.0,0.0,0.0,0.0,0.0,0.0,0.0,0.0,0.0,0.0,0.0,0.0,0.0,0.0,0.0,0.0,0.0,0.0,0.0,0.0,0.0,0.0,0.0,0.0,0.0,0.0,0.0,0.0,0.0,0.0,0.0,0.0,0.0,0.0,0.0,0.0,0.0,0.0,0.0,0.0,0.0,0.0,0.0,0.0,0.0,0.0,0.0,0.0,0.0,0.0,0.0,0.0,0.0,0.0,0.0,0.0,0.0,0.0,0.0,0.0,0.0,0.0,0.0,0.0,0.0,0.0,0.0,0.0,0.0,0.0,0.0,0.0,0.0,-1.8975,-1.843,-1.7781,-1.709,-1.772,-1.8221,-1.8145,-1.8317,-1.9187,-2.0957,0.0,0.0,0.0,0.0,0.0,0.0,0.0,0.0,0.0,0.0,0.0,0.0,0.0,0.0,0.0,0.0,0.0,0.0,0.0,0.0,0.0,0.0,0.0,0.0,0.0,0.0,0.0,0.0,0.0,0.0,0.0,0.0,0.0,0.0,0.0,0.0,0.0,0.0,0.0,0.0,0.0,0.0,0.0,0.0,0.0,0.0,0.0,0.0,0.0,0.0,0.0,0.0,0.0,0.0,0.0,0.0,0.0,0.0,0.0,0.0,0.0,0.0,0.0,0.0,0.0,0.0,0.0,0.0,0.0,0.0,0.0,0.0,0.0,0.0,0.0,0.0,0.0,0.0,0.0,0.0,0.0,0.0,0.0,0.0,0.0,0.0,0.0,0.0,0.0,0.0,0.0,0.0,0.0,0.0,0.0,0.0,0.0,0.0,0.0,0.0,0.0,0.0,-1.9381,-1.908,-1.8594,-1.7759,-1.8564,-1.9145,-1.9189,-1.9157,-1.9841,-2.151,0.0,0.0,0.0,0.0,0.0,0.0,0.0,0.0,0.0,0.0,0.0,0.0,0.0,0.0,0.0,0.0,0.0,0.0,0.0,0.0,0.0,0.0,0.0,0.0,0.0,0.0,0.0,0.0,0.0,0.0,0.0,0.0,0.0,0.0,0.0,0.0,0.0,0.0,0.0,0.0,0.0,0.0,0.0,0.0,0.0,0.0,0.0,0.0,0.0,0.0,0.0,0.0,0.0,0.0,0.0,0.0,0.0,0.0,0.0,0.0,0.0,0.0,0.0,0.0,0.0,0.0,0.0,0.0,0.0,0.0,0.0,0.0,0.0,0.0,0.0,0.0,0.0,0.0,0.0,0.0,0.0,0.0,0.0,0.0,0.0,0.0,0.0,0.0,0.0,0.0,0.0,0.0,0.0,0.0,0.0,0.0,0.0,0.0,0.0,0.0,0.0,0.0,-1.9879,-1.9506,-1.9081,-1.8434,-1.8876,-1.9356,-1.9743,-1.9528,-2.0091,-2.1657,0.0,0.0,0.0,0.0,0.0,0.0,0.0,0.0,0.0,0.0,0.0,0.0,0.0,0.0,0.0,0.0,0.0,0.0,0.0,0.0,0.0,0.0,0.0,0.0,0.0,0.0,0.0,0.0,0.0,0.0,0.0,0.0,0.0,0.0,0.0,0.0,0.0,0.0,0.0,0.0,0.0,0.0,0.0,0.0,0.0,0.0,0.0,0.0,0.0,0.0,0.0,0.0,0.0,0.0,0.0,0.0,0.0,0.0,0.0,0.0,-1.2955,-1.3354,0.0,0.0,0.0,0.0,0.0,0.0,0.0,0.0,0.0,0.0,0.0,0.0,0.0,0.0,0.0,0.0,0.0,0.0,0.0,0.0,0.0,0.0,0.0,0.0,0.0,0.0,0.0,0.0,0.0,0.0,0.0,0.0,0.0,0.0,0.0,0.0,0.0,0.0,0.0,0.0,-2.2088,-2.1436,-2.095,-2.0579,-2.1231,-2.1723,-2.1896,-2.1736,-2.1963,-2.2737,-2.3656,0.0,0.0,0.0,0.0,0.0,0.0,0.0,0.0,0.0,0.0,0.0,0.0,0.0,0.0,0.0,0.0,0.0,0.0,0.0,0.0,0.0,0.0,0.0,0.0,0.0,0.0,0.0,0.0,0.0,0.0,0.0,0.0,0.0,0.0,0.0,0.0,0.0,0.0,0.0,0.0,0.0,0.0,0.0,0.0,0.0,0.0,0.0,0.0,0.0,0.0,0.0,0.0,0.0,0.0,0.0,0.0,0.0,0.0,0.0,-1.2719,-1.3265,0.0,0.0,0.0,0.0,0.0,0.0,0.0,0.0,0.0,0.0,0.0,0.0,0.0,0.0,0.0,0.0,0.0,0.0,0.0,0.0,0.0,0.0,0.0,0.0,0.0,0.0,0.0,0.0,0.0,0.0,0.0,0.0,0.0,0.0,0.0,0.0,0.0,0.0,0.0,0.0,-2.3014,-2.2528,-2.2064,-2.1558,-2.2225,-2.2714,-2.2836,-2.2799,-2.2915,-2.3408,-2.4235,0.0,0.0,0.0,0.0,0.0,0.0,0.0,0.0,0.0,0.0,0.0,0.0,0.0,0.0,0.0,0.0,0.0,0.0,0.0,0.0,0.0,0.0,0.0,0.0,0.0,0.0,0.0,0.0,0.0,0.0,0.0,0.0,0.0,0.0,0.0,0.0,0.0,0.0,0.0,0.0,0.0,0.0,0.0,0.0,0.0,0.0,0.0,0.0,0.0,0.0,0.0,0.0,0.0,-1.0283,-1.0822,-1.147,-1.2296,-1.3255,-1.4283,-1.3678,-1.4143,-1.5505,-1.6608,0.0,0.0,0.0,0.0,0.0,0.0,0.0,0.0,0.0,0.0,0.0,0.0,0.0,0.0,0.0,0.0,0.0,0.0,0.0,0.0,0.0,0.0,-1.7742,-1.8647,-1.9007,-1.9458,-2.0335,0.0,0.0,0.0,0.0,0.0,0.0,0.0,0.0,0.0,0.0,0.0,-2.3519,-2.3239,-2.284,-2.225,-2.2708,-2.309,-2.3305,-2.3341,-2.354,-2.3932,-2.4766,-2.5443,0.0,0.0,0.0,0.0,0.0,0.0,0.0,0.0,0.0,0.0,0.0,0.0,0.0,0.0,0.0,0.0,0.0,0.0,0.0,0.0,0.0,0.0,0.0,0.0,0.0,0.0,0.0,0.0,0.0,0.0,0.0,0.0,1.417,0.683,0.0,0.0,0.0,0.0,0.0,0.0,0.0,0.0,0.0,0.0,0.0,0.0,0.0,-0.8635,-0.946,-0.9891,-1.0285,-1.0507,-1.114,-1.1848,-1.2726,-1.306,-1.4093,-1.5747,-1.5984,0.0,-1.6696,-1.7226,0.0,0.0,0.0,0.0,0.0,0.0,0.0,0.0,0.0,0.0,0.0,0.0,0.0,0.0,0.0,0.0,0.0,0.0,0.0,0.0,0.0,0.0,-1.9155,-1.9368,-2.0504,-2.1753,-2.2459,-2.1864,-2.1417,-2.2267,-2.2962,-2.3851,0.0,0.0,0.0,0.0,0.0,0.0,-2.435,-2.3804,-2.3454,-2.3229,-2.3412,-2.3675,-2.4118,-2.4168,-2.4246,-2.4408,-2.5185,-2.5885,-2.6445,-2.702,0.0,0.0,0.0,0.0,0.0,0.0,0.0,0.0,0.0,0.0,0.0,0.0,0.0,0.0,0.0,0.0,0.0,0.0,0.0,0.0,0.0,0.0,0.0,0.0,0.0,0.0,0.0,0.0,0.0,1.7829,1.3713,0.7504,0.2359,-0.2202,0.0,0.0,0.0,0.0,0.0,0.0,0.0,0.0,0.0,-0.7984,-0.8538,-0.9335,-1.0187,-1.0185,-1.0441,-1.0977,-1.157,-1.2375,-1.342,-1.4237,-1.5358,-1.6563,-1.7223,-1.779,-1.8387,-1.8458,-1.8627,-1.8993,0.0,0.0,0.0,0.0,-2.2304,-2.2255,-2.2144,-2.1709,-2.1143,-2.1345,0.0,0.0,0.0,0.0,0.0,0.0,0.0,-1.9321,-1.8732,-1.9393,-2.0298,-2.0914,-2.1402,-2.1953,-2.2924,-2.2766,-2.2641,-2.3299,-2.4009,-2.4728,-2.5463,-2.5364,0.0,0.0,0.0,-2.5238,-2.5078,-2.4563,-2.4015,-2.3569,-2.3509,-2.372,-2.4266,-2.4583,-2.4914,-2.535,-2.6064,-2.6593,-2.6846,-2.7338,-2.7984,0.0,0.0,0.0,0.0,0.0,0.0,0.0,0.0,0.0,0.0,0.0,0.0,0.0,0.0,0.0,0.0,0.0,0.0,0.0,0.0,0.0,0.0,0.0,0.0,0.0,0.0,0.0,0.0,1.5591,1.2389,0.7519,0.2825,-0.0875,0.0,0.0,0.0,0.0,0.0,0.0,-0.5124,-0.7033,-0.8147,-0.8381,-0.9013,-0.9854,-1.0768,-1.0584,-1.081,-1.1402,-1.2023,-1.2851,-1.3992,-1.5183,-1.6173,-1.6963,-1.7782,-1.8425,-1.9033,-1.8914,-1.9233,-1.9861,-2.0622,-2.134,-2.1994,-2.2403,-2.2446,-2.2385,-2.272,-2.2341,-2.1783,-2.2082,-2.1978,-2.1596,-2.0558,0.0,0.0,0.0,0.0,-2.008,-1.9862,-2.0238,-2.0873,-2.1725,-2.1809,-2.1953,-2.2804,-2.3344,-2.382,-2.4196,-2.4867,-2.5456,-2.5619,-2.536,0.0,-2.6754,-2.5835,-2.5061,-2.519,-2.4678,-2.4125,-2.3573,-2.3398,-2.359,-2.4073,-2.4852,-2.5512,-2.6064,-2.6828,-2.7276,-2.7378,-2.771,-2.808,-2.8297,0.0,0.0,0.0,0.0,0.0,0.0,0.0,0.0,0.0,0.0,0.0,0.0,0.0,0.0,0.0,0.0,0.0,0.0,0.0,0.0,0.0,0.0,0.0,0.0,0.0,0.0,0.0,0.0,0.0,0.7632,0.3329,0.0,0.0,0.0,0.0,-0.4283,-0.5607,-0.6057,-0.5024,-0.6949,-0.8368,-0.8992,-0.9561,-1.0352,-1.1261,-1.1249,-1.149,-1.1902,-1.2705,-1.3574,-1.4654,-1.5543,-1.6187,-1.6713,-1.767,-1.7969,-1.776,-1.7883,-1.8825,-2.0389,-2.0897,-2.1224,-2.155,-2.2655,-2.278,-2.2451,-2.3093,-2.2608,-2.1883,-2.2609,-2.2304,-2.1485,-2.0782,-2.1015,0.0,0.0,-2.057,-2.0459,-1.9952,-2.0238,-2.0718,-2.0756,-2.1568,-2.2363,-2.243,-2.3472,-2.4461,-2.4482,-2.4985,-2.5446,-2.5689,0.0,-2.5502,-2.5123,-2.5039,-2.4761,-2.4136,-2.3641,-2.3263,-2.3206,-2.3272,-2.3437,-2.3695,-2.4932,-2.5799,-2.6094,-2.7166,-2.786,-2.8027,-2.8284,-2.8801,-2.9663,-2.9496,0.0,0.0,0.0,0.0,0.0,0.0,0.0,0.0,0.0,0.0,0.0,0.0,0.0,0.0,0.0,0.0,0.0,0.0,0.0,0.0,0.0,0.0,0.0,0.0,0.0,0.0,0.0,0.0,0.5857,0.3129,0.0,-0.0813,-0.1586,-0.2447,-0.3539,-0.4985,-0.5756,-0.5654,-0.7659,-0.8982,-0.9209,-0.9807,-1.0473,-1.1044,-1.1414,-1.1783,-1.2164,-1.2982,-1.3866,-1.4828,-1.5276,-1.6145,-1.7157,-1.7436,-1.8036,-1.8771,-1.8187,-1.878,-2.0113,-2.075,-2.1306,-2.1929,-2.2427,-2.2714,-2.2898,-2.3364,-2.3068,-2.2442,-2.2523,-2.1821,-2.1006,-2.1188,-2.0957,-2.0573,-2.0709,-2.0472,-2.0259,-2.0368,-2.0567,-2.0806,-2.1104,-2.1551,-2.1905,-2.2193,-2.2525,-2.2995,-2.3686,-2.4432,-2.484,-2.4626,-2.4234,-2.4325,-2.5331,-2.4558,-2.3897,-2.4055,-2.3864,-2.3607,-2.3286,-2.3381,-2.371,-2.4291,-2.4794,-2.5503,-2.6449,-2.7152,-2.7743,-2.8253,-2.8348,-2.8568,-2.8912,-2.8814,-2.9005,0.0,0.0,0.0,0.0,0.0,0.0,0.0,0.0,0.0,0.0,0.0,0.0,0.0,0.0,0.0,0.0,0.0,0.0,0.0,0.0,0.0,0.0,0.0,0.0,0.0,0.8394,0.6868,0.4503,0.2766,0.1245,-0.0156,-0.0889,-0.198,-0.3496,-0.4916,-0.5739,-0.5951,-0.8033,-0.919,-0.9115,-0.9771,-1.0473,-1.1159,-1.1409,-1.1853,-1.2573,-1.3256,-1.398,-1.4747,-1.536,-1.6107,-1.7042,-1.7268,-1.7926,-1.8709,-1.8245,-1.8589,-1.9561,-2.0637,-2.1373,-2.1942,-2.2441,-2.2714,-2.2884,-2.3089,-2.2797,-2.2342,-2.1897,-2.1112,-2.0459,-2.0881,-2.056,-2.008,-2.0359,-2.022,-2.0015,-2.0341,-2.0376,-2.0464,-2.0828,-2.0885,-2.1002,-2.13,-2.1456,-2.1672,-2.2255,-2.3298,-2.4003,-2.3783,-2.3381,-2.3539,-2.4995,-2.3944,-2.3265,-2.4258,-2.3823,-2.3375,-2.3275,-2.3382,-2.3688,-2.4203,-2.4911,-2.5591,-2.6182,-2.6979,-2.7596,-2.8042,-2.7857,-2.7934,-2.8396,-2.8411,-2.8493,-2.8605,0.0,0.0,0.0,0.0,0.0,0.0,0.0,0.0,0.0,0.0,0.0,0.0,0.0,0.0,0.0,0.0,0.0,0.0,0.0,0.0,0.0,0.0,0.0,0.6787,0.5492,0.4442,0.3634,0.2255,0.0854,-0.0653,-0.1607,-0.2779,-0.4175,-0.5456,-0.6163,-0.5954,-0.7918,-0.8916,-0.8708,-0.9539,-1.0519,-1.1706,-1.1348,-1.183,-1.316,-1.351,-1.3942,-1.4393,-1.5679,-1.6158,-1.6076,-1.7269,-1.766,-1.7446,-1.7897,-1.8278,-1.8822,-2.0562,-2.1316,-2.1485,-2.2586,-2.2696,-2.2267,-2.1974,-2.1749,-2.1406,-2.078,-2.0308,-1.999,-1.9862,-1.9862,-1.999,-1.9862,-1.9798,-1.9798,-1.9798,-1.9798,-1.9773,-1.9773,-1.9696,-1.9697,-1.9788,-2.0294,-2.0636,-2.028,-2.1704,-2.3035,-2.3114,-2.3158,-2.3348,-2.4001,-2.3124,0.0,-2.4626,-2.3372,-2.2592,-2.3152,-2.3252,-2.3304,-2.3466,-2.5256,-2.6072,-2.5395,-2.6595,-2.7349,-2.7396,-2.6765,-2.7042,-2.8381,-2.8411,-2.8411,-2.8411,0.0,0.0,0.0,0.0,0.0,0.0,0.0,0.0,0.0,0.0,0.0,0.0,0.0,0.0,0.0,0.0,0.0,0.0,0.0,0.0,0.0,0.5703,0.5259,0.5224,0.4639,0.3931,0.3134,0.2267,0.1061,-0.0611,-0.141,-0.2751,-0.4884,-0.5598,-0.6319,-0.7109,-0.8194,-0.8918,-0.9094,-1.0363,-1.1186,-1.1706,-1.2564,-1.3391,-1.3947,-1.422,-1.4683,-1.5337,-1.5537,-1.6087,-1.6889,-1.7229,-1.7679,-1.8104,-1.7855,-1.8231,-1.9146,-2.0091,-2.0552,-2.0716,-2.1138,-2.0841,-2.0152,-1.9694,-1.9856,-2.0218,-1.9632,-1.9649,-1.9862,-1.9798,-1.9811,-1.9862,-1.9798,-1.9798,-1.9798,-1.9798,-1.9522,-1.9333,-1.9654,-1.9147,-1.8836,-1.9588,-1.939,-1.9316,-2.0096,-2.0417,-2.0877,-2.181,-2.1931,-2.2237,-2.3229,-2.2773,-2.2603,-2.3448,-2.3441,-2.3517,-2.3897,-2.4268,-2.4805,-2.5528,-2.5599,-2.5749,-2.6072,-2.5964,-2.6349,-2.7349,-2.7211,-2.7519,-2.8381,-2.8411,-2.8411,0.0,0.0,0.0,0.0,0.0,0.0,0.0,0.0,0.0,0.0,0.0,0.0,0.0,0.0,0.0,0.0,0.0,0.0,0.0,0.0,0.0,0.0,0.3945,0.3906,0.3974,0.372,0.3257,0.2467,0.1781,0.0717,-0.0717,-0.1969,-0.3298,-0.4863,-0.5811,-0.6664,-0.7415,-0.8256,-0.9008,-0.962,-1.0812,-1.1774,-1.2505,-1.3353,-1.4219,-1.5074,-1.5006,-1.5299,-1.594,-1.609,-1.6528,-1.7202,-1.749,-1.7784,-1.8042,-1.8119,-1.8277,-1.8574,0.0,0.0,0.0,0.0,-1.9541,-1.9035,-1.8727,-1.896,-1.9387,-1.9119,-1.9384,-1.9798,-1.9798,-1.9648,-1.9472,-1.9472,-1.9309,-1.9133,-1.9133,-1.8907,-1.8778,-1.9219,-1.8699,-1.8364,-1.9221,-1.9048,-1.9034,-2.008,-2.034,0.0,-2.1605,-2.1542,-2.1868,-2.3214,-2.274,-2.2582,-2.3554,-2.3522,-2.3593,-2.3985,-2.431,-2.4726,-2.5356,-2.5323,0.0,0.0,0.0,-2.6118,-2.6919,-2.7519,0.0,0.0,0.0,-2.8411,-2.8411,-2.9089,0.0,0.0,-3.1343,-3.1931,0.0,0.0,0.0,0.0,0.0,0.0,0.0,0.0,0.0,0.0,0.0,0.0,0.0,0.0,0.0,0.0,0.3671,0.3594,0.2865,0.2784,0.2513,0.1885,0.1166,0.0179,-0.1165,-0.2858,-0.407,-0.4601,-0.6089,-0.7097,-0.7509,-0.8344,0.0,0.0,0.0,-1.2285,-1.3673,-1.3917,-1.474,-1.6102,-1.5823,-1.5939,-1.6441,-1.7008,-1.7312,-1.7324,-1.7854,-1.794,-1.7717,-1.8372,-1.8171,-1.7463,-1.7922,-1.8576,-1.923,-1.891,-1.8584,-1.8316,-1.8316,0.0,0.0,-1.8844,-1.9233,-1.9698,-1.9648,-1.9346,-1.902,-1.8908,-1.8581,-1.8204,-1.8204,-1.8154,-1.8197,-1.8636,-1.8286,-1.8026,-1.8779,-1.9073,-1.9466,-2.0193,-2.0941,-2.1623,-2.1997,-2.1669,-2.1938,-2.3551,-2.2812,-2.2672,-2.4283,-2.3614,-2.3231,-2.3844,-2.3902,0.0,-2.421,-2.4826,-2.4973,-2.4361,-2.5628,-2.6364,-2.6334,-2.7673,-2.8119,-2.7519,-2.8104,-2.8411,-2.8411,-2.8935,-2.9535,-3.0212,-3.0869,-3.1509,0.0,0.0,0.0,0.0,0.0,0.0,0.0,0.0,0.0,0.0,0.0,0.0,0.0,0.0,0.0,0.2883,0.3026,0.2858,0.2153,0.1974,0.1974,0.1794,0.1166,-0.009,-0.2056,-0.3171,-0.4521,-0.6313,-0.6668,-0.7308,-0.8625,-0.9115,-0.9825,-1.0663,-1.2352,-1.3382,-1.3673,-1.4963,-1.5838,-1.6289,-1.665,0.0,-1.7281,-1.7698,-1.7889,-1.7909,-1.803,-1.8081,-1.7997,-1.7643,-1.7027,-1.6435,-1.7897,-1.8399,-1.8216,-1.7872,-1.7269,-1.6685,-1.6685,-1.7135,-1.7702,-1.7702,-1.838,-1.9095,-1.8643,-1.8756,0.0,-1.8493,-1.8292,-1.8204,-1.8204,-1.7877,-1.7675,-1.8054,-1.754,-1.7239,-1.8305,-1.9003,-1.9647,-2.0332,-2.1305,-2.1988,-2.1944,-2.1577,-2.1699,-2.2931,-2.2482,-2.244,-2.3627,-2.3598,-2.3761,-2.452,-2.4595,-2.4895,-2.5546,-2.536,-2.5129,-2.4991,-2.5889,-2.638,-2.638,-2.7688,-2.835,-2.8211,-2.8334,-2.8411,-2.8411,-2.7996,-2.8134,-2.8842,-3.044,-3.1509,0.0,0.0,0.0,0.0,0.0,0.0,0.0,0.0,0.0,0.0,0.0,-0.0373,0.0768,0.0,0.189,0.1955,0.2021,0.1884,0.1525,0.1345,0.1076,0.0718,0.0359,-0.0627,-0.2505,-0.3719,-0.4877,-0.6298,-0.7069,-0.806,-0.9261,-0.9622,-1.0329,-1.1639,-1.3018,-1.3818,-1.4122,-1.5574,-1.6477,-1.6741,-1.7303,-1.7729,-1.8078,-1.8145,-1.8191,-1.8227,-1.8144,-1.7798,-1.7324,-1.6776,-1.6788,-1.7134,-1.734,-1.7205,-1.688,-1.6667,-1.6409,-1.61,-1.61,-1.6633,-1.7318,-1.7318,-1.7894,-1.8568,-1.8292,-1.8204,-1.8141,-1.7806,-1.753,-1.7363,-1.7318,-1.7375,-1.751,-1.7886,-1.7753,-1.7843,-1.8943,-1.9314,-1.9826,-2.1013,-2.1648,-2.2074,-2.2276,-2.2132,-2.2192,-2.2744,-2.2817,-2.3007,-2.3522,-2.3595,-2.3773,-2.4146,-2.3934,-2.4111,-2.482,-2.4767,-2.4866,-2.5231,-2.5613,-2.6164,-2.6857,-2.7534,-2.8057,-2.8396,-2.8411,-2.8411,-2.8411,-2.7734,-2.775,-2.8411,-2.9039,-2.9613,0.0,0.0,0.0,0.0,0.0,0.0,0.0,-0.2517,-0.3246,-0.1471,-0.1185,-0.0804,0.0575,0.1171,0.1448,0.1394,0.1242,0.1075,0.0981,0.0713,0.0267,-0.062,-0.0711,-0.1336,-0.2938,-0.432,-0.544,-0.6077,-0.756,-0.8747,-0.9549,-1.0007,-1.0942,-1.2532,-1.3535,-1.4258,-1.4776,-1.6184,-1.7058,-1.7395,-1.8041,-1.8459,-1.8635,-1.8515,-1.8425,-1.836,-1.81,-1.7473,-1.6688,-1.6155,-1.6654,-1.7652,-1.6516,-1.5982,-1.5792,-1.5792,-1.5869,-1.5988,-1.5988,-1.6458,-1.7053,-1.7008,-1.7485,-1.7969,-1.7869,-1.7593,-1.726,-1.709,-1.6773,-1.6504,-1.6573,-1.6904,-1.7352,-1.7913,-1.8222,-1.8689,-1.9649,-1.9795,-2.0138,-2.157,-2.1945,-2.2087,-2.2297,-2.2544,-2.2679,-2.2544,-2.3011,-2.337,-2.3251,-2.334,-2.337,-2.3236,-2.284,-2.2832,-2.3402,-2.3644,-2.4101,-2.4844,-2.5041,-2.5687,-2.6934,-2.7134,-2.7519,-2.8196,-2.8088,-2.8088,-2.8211,-2.7396,-2.7272,-2.7748,-2.7072,-2.7271,-2.1573,-1.649,-1.0726,-0.718,-0.4496,-0.2795,0.0,-0.2763,-0.2662,-0.2639,-0.1112,0.0257,0.0172,0.121,0.2093,0.1781,0.1523,0.1158,0.0524,0.0261,-0.0432,-0.1948,-0.172,-0.2087,-0.3828,-0.4949,-0.5959,-0.69,-0.8038,-0.8923,-0.9599,-1.083,-1.1813,-1.2599,-1.4186,-1.5125,-1.5401,-1.7019,-1.7978,-1.819,-1.8992,-1.921,-1.8786,-1.8696,-1.8559,-1.8349,-1.7725,-1.7357,-1.7046,-1.6251,-1.6056,-1.6211,-1.5733,-1.5662,-1.5792,-1.5792,-1.5869,-1.5988,-1.5988,-1.6212,-1.6492,-1.6374,-1.6777,-1.7215,-1.6608,-1.6712,-1.6946,-1.6585,-1.6442,-1.656,-1.7162,-1.6961,-1.6873,-1.7924,-1.8345,-1.8665,-1.9231,-2.0173,-2.0976,-2.1172,-2.196,-2.2252,-2.1141,-2.1904,-2.2488,-2.1889,-2.2368,-2.2577,-2.1979,-2.2413,-2.2562,-2.1979,-2.1844,-2.1949,-2.2167,-2.2221,-2.2613,-2.3486,-2.4087,-2.4764,-2.5518,-2.6164,-2.6826,-2.7503,-2.6919,-2.6903,-2.7503,-2.6195,-2.5551,-2.554,-2.4722,-2.5772,-1.9033,-1.4615,-1.0248,-0.7587,-0.5428,-0.3772,-0.2916,-0.2602,-0.2375,-0.2064,-0.1649,-0.0958,0.0088,0.0443,0.0621,0.0896,0.0718,0.0268,-0.0708,-0.1137,-0.1986,-0.3583,-0.4322,-0.4987,-0.5583,-0.6153,-0.7112,-0.8537,-0.9266,-1.0031,-1.0818,-1.1476,-1.2247,-1.3127,-1.4482,-1.5267,-1.5338,-1.7088,-1.8008,-1.8144,-1.8942,-1.9023,-1.8542,-1.8486,-1.8071,-1.7532,-1.7087,-1.6919,-1.6776,-1.5821,-1.5718,-1.6075,-1.5676,-1.5603,-1.5792,-1.5792,-1.5836,-1.5869,-1.5869,-1.6001,-1.6175,-1.6088,-1.6335,-1.6571,-1.6262,-1.636,-1.6527,-1.6584,-1.6479,-1.6498,-1.6997,-1.7093,-1.7301,-1.8408,-1.9022,-1.9597,-2.0381,-2.0684,-2.0905,-2.1263,-2.1351,-2.1233,-2.0774,-2.1102,-2.1237,-2.0617,-2.1425,-2.2143,-2.2248,-2.2173,-2.1884,-2.1248,-2.1534,-2.1672,-2.1447,-2.1766,-2.2306,-2.3071,-2.3402,-2.4044,-2.5201,-2.5538,-2.6058,-2.6765,-2.6488,-2.6503,-2.6811,-2.5782,-2.5218,-2.516,-2.4387,-2.4633,-1.6655,-1.2944,-0.9612,-0.7277,-0.53,-0.3847,-0.3028,-0.2638,-0.2273,-0.196,-0.2076,-0.1834,-0.0532,-0.0536,-0.0719,-0.0361,-0.036,-0.0717,-0.1969,-0.2186,-0.2915,-0.5037,-0.6271,-0.7341,-0.835,-0.8081,-0.8573,-1.0094,-1.042,-1.0878,-1.1577,-1.2185,-1.2804,-1.3426,-1.4911,-1.5613,-1.5401,-1.7157,-1.8144,-1.8212,-1.8609,-1.8702,-1.8361,-1.8173,-1.7741,-1.7118,-1.6894,-1.675,-1.6505,-1.5682,-1.5603,-1.5951,-1.5576,-1.5614,-1.5792,-1.5792,-1.5792,-1.5792,-1.5792,-1.5869,-1.5988,-1.5957,-1.6057,-1.6144,-1.61,-1.61,-1.6144,-1.6466,-1.6479,-1.6442,-1.6908,-1.718,-1.7626,-1.8682,-1.9448,-2.013,-2.0934,-2.0826,-2.0686,-2.1119,-2.0789,-2.0365,-2.0355,-2.0444,-2.0385,-1.9982,-2.0632,-2.1306,-2.1824,-2.144,-2.0985,-2.0527,-2.0941,-2.1069,-2.0691,-2.1122,-2.1697,-2.2388,-2.2434,-2.3006,-2.4261,-2.4307,-2.4655,-2.54,-2.54,-2.5507,-2.5722,-2.5144,-2.4841,-2.4783,-2.421,-2.4031,0.0,-1.173,-0.9029,-0.7224,-0.5203,-0.364,-0.3727,-0.2932,-0.235,-0.3109,-0.231,-0.1563,-0.191,-0.1503,-0.1354,-0.2116,-0.1544,-0.1523,-0.2772,-0.2328,-0.2929,-0.5832,-0.669,-0.8484,-1.2134,-1.0925,-1.0312,-1.1201,-1.1169,-1.1204,-1.1409,-1.3025,-1.3695,-1.3193,-1.5596,-1.6576,-1.6,-1.7491,-1.8472,-1.8741,-1.8359,-1.8209,-1.8415,-1.8066,-1.7829,-1.7655,-1.747,-1.7071,-1.6539,-1.6084,-1.573,-1.5492,-1.5357,-1.5525,-1.5792,-1.5715,-1.576,-1.5792,-1.5792,-1.5869,-1.6001,-1.5836,-1.5913,-1.6001,-1.5836,-1.5792,-1.5881,-1.6144,-1.62,-1.6411,-1.7167,-1.7298,-1.747,-1.8546,-1.9228,-1.9764,-2.0331,-2.0402,-2.0415,-2.0454,-2.0439,-2.018,-1.956,-2.0019,-2.048,-2.0466,-2.0087,-1.975,-1.9779,-1.975,-1.9735,-1.9756,-1.9735,-1.9771,-1.9843,-1.9858,-2.0231,-2.1007,-2.1053,-2.1356,-2.2055,-2.2085,-2.2404,-2.3112,-2.3112,-2.3447,-2.4085,-2.407,-2.397,-2.3812,-2.3797,-2.4158,0.0,0.0,-0.826,-0.6261,-0.5084,-0.4238,-0.3909,-0.3525,-0.3301,-0.3598,-0.3505,-0.3177,-0.2727,-0.2953,-0.2919,-0.2251,-0.2381,-0.2771,-0.3489,-0.4264,-0.5532,-0.7644,-0.9261,-1.1364,-1.4359,-1.3068,-1.2355,-1.3381,-1.3196,-1.2893,-1.251,-1.285,-1.3324,-1.3912,-1.5251,-1.6158,-1.6576,-1.7706,-1.8265,-1.8172,-1.8019,-1.7896,-1.7785,-1.7942,-1.7542,-1.6737,-1.7208,-1.6704,-1.5636,-1.5831,-1.5695,-1.5345,-1.5312,-1.5435,-1.5614,-1.557,-1.5659,-1.576,-1.5792,-1.5836,-1.5881,-1.5792,-1.5836,-1.5881,-1.5792,-1.5792,-1.5881,-1.6275,-1.6318,-1.6411,-1.7277,-1.7342,-1.7549,-1.8861,-1.9322,-1.9608,-2.0093,-2.0193,-2.0206,-2.0255,-2.0231,-2.0304,-2.0627,-2.0519,-2.0338,-2.0005,-2.0176,-2.0198,-1.975,-1.969,-1.969,-1.969,-1.969,-1.9726,-1.9726,-1.9726,-2.0047,-2.0738,-2.0783,-2.1106,-2.1831,-2.1862,-2.2022,-2.2328,-2.2328,-2.2662,-2.333,-2.3232,-2.3402,-2.3797,-2.4176,-2.4462,0.0,-0.9233,-0.7564,-0.637,-0.5552,-0.4999,-0.4919,-0.445,-0.409,-0.435,-0.4449,-0.4325,-0.3704,-0.428,-0.4502,-0.3645,-0.3496,-0.3851,-0.4594,-0.5496,-0.6776,-0.8747,-1.0899,-1.3205,-1.5506,-1.5053,-1.4874,-1.5529,-1.466,-1.3885,-1.3424,-1.3128,-1.3251,-1.376,-1.5171,-1.6088,-1.6446,-1.7638,-1.8105,-1.7953,-1.7669,-1.7578,-1.7589,-1.7712,-1.7384,-1.677,-1.7402,-1.6887,-1.5659,-1.5831,-1.5648,-1.5312,-1.5267,-1.5345,-1.5537,-1.568,-1.5735,-1.5715,-1.576,-1.5792,-1.5792,-1.5792,-1.5792,-1.5756,-1.5576,-1.5504,-1.5591,-1.5978,-1.6106,-1.6313,-1.7175,-1.7516,-1.7882,-1.8833,-1.9185,-1.9384,-1.9701,-1.974,-1.9812,-2.0109,-2.0127,-2.0331,-2.1064,-2.0759,-2.0241,-1.9779,-2.0064,-2.0183,-1.975,-1.969,-1.969,-1.969,-1.969,-1.969,-1.969,-1.969,-1.9869,-2.0318,-2.0348,-2.0565,-2.1046,-2.1061,-2.1114,-2.119,-2.1635,-2.2088,-2.2526,-2.2896,-2.3411,-2.4071,-2.4433,-2.4836,-0.9246,-0.7583,-0.6786,-0.7246,-0.6454,-0.5844,-0.6619,-0.561,-0.4711,-0.5456,-0.5286,-0.4996,-0.4967,-0.5656,-0.6122,-0.6009,-0.5128,-0.4912,-0.6055,-0.5998,-0.6777,-0.8957,-1.1461,-1.3804,-1.5755,-1.6732,-1.7337,-1.7579,-1.5454,-1.4111,-1.4111,-1.3785,-1.3455,-1.2945,-1.5288,-1.628,-1.572,-1.7248,-1.7961,-1.8055,-1.7322,-1.7233,-1.7667,-1.7346,-1.739,-1.7633,-1.7929,-1.7443,-1.6474,-1.6038,-1.5591,-1.5186,-1.5107,-1.522,-1.5527,-1.5893,-1.5927,-1.5706,-1.5683,-1.576,-1.5792,-1.5768,-1.5756,-1.5648,-1.5133,-1.4965,-1.5049,-1.5335,-1.5693,-1.6213,-1.7042,-1.7868,-1.85,-1.8539,-1.8822,-1.9101,-1.9101,-1.913,-1.9348,-2.0016,-2.0175,-2.0364,-2.0901,-2.068,-2.0241,-1.9779,-1.969,-1.969,-1.969,-1.969,-1.969,-1.9735,-1.9705,-1.969,-1.9735,-1.9705,-1.969,-1.969,-1.969,-1.969,-1.969,-1.969,-1.969,-1.969,-2.0976,-2.1665,-2.1695,-2.2951,-2.3924,-2.4582,-2.4627,-2.536,-0.2885,-0.3316,-0.4117,-0.4971,-0.5476,-0.5777,-0.6006,-0.6162,-0.6374,-0.6832,-0.6748,-0.6714,-0.72,-0.8111,-0.8414,-0.7187,-0.7451,-0.7672,-0.7176,-0.7502,-0.833,-0.9752,-1.1336,-1.2987,-1.4862,-1.5045,-1.556,-1.6792,-1.5689,-1.4628,-1.4021,-1.3269,-1.3071,-1.3401,-1.4969,-1.5948,-1.6211,-1.6992,-1.7282,-1.7131,-1.7122,-1.7119,-1.7032,-1.7611,-1.7382,-1.6625,-1.7311,-1.6577,-1.4982,-1.5211,-1.4786,-1.4071,-1.4419,-1.4831,-1.521,-1.5303,-1.5649,-1.5997,-1.5655,-1.5659,-1.5732,-1.5336,-1.5205,-1.5109,-1.4622,-1.467,-1.5022,-1.5499,-1.6072,-1.673,-1.7638,-1.8173,-1.8592,-1.886,-1.9026,-1.9101,-1.9101,-1.9493,-2.003,-2.0654,-2.1162,-2.1451,-2.1281,-2.0774,-2.0241,-1.9779,-1.969,-1.969,-1.969,-1.969,-1.9884,-2.0393,-1.9989,-1.9884,-2.0408,-1.9989,-1.969,-1.969,-1.969,-1.969,-1.969,-1.969,-1.969,-1.969,-2.0528,-2.1201,-2.1695,-2.2517,-2.3505,-2.4597,-2.5136,-2.5809,0.1542,0.0499,-0.114,-0.3587,-0.4568,-0.5313,-0.6499,-0.7306,-0.7955,-0.8299,-0.8755,-0.9071,-0.9211,-1.0245,-1.0416,-0.8498,-0.8919,-0.9081,-0.7893,-0.8313,-0.9193,-1.0557,-1.1962,-1.3457,-1.4997,-1.4826,-1.4957,-1.5689,-1.5095,-1.4478,-1.4021,-1.3128,-1.2746,-1.3072,-1.4143,-1.5249,-1.6197,-1.6641,-1.6982,-1.7124,-1.6952,-1.6899,-1.7011,-1.7346,-1.7047,-1.6216,-1.6955,-1.6339,-1.4744,-1.5106,-1.4665,-1.3857,-1.4456,-1.4741,-1.4855,-1.5292,-1.5626,-1.5868,-1.5608,-1.5647,-1.5744,-1.5444,-1.5193,-1.4947,-1.4606,-1.4523,-1.4601,-1.5133,-1.5874,-1.676,-1.7567,-1.8289,-1.8822,-1.9064,-1.9101,-1.9101,-1.9101,-1.9406,-1.9841,-2.048,-2.1175,-2.1491,-2.0995,-2.0661,-2.0264,-1.9794,-1.969,-1.969,-1.969,-1.9944,-2.0288,-2.0677,-2.0363,-2.0168,-2.0258,-2.0183,-2.0139,-2.0139,-2.0408,-2.0572,-2.0572,-2.0288,-2.0273,-2.0557,-2.0946,-2.147,-2.2128,-2.2772,-2.3613,-2.4661,-2.5029,-2.5595,0.5958,0.4621,0.2458,-0.1814,-0.3418,-0.4621,-0.7053,-0.8404,-0.9232,-0.982,-1.0702,-1.1341,-1.1007,-1.1937,-1.2038,-0.9856,-0.9865,-0.9735,-0.8325,-0.8648,-0.9585,-1.1054,-1.27,-1.4137,-1.5238,-1.5025,-1.4579,-1.4171,-1.3814,-1.3693,-1.3804,-1.2959,-1.2535,-1.2643,-1.3454,-1.448,-1.5852,-1.625,-1.6757,-1.7244,-1.6607,-1.6581,-1.6978,-1.6797,-1.6496,-1.6116,-1.6807,-1.6286,-1.5017,-1.5152,-1.4717,-1.3947,-1.4676,-1.4753,-1.4591,-1.5475,-1.5684,-1.5563,-1.5537,-1.5647,-1.578,-1.5796,-1.5459,-1.5071,-1.4962,-1.4575,-1.43,-1.477,-1.5597,-1.655,-1.7194,-1.8161,-1.8985,-1.8985,-1.9043,-1.9101,-1.9101,-1.9174,-1.942,-2.0103,-2.0677,-2.0944,-2.0489,-2.0389,-2.0228,-1.9779,-1.969,-1.975,-1.9929,-2.0318,-2.0617,-2.0707,-2.0722,-2.0513,-1.9989,-2.0498,-2.0842,-2.0842,-2.138,-2.1665,-2.1575,-2.1021,-2.0932,-2.1425,-2.1605,-2.1924,-2.245,-2.3165,-2.3909,-2.4595,-2.4595,-2.5069,1.472,1.1167,0.7442,0.3335,-0.0655,-0.3951,-0.5491,-0.776,0.0,-1.0857,-1.1511,-1.1977,-1.2443,-1.2833,-1.2456,-1.0726,-1.03,-0.9956,-0.9216,-0.947,-1.0053,-1.0827,-1.2,-1.2815,-1.292,-1.2722,-1.2351,-1.1732,-1.1315,-1.143,-1.2224,-1.2009,-1.2442,-1.3747,-1.3983,-1.4412,-1.5104,-1.6033,-1.6128,-1.54,-1.5702,-1.5846,-1.5951,-1.6114,-1.615,-1.603,-1.644,-1.5785,-1.4421,-1.4468,-1.4026,-1.3401,-1.3979,-1.4506,-1.5005,-1.5177,-1.5591,-1.5998,-1.561,-1.5647,-1.5808,-1.5743,-1.5645,-1.5552,-1.5478,-1.5318,-1.5257,-1.5796,-1.6061,-1.6402,-1.699,-1.7741,-1.8361,-1.8361,-1.8738,-1.9101,-1.9101,-1.9599,-2.0206,-2.0878,-2.0739,-2.0519,-2.0493,-2.0057,-1.9745,-1.9705,-1.969,-2.0094,-2.1201,-2.0483,-2.0094,-2.0662,-2.0722,-2.0887,-2.1321,-2.1455,-2.153,-2.153,-2.1635,-2.1455,-2.0917,-2.0782,-2.0498,-2.0049,-2.1126,-2.1524,-2.1204,-2.2411,-2.3403,-2.4112,-2.4112,-2.4723,1.814,1.4798,1.152,0.5968,0.0901,-0.3651,-0.6921,0.0,0.0,-1.2525,-1.3091,-1.3529,-1.3945,-1.4461,-1.4002,-1.142,-1.1579,-1.1472,-0.9887,-0.9965,-1.0716,-1.1986,-1.2387,-1.2679,-1.2832,-1.2074,-1.1162,-1.0398,-0.9595,-0.951,-1.0481,-1.0901,-1.1603,-1.2785,-1.3252,-1.3706,-1.4075,-1.5055,-1.5329,-1.4893,-1.5137,-1.5254,-1.5313,-1.542,-1.5347,-1.5119,-1.5507,-1.5144,-1.4335,-1.4424,-1.4366,-1.4203,-1.4306,-1.4677,-1.5108,-1.5108,-1.5406,-1.5809,-1.5596,-1.5647,-1.5832,-1.6051,-1.5932,-1.5724,-1.5867,-1.5631,-1.5434,-1.5875,-1.6066,-1.6203,-1.6517,-1.7146,-1.7679,-1.7679,-1.8193,-1.8783,-1.9118,-1.9499,-1.9897,-2.0182,-2.0106,-1.9997,-2.005,-1.9804,-1.9654,-1.969,-1.9989,-2.0453,-2.1096,-2.0917,-2.0991,-2.1665,-2.1425,-2.135,-2.1665,-2.1695,-2.1844,-2.2188,-2.2517,-2.2547,-2.2233,-2.1904,-2.1739,-2.166,-2.2054,-2.2064,-2.1758,-2.2843,-2.3402,-2.3461,-2.3815,-2.434,2.0141,1.7539,1.4766,0.786,0.1928,-0.3447,-0.8207,-1.0787,-1.2555,-1.3821,-1.4576,-1.5015,-1.5195,-1.5652,-1.5109,0.0,-1.2466,-1.2357,-1.0632,-1.084,-1.1506,-1.2574,-1.2929,-1.302,-1.249,-1.1539,-1.0409,-0.912,-0.8083,-0.8025,-0.9171,-1.0021,-1.081,-1.1526,-1.2403,-1.2989,-1.3141,-1.4107,-1.4538,-1.4478,-1.4598,-1.4717,-1.4777,-1.4693,-1.4585,-1.4553,-1.4789,-1.4592,-1.4184,-1.4493,-1.4645,-1.4715,-1.4667,-1.4789,-1.5017,-1.5108,-1.5289,-1.5513,-1.5513,-1.5659,-1.5893,-1.6355,-1.6278,-1.6074,-1.6453,-1.6251,-1.5889,-1.6027,-1.6098,-1.6085,-1.5955,-1.6554,-1.7238,-1.7444,-1.7847,-1.8368,-1.9045,-1.925,-1.9325,-1.9413,-1.9538,-1.9611,-1.9611,-1.9669,-1.9735,-1.9833,-2.0206,-2.0609,-2.0989,-2.1535,-2.2118,-2.2775,-2.2133,-2.1715,-2.1849,-2.1864,-2.2148,-2.2847,-2.3325,-2.3535,-2.3357,-2.2936,-2.2748,-2.2848,-2.2636,-2.2381,-2.2024,-2.2875,-2.3063,-2.2591,-2.3219,-2.3548,2.2991,2.0495,1.7102,1.0048,0.2819,-0.3541,-0.6983,0.0,-1.2976,-1.4121,-1.5143,-1.584,-1.5875,-1.5155,0.0,0.0,0.0,-1.095,-1.1435,-1.2441,-1.2552,-1.0869,-1.3052,-1.3293,-0.9739,-0.9959,-0.9513,-0.7318,-0.6718,-0.7174,-0.8936,-0.9994,-1.0725,-1.13,-1.2092,-1.2546,-1.2572,-1.3685,-1.3873,-1.3148,-1.3639,-1.4007,-1.4364,-1.3961,-1.4403,-1.5364,-1.5034,-1.4469,-1.3809,-1.4194,-1.4002,-1.3614,-1.4208,-1.4558,-1.4789,-1.5176,-1.539,-1.5513,-1.5614,-1.5748,-1.5876,-1.6402,-1.681,-1.7162,-1.7666,-1.7737,-1.7577,-1.711,-1.6607,-1.605,-1.5514,-1.63,-1.7421,-1.8266,-1.8101,-1.7953,-1.8693,-1.8921,-1.9058,-1.9487,-1.9632,-1.969,-1.969,-1.969,-1.9863,-2.0362,-2.0005,-2.0302,-2.1946,-2.231,-2.2649,-2.3215,-2.2206,-2.1758,-2.2352,-2.2453,-2.2721,-2.3375,-2.3537,-2.3298,-2.2646,-2.2655,-2.2079,-2.0784,-2.157,-2.1465,-2.0429,-2.124,-2.1605,-2.1642,-2.1695,-2.2048,2.2004,1.9909,1.6613,1.078,0.3023,-0.4133,-0.8072,0.0,-1.3606,-1.5008,-1.5958,-1.6563,-1.6855,-1.6414,0.0,0.0,0.0,0.0,-1.2954,-1.3175,-1.2927,-1.1994,-1.2382,-1.195,-0.9922,-0.9106,-0.8076,-0.652,-0.6439,-0.6986,-0.8236,-0.8826,-0.9485,-1.0242,-1.1439,-1.2089,-1.2101,-1.3202,-1.3639,-1.3328,-1.3517,-1.377,-1.4143,-1.3781,-1.3939,-1.4622,-1.4221,-1.3916,-1.3672,-1.3588,-1.3966,-1.4635,-1.4211,-1.4664,-1.5572,-1.5291,-1.5334,-1.5513,-1.5558,-1.5659,-1.5828,-1.6032,-1.6479,-1.7028,-1.7818,-1.7851,-1.7593,-1.7641,-1.6958,-1.6155,-1.5908,-1.6274,-1.6953,-1.7854,-1.8136,-1.8375,-1.8777,-1.9109,-1.9362,-1.9574,-1.956,-1.9523,-1.9523,-1.9523,-1.9612,-1.9804,-1.999,-2.036,-2.1049,-2.1872,-2.2448,-2.2671,-2.2725,-2.2797,-2.2964,-2.2623,-2.2725,-2.3465,-2.3451,-2.3332,-2.3122,-2.2746,-2.2249,-2.1622,-2.1699,-2.1379,-2.055,-2.1408,-2.1685,-2.1368,-2.1811,-2.2335,1.8198,1.6837,1.4217,0.8687,0.1712,-0.4921,0.0,0.0,-1.4,-1.5445,-1.6475,-1.7284,-1.7884,-1.7899,-1.7646,0.0,0.0,-1.4625,-1.3968,-1.3341,-1.2542,-1.1496,-1.1277,-1.0674,-0.9234,-0.8019,-0.6927,-0.6104,-0.6356,-0.694,-0.7782,-0.8023,-0.8676,-0.9777,-1.1048,-1.176,-1.1984,-1.2908,-1.3346,-1.3346,-1.3481,-1.3628,-1.3776,-1.3737,-1.3822,-1.3941,-1.3621,-1.3414,-1.3268,-1.2977,-1.3553,-1.4578,-1.4011,-1.4575,-1.5608,-1.5279,-1.5289,-1.5513,-1.557,-1.5659,-1.584,-1.6152,-1.6478,-1.6935,-1.8048,-1.8058,-1.7712,-1.7999,-1.7325,-1.6579,-1.675,-1.663,-1.6737,-1.7718,-1.8079,-1.8324,-1.8801,-1.9147,-1.9435,-1.9574,-1.9501,-1.9413,-1.9413,-1.9413,-1.945,-1.9604,-1.9891,-2.0259,-2.0808,-2.1674,-2.2306,-2.2453,-2.3187,-2.3541,-2.326,-2.2642,-2.2597,-2.3334,-2.3319,-2.3319,-2.3378,-2.2799,-2.236,-2.2035,-2.1677,-2.121,-2.0573,-2.1295,-2.1455,-2.1069,-2.1616,-2.231,1.1354,1.1179,0.9769,0.3122,-0.1641,-0.5818,-1.0084,-1.2434,-1.4022,-1.5198,-1.6524,-1.7841,-1.8903,-1.9271,-1.9508,-1.991,-1.7524,0.0,-1.4253,-1.3079,-1.1224,-0.8286,-0.9709,-0.979,-0.6926,-0.6354,-0.6155,-0.594,-0.6337,-0.6945,-0.7723,-0.7966,-0.881,-1.0334,-1.0989,-1.1668,-1.2511,-1.284,-1.3001,-1.3001,-1.3414,-1.3439,-1.3109,-1.3858,-1.3998,-1.3617,-1.3551,-1.3083,-1.2419,-1.2396,-1.2485,-1.2637,-1.3457,-1.4035,-1.4488,-1.5074,-1.539,-1.5513,-1.5659,-1.576,-1.596,-1.7063,-1.7082,-1.7012,-1.8577,-1.8721,-1.8257,-1.8216,-1.7792,-1.7495,-1.8048,-1.744,-1.7008,-1.8281,-1.7883,-1.7515,-1.865,-1.8893,-1.9058,-1.9501,-1.9501,-1.9413,-1.9413,-1.9413,-1.9597,-2.0114,-1.9675,-1.9967,-2.1771,-2.2119,-2.2381,-2.286,-2.3606,-2.3814,-2.3141,-2.2542,-2.2454,-2.3053,-2.3246,-2.3246,-2.3127,-2.2723,-2.2175,-2.1417,-2.1126,-2.066,-1.999,-2.036,-2.0524,-2.0524,-2.0675,-2.1328,0.8707,0.7859,0.5693,0.1715,-0.2473,-0.6479,-0.9746,-1.1845,-1.3562,-1.5342,-1.7095,-1.8457,-1.88,-1.9419,-1.9676,-1.9285,-1.7641,-1.5824,-1.4159,-1.3032,-1.1473,-0.875,-0.8505,-0.7577,-0.5314,-0.5964,-0.6303,-0.594,-0.6431,-0.7077,-0.7644,-0.7918,-0.87,-1.0182,-1.0931,-1.1643,-1.2291,-1.2963,-1.3338,-1.3338,-1.3482,-1.3709,-1.4151,-1.413,-1.4032,-1.395,-1.3621,-1.2946,-1.2004,-1.1982,-1.233,-1.2909,-1.3037,-1.3834,-1.4923,-1.5305,-1.5683,-1.6114,-1.6468,-1.6729,-1.6907,-1.6835,-1.6873,-1.6998,-1.7388,-1.7712,-1.7825,-1.7429,-1.72,-1.7089,-1.7259,-1.7121,-1.7125,-1.7993,-1.8243,-1.8389,-1.8765,-1.9011,-1.9213,-1.9376,-1.9302,-1.9176,-1.9176,-1.9176,-1.9249,-1.9415,-1.9269,-1.9531,-2.0567,-2.1102,-2.1611,-2.2222,-2.286,-2.3211,-2.2962,-2.2803,-2.2819,-2.3068,-2.2737,-2.254,-2.2572,-2.1657,-2.1091,-2.0845,-2.0396,-2.0105,-1.999,-2.0195,-2.0398,-2.0675,-2.1485,-2.2034,0.0,0.3085,0.1679,-0.1288,-0.4296,0.0,-0.9758,-1.1529,-1.3063,-1.4739,-1.6646,-1.8173,-1.867,-1.9599,-2.0046,-1.919,-1.777,-1.5877,-1.3364,-1.1602,-0.9627,-0.7078,-0.6569,-0.5944,-0.4709,-0.5806,-0.6386,-0.5933,-0.6579,-0.7085,-0.7482,-0.7734,-0.8511,-0.9892,-1.0548,-1.1327,-1.2148,-1.2818,-1.3273,-1.3492,-1.3637,-1.3787,-1.4009,-1.4212,-1.3998,-1.3489,-1.3356,-1.2749,0.0,-1.1687,-1.2093,-1.2881,-1.293,-1.3728,-1.488,-1.5202,-1.5763,-1.6303,-1.6397,-1.6705,-1.7063,-1.6691,-1.6895,-1.7192,-1.6961,-1.7297,-1.7679,-1.7354,-1.7285,-1.7285,-1.7246,-1.718,-1.7261,-1.7813,-1.8054,-1.826,-1.8356,-1.874,-1.9029,-1.8943,-1.9016,-1.9101,-1.9078,-1.9064,-1.9101,-1.9078,-1.9281,-1.9711,-2.0364,-2.0988,-2.1627,-2.228,-2.2671,-2.2888,-2.2888,-2.2888,-2.2843,-2.2752,-2.2417,-2.2123,-2.1988,-2.1091,-2.061,-2.061,-2.0055,-1.9862,-1.999,-2.0195,-2.0448,-2.0738,-2.1851,-2.2387,0.0,-0.2499,-0.2213,-0.5372,-0.6798,-0.7919,0.0,0.0,0.0,-1.3588,-1.5385,-1.7083,-1.8143,-1.9563,-2.0211,-1.924,-1.7705,-1.5426,-1.1932,-0.8941,-0.6179,-0.3772,-0.4223,-0.4791,-0.4691,-0.5878,-0.6444,-0.5963,-0.6557,-0.7091,-0.7263,-0.7561,-0.8327,-0.9519,-0.991,-1.0715,-1.207,-1.2449,-1.2973,-1.3492,-1.3848,-1.3682,-1.3108,-1.4125,-1.3826,-1.2621,-1.2941,-1.2642,-1.1903,-1.1593,-1.1959,-1.2704,-1.3085,-1.3747,-1.4521,-1.4983,-1.5614,-1.6221,-1.5832,-1.6111,-1.6632,-1.663,-1.7041,-1.7428,-1.7076,-1.7325,-1.776,-1.772,-1.7787,-1.7868,-1.7747,-1.7489,-1.7325,-1.7666,-1.753,-1.737,-1.7656,-1.8182,-1.8536,-1.8332,-1.8746,-1.9078,-1.8979,-1.9003,-1.9026,-1.8941,-1.9565,-2.0226,-2.0874,-2.1541,-2.2193,-2.283,-2.2888,-2.2888,-2.2888,-2.2888,-2.2706,-2.2231,-2.217,-2.1921,-2.1369,-2.0885,-2.0625,-2.0625,-2.0118,-1.9913,-1.999,-2.036,-2.0588,-2.0791,-2.1904,-2.2441,-0.4515,0.0,-0.5582,-0.7446,-0.8414,-0.9205,0.0,0.0,0.0,0.0,0.0,-1.6102,-1.6072,-1.6997,-1.7408,-1.6318,-1.5377,-1.3739,-1.0724,-0.7219,-0.4463,-0.3052,-0.3987,-0.4516,-0.3834,-0.5532,-0.651,-0.6291,-0.6549,-0.6793,-0.7033,-0.7121,-0.7743,-0.9104,-0.9509,-1.0518,-1.2155,-1.2898,-1.3346,-1.3492,-1.3564,-1.3738,-1.3863,-1.4096,-1.4081,-1.3797,-1.3856,-1.3702,-1.3308,-1.3215,-1.3652,-1.4317,-1.4023,-1.4422,-1.5255,-1.5362,-1.5774,-1.6374,-1.702,-1.7215,-1.7159,-1.6844,-1.6659,-1.6523,-1.6559,-1.6934,-1.7269,-1.6892,-1.685,-1.685,-1.6808,-1.6765,-1.6808,-1.7227,-1.7269,-1.7312,-1.7691,-1.8168,-1.8472,-1.8317,-1.8712,-1.8979,-1.8874,-1.863,-1.8461,-1.8475,-1.8794,-1.9419,-2.0429,-2.1039,-2.1796,-2.277,-2.2888,-2.2888,-2.2888,-2.2888,-2.2706,-2.2231,-2.1827,-2.1334,-2.0795,-2.0746,-2.0676,-2.0676,-2.0636,-2.0485,-2.0131,-2.041,-2.0783,-2.1328,-2.206,-2.2622,-0.5384,-0.5965,-0.6476,-0.7791,-0.867,-0.9408,0.0,0.0,0.0,0.0,0.0,-1.4131,-1.4279,-1.4988,-1.52,-1.4183,-1.3389,-1.1608,-0.7961,-0.5375,-0.3495,-0.251,-0.3405,-0.4107,-0.4075,-0.552,-0.6396,-0.6294,-0.6481,-0.66,-0.6717,-0.7072,-0.7695,-0.8664,-0.9631,-1.0783,-1.2209,-1.2816,-1.32,-1.3492,-1.3492,-1.3637,-1.3833,-1.3693,-1.3701,-1.3979,-1.3795,-1.3666,-1.3511,-1.3727,-1.3941,-1.4224,-1.4276,-1.465,-1.5146,-1.5287,-1.5879,-1.6692,-1.6751,-1.6693,-1.6642,-1.6478,-1.6276,-1.6144,-1.6275,-1.6522,-1.6693,-1.6565,-1.6522,-1.6522,-1.6522,-1.6522,-1.6565,-1.682,-1.6863,-1.6912,-1.6955,-1.7424,-1.7813,-1.7788,-1.8071,-1.8358,-1.8422,-1.8422,-1.8358,-1.8303,-1.8967,-1.969,-2.0299,-2.1136,-2.1882,-2.2526,-2.2555,-2.2555,-2.2555,-2.2356,-2.2109,-2.1827,-2.1334,-2.0795,-2.0258,-2.0509,-2.0731,-2.0784,-2.1011,-2.0822,-2.0347,-2.0771,-2.1159,-2.1525,-2.2387,-2.2936,-0.5969,-0.6266,-0.6444,-0.7707,-0.8537,-0.9063,0.0,0.0,0.0,0.0,0.0,0.0,0.0,-1.3241,-1.3259,-1.2551,-1.1489,-0.9316,-0.5151,-0.3976,-0.3219,-0.2264,-0.3066,-0.3931,-0.4747,-0.5722,-0.6204,-0.6132,-0.6398,-0.6529,-0.6498,-0.7297,-0.8025,-0.8633,-1.0155,-1.1455,-1.2519,-1.2739,-1.3119,-1.3637,-1.3637,-1.3585,-1.3546,-1.3187,-1.3231,-1.3626,-1.3483,-1.3414,-1.3552,-1.3927,-1.3956,-1.3827,-1.4357,-1.4645,-1.4797,-1.5006,-1.5858,-1.6691,-1.5832,-1.5706,-1.5945,-1.5937,-1.5957,-1.6044,-1.6144,-1.62,-1.6231,-1.6392,-1.6436,-1.6436,-1.6436,-1.6479,-1.6479,-1.6479,-1.6479,-1.6426,-1.6112,-1.6587,-1.7098,-1.7138,-1.7382,-1.7666,-1.799,-1.8217,-1.8365,-1.8345,-1.9408,-2.0207,-2.0301,-2.1266,-2.1983,-2.2077,-2.2077,-2.2077,-2.2077,-2.1575,-2.1272,-2.1321,-2.0845,-2.0398,-1.9988,-2.0542,-2.0914,-2.0917,-2.1247,-2.1121,-2.0511,-2.1094,-2.1472,-2.1668,-2.2635,-2.3132,-0.6398,-0.6805,-0.7442,-0.9103,-0.9058,-0.8756,0.0,0.0,0.0,0.0,0.0,0.0,0.0,-1.1278,-1.1168,-1.0932,-0.9371,-0.7379,-0.5071,-0.4671,-0.413,-0.2597,-0.3774,-0.478,-0.4983,-0.565,-0.6033,-0.6076,-0.6374,-0.6664,-0.6872,-0.7751,-0.8737,-0.9823,-1.1261,-1.2572,-1.3535,-1.3905,-1.4122,-1.4201,-1.433,-1.4167,-1.3616,-1.3178,-1.3105,-1.3405,-1.4007,-1.4702,-1.5292,-1.5349,-1.5365,-1.5347,-1.5049,-1.4978,-1.5052,-1.5073,-1.5302,-1.5567,-1.5527,-1.5944,-1.6392,-1.5903,-1.5881,-1.5988,-1.6044,-1.61,-1.62,-1.6231,-1.6231,-1.6231,-1.6231,-1.6318,-1.6436,-1.6436,-1.6436,-1.6411,-1.6366,-1.6912,-1.7325,-1.6847,-1.7395,-1.7991,-1.8126,-1.7996,-1.7996,-1.8565,-1.8977,-1.9387,-1.9856,-2.0452,-2.1006,-2.1465,-2.1513,-2.1513,-2.1513,-2.1042,-2.0746,-2.0894,-2.0709,-2.0642,-2.0752,-2.1393,-2.1511,-2.1077,-2.1686,-2.1509,-2.0511,-2.0703,-2.1341,-2.2297,-2.2467,-2.2753,-0.7085,-0.733,-0.7539,-0.8458,-0.826,-0.8027,0.0,0.0,0.0,0.0,0.0,0.0,0.0,-0.9796,-0.9291,-0.8497,-0.8124,-0.716,-0.5004,-0.4749,-0.439,-0.3493,-0.4622,-0.5494,-0.5646,-0.6065,-0.6386,-0.6593,-0.6485,-0.6651,-0.7291,-0.8001,-0.8777,-0.9608,-1.1343,-1.2255,-1.2282,-1.4002,-1.4709,-1.4266,-1.3938,-1.3754,-1.3854,-1.3216,-1.3372,-1.4083,-1.4264,-1.4559,-1.4902,-1.5498,-1.5565,-1.5369,-1.5079,-1.5196,-1.5556,-1.5613,-1.5498,-1.5347,-1.5809,-1.6017,-1.6083,-1.5787,-1.5984,-1.6287,-1.5965,-1.6118,-1.6345,-1.6054,-1.61,-1.62,-1.62,-1.6231,-1.6318,-1.6392,-1.6362,-1.6275,-1.6275,-1.6509,-1.6769,-1.6986,-1.7124,-1.7465,-1.8132,-1.8228,-1.8329,-1.8725,-1.9132,-1.9535,-1.9773,-2.0254,-2.0709,-2.0944,-2.0993,-2.0993,-2.0993,-2.0497,-2.0207,-2.0372,-2.0372,-2.0592,-2.0985,-2.1347,-2.1467,-2.1223,-2.1561,-2.1394,-2.0612,-2.1302,-2.1864,-2.2428,-2.2675,-2.3302,-0.8045,-0.7828,-0.7426,-0.7838,-0.7438,0.0,0.0,0.0,0.0,0.0,0.0,0.0,0.0,-0.8553,-0.788,-0.6831,-0.7228,-0.6878,-0.4816,-0.4727,-0.4625,-0.419,-0.5027,-0.5751,-0.5949,-0.6233,-0.6544,-0.6773,-0.6697,-0.6954,-0.7639,-0.8364,-0.9021,-0.9544,-1.1444,-1.2196,-1.1619,-1.3941,-1.4815,-1.4142,-1.3599,-1.3599,-1.4034,-1.3233,-1.3463,-1.4389,-1.4338,-1.435,-1.4538,-1.5137,-1.5221,-1.5053,-1.4879,-1.5182,-1.5716,-1.5705,-1.5545,-1.537,-1.5719,-1.5775,-1.5659,-1.5659,-1.5978,-1.632,-1.5912,-1.608,-1.6308,-1.5912,-1.5925,-1.6113,-1.6113,-1.6242,-1.6372,-1.6504,-1.6515,-1.65,-1.6409,-1.6426,-1.663,-1.7062,-1.7085,-1.7296,-1.8207,-1.8511,-1.8746,-1.9021,-1.9484,-1.9798,-1.9798,-2.0156,-2.0409,-2.0409,-2.0409,-2.0409,-2.0409,-2.0182,-2.0116,-2.0232,-2.0259,-2.0438,-2.0886,-2.1327,-2.1457,-2.1315,-2.1667,-2.1564,-2.0908,-2.176,-2.2256,-2.2428,-2.2818,-2.3655,-0.9232,-0.8521,-0.7624,-0.8142,-0.7202,0.0,-0.6806,-0.6175,0.0,-0.6615,0.0,0.0,0.0,-0.7607,-0.7467,-0.702,-0.6438,-0.564,-0.4311,-0.4909,-0.5041,-0.3951,-0.4691,-0.5261,-0.5183,-0.5693,-0.6033,-0.5896,-0.6971,-0.7698,-0.7865,-0.9216,-1.0136,-1.0428,-1.2432,-1.3478,-1.3412,-1.4106,-1.4187,-1.3654,-1.4112,-1.4219,-1.4072,-1.3316,-1.319,-1.3638,-1.4042,-1.4601,-1.5235,-1.4597,-1.4592,-1.4986,-1.4546,-1.4658,-1.512,-1.466,-1.4868,-1.5222,-1.4695,-1.496,-1.5513,-1.5513,-1.5638,-1.5763,-1.5804,-1.5816,-1.584,-1.5804,-1.5792,-1.5836,-1.5836,-1.6287,-1.6788,-1.6938,-1.7237,-1.7387,-1.7014,-1.7458,-1.7669,-1.6807,-1.7474,-1.8279,-1.8549,-1.8672,-1.9021,-1.9622,-1.9773,-1.9798,-1.9798,-1.985,-1.985,-1.985,-1.985,-1.985,-1.985,-2.0471,-2.0881,-2.1002,-2.0694,-2.0423,-2.0297,-2.1601,-2.1979,-2.1328,-2.2447,-2.2557,-2.1446,-2.1525,-2.1851,-2.2415,-2.2439,-2.308,-0.9597,-0.8214,-0.6629,-0.6789,-0.5395,0.0,0.0,-0.5914,-0.5491,-0.6156,-0.7307,0.0,-0.8134,-0.7783,-0.7273,-0.6534,-0.6576,-0.6192,-0.4865,-0.4997,-0.4922,-0.4188,-0.509,-0.5625,-0.5273,-0.6063,-0.6727,-0.6952,-0.7488,-0.8088,-0.8601,-0.9138,-0.9536,-0.9819,-1.168,-1.2388,-1.1744,-1.3726,-1.4213,-1.3243,-1.3761,-1.4013,-1.3996,-1.3447,-1.338,-1.3838,-1.3839,-1.3879,-1.3932,-1.413,-1.4313,-1.4408,-1.4282,-1.4198,-1.4129,-1.3988,-1.4035,-1.428,-1.4373,-1.4582,-1.4937,-1.5367,-1.5783,-1.6075,-1.5888,-1.602,-1.6212,-1.5888,-1.5792,-1.5792,-1.5792,-1.5981,-1.6215,-1.6349,-1.6672,-1.688,-1.6573,-1.7137,-1.7593,-1.7267,-1.7824,-1.8499,-1.9015,-1.9204,-1.9419,-1.9773,-1.9798,-1.9798,-1.9798,-1.9798,-1.9798,-1.9798,-1.9798,-1.9949,-2.0313,-2.0671,-2.1097,-2.1565,-2.1465,-2.1362,-2.1403,-2.1828,-2.2011,-2.1792,-2.226,-2.2315,-2.1887,-2.2346,-2.2828,-2.3345,-2.3415,-2.4282,-1.0137,-0.8315,-0.6306,-0.6236,0.0,0.0,-0.5163,-0.5176,-0.491,-0.5333,-0.6327,-0.7257,-0.7647,-0.7258,-0.6616,-0.5858,-0.6162,-0.6099,-0.4941,-0.4745,-0.4607,-0.4268,-0.5152,-0.5636,-0.5275,-0.6464,-0.7305,-0.7671,-0.8034,-0.8512,-0.9058,-0.9223,-0.9321,-0.9525,-1.1094,-1.1663,-1.1034,-1.338,-1.3953,-1.2822,-1.3514,-1.3831,-1.387,-1.3305,-1.3321,-1.3803,-1.3532,-1.3381,-1.339,-1.357,-1.3678,-1.3725,-1.3851,-1.3734,-1.3515,-1.3372,-1.342,-1.3668,-1.3999,-1.4316,-1.4571,-1.5232,-1.5867,-1.629,-1.5903,-1.6164,-1.6476,-1.5936,-1.5792,-1.5792,-1.5792,-1.5924,-1.6125,-1.6417,-1.6819,-1.7026,-1.6724,-1.7315,-1.776,-1.7412,-1.7971,-1.8619,-1.9049,-1.9265,-1.9469,-1.9683,-1.9747,-1.9798,-1.9798,-1.9798,-1.9798,-1.9798,-1.9962,-2.0238,-2.068,-2.1113,-2.1576,-2.2112,-2.226,-2.2265,-2.206,-2.2159,-2.2275,-2.2262,-2.2247,-2.226,-2.2317,-2.2801,-2.3347,-2.3903,-2.4249,-2.5045,-1.086,-0.898,-0.6815,0.0,0.0,0.0,-0.3643,-0.3682,-0.3668,-0.3873,-0.4354,-0.5015,-0.603,-0.5851,-0.5422,-0.4991,-0.4894,-0.4741,-0.4299,-0.4102,-0.4053,-0.4068,-0.4755,-0.5214,-0.5218,-0.6653,-0.7612,-0.7612,-0.8558,-0.9132,-0.9132,-0.958,-0.9804,-0.9804,-1.0828,-1.1596,-1.2012,-1.3113,-1.3309,-1.2544,-1.3519,-1.3891,-1.3663,-1.2857,-1.2879,-1.3442,-1.313,-1.3425,-1.4118,-1.2982,-1.2612,-1.2814,-1.3086,-1.3266,-1.3314,-1.2764,-1.3016,-1.3573,-1.3621,-1.3952,-1.4466,-1.5119,-1.5764,-1.6232,-1.5825,-1.6118,-1.6476,-1.5936,-1.5792,-1.5792,-1.5792,-1.6176,-1.675,-1.7399,-1.7896,-1.8087,-1.7691,-1.8331,-1.857,-1.7119,-1.7775,-1.8609,-1.8621,-1.8821,-1.9158,-1.953,-1.9708,-1.9798,-1.9811,-1.9798,-1.9798,-1.9811,-2.0326,-2.0718,-2.0731,-2.1669,-2.2367,-2.2578,-2.3086,-2.2941,-2.1963,-2.2588,-2.2853,-2.2578,-2.2586,-2.2645,-2.2795,-2.2824,-2.3173,-2.3916,-2.4666,-2.5042,-1.1033,-0.8833,0.0,-0.6116,0.0,0.0,0.0,-0.3619,0.0,0.0,-0.4354,-0.4448,-0.624,-0.5547,-0.4916,-0.5262,-0.4975,-0.4651,-0.4219,-0.4102,-0.4053,-0.4068,-0.4875,-0.5434,-0.5545,-0.7107,-0.8113,-0.8206,-0.9355,-1.0101,-1.0101,-1.0249,-1.0301,-1.0301,-1.1059,-1.1549,-1.164,-1.3177,-1.3561,-1.2826,-1.2812,-1.2759,-1.2717,-1.2321,-1.2281,-1.2408,-1.2111,-1.2289,-1.2739,-1.2486,-1.2324,-1.221,-1.2072,-1.2107,-1.2206,-1.2107,-1.2206,-1.251,-1.3324,-1.3705,-1.3999,-1.4983,-1.5764,-1.6232,-1.5825,-1.6118,-1.6476,-1.5936,-1.5792,-1.5792,-1.5792,-1.5912,-1.6113,-1.6315,-1.6702,-1.7051,-1.7058,-1.7775,-1.8353,-1.7982,-1.8239,-1.8568,-1.897,-1.8829,-1.8895,-1.953,-1.9604,-1.9858,-2.0363,-2.0049,-1.9962,-2.0363,-2.02,-2.0376,-2.1179,-2.1192,-2.1713,-2.3073,-2.2946,-2.289,-2.2954,-2.2727,-2.2563,-2.2443,-2.1992,-2.1806,-2.1848,-2.2911,-2.3679,-2.4205,-2.5561,-2.622,-1.0598,-0.8425,0.0,-0.5525,-0.3453,-0.1773,-0.2656,0.0,0.0,0.0,-0.4012,-0.3893,-0.5222,-0.4764,-0.4292,-0.4675,-0.4552,-0.4328,-0.4285,-0.41,-0.4151,-0.4322,-0.5335,-0.6038,-0.6153,-0.7949,-0.916,-0.918,-1.0268,-1.0912,-1.0912,-1.0667,-1.0485,-1.0415,-1.0705,-1.1023,-1.1392,-1.2469,-1.2776,-1.2442,-1.2107,-1.1747,-1.1331,-1.1373,-1.1475,-1.1673,-1.1759,-1.1796,-1.1878,-1.2092,-1.2003,-1.1693,-1.1524,-1.1528,-1.1728,-1.1769,-1.1877,-1.2116,-1.3228,-1.3621,-1.38,-1.488,-1.5661,-1.6174,-1.5995,-1.6194,-1.6453,-1.6188,-1.596,-1.5792,-1.5792,-1.5792,-1.584,-1.6056,-1.6344,-1.6678,-1.6977,-1.7484,-1.7943,-1.8066,-1.7922,-1.7934,-1.8454,-1.8461,-1.8573,-1.9117,-1.9666,-2.0223,-2.0627,-2.0552,-2.0526,-2.0706,-2.0552,-2.074,-2.143,-2.138,-2.1901,-2.3195,-2.2824,-2.2608,-2.2871,-2.2567,-2.2249,-2.1877,-2.1376,-2.1187,-2.1502,-2.2986,-2.372,-2.3713,-2.5548,-2.5914,-0.9951,-0.8046,0.0,-0.5064,-0.3728,0.0,-0.1958,-0.2415,-0.3088,-0.352,-0.3566,-0.3472,-0.3483,-0.3706,-0.3813,-0.365,-0.3837,-0.4008,-0.4314,-0.427,-0.4305,-0.4749,-0.6,-0.679,-0.6907,-0.8924,-1.0199,-1.0242,-1.0975,-1.141,-1.1472,-1.0808,-1.0451,-1.0338,-1.0086,-1.036,-1.1212,-1.1375,-1.1495,-1.1533,-1.142,-1.0821,-0.9846,-1.0164,-1.0552,-1.1055,-1.1684,-1.1776,-1.1516,-1.1776,-1.1715,-1.1362,-1.1353,-1.1505,-1.1731,-1.1731,-1.1855,-1.2224,-1.3228,-1.3621,-1.3752,-1.4777,-1.5556,-1.6126,-1.6232,-1.6385,-1.6479,-1.6537,-1.6236,-1.5852,-1.5804,-1.5792,-1.5912,-1.6392,-1.65,-1.6644,-1.7231,-1.7339,-1.7364,-1.7569,-1.7169,-1.7046,-1.7557,-1.7884,-1.8202,-1.8609,-1.983,-2.0718,-2.0718,-2.1104,-2.1242,-2.0844,-2.1142,-2.1455,-2.1556,-2.197,-2.2439,-2.2967,-2.2579,-2.2188,-2.1916,-2.2113,-2.1803,-2.0996,-2.0666,-2.0782,-2.1365,-2.2852,-2.3233,-2.2609,-2.4669,-2.4481,-1.0317,-0.8676,0.0,0.0,-0.2981,-0.0912,0.0074,-0.051,-0.1497,-0.2331,-0.3141,-0.3687,-0.3708,-0.3937,-0.4087,-0.4062,-0.412,-0.4319,-0.4634,-0.4674,-0.4731,-0.502,-0.6367,-0.7205,-0.7111,-0.8683,-0.9705,-0.9735,-1.0384,-1.0931,-1.1165,-1.0627,-1.0424,-1.0703,-1.0397,-1.034,-1.0521,-1.1401,-1.163,-1.1133,-1.0938,-1.0256,-0.9195,-0.9426,-0.9769,-1.0261,-1.0854,-1.1256,-1.1531,-1.1873,-1.1922,-1.1757,-1.1754,-1.1763,-1.1826,-1.2035,-1.1935,-1.1968,-1.318,-1.3621,-1.3752,-1.4777,-1.5556,-1.6126,-1.6126,-1.649,-1.681,-1.6539,-1.6383,-1.6204,-1.5823,-1.5748,-1.5828,-1.5903,-1.5915,-1.6104,-1.6678,-1.6751,-1.6919,-1.7339,-1.7376,-1.746,-1.814,-1.8275,-1.8547,-1.9253,-2.012,-2.0718,-2.0718,-2.0819,-2.0966,-2.128,-2.1029,-2.1192,-2.2071,-2.1845,-2.184,-2.2299,-2.185,-2.1242,-2.059,-2.0655,-2.059,-2.0291,-1.9977,-1.9791,-1.9649,-2.1327,-2.1896,-2.1563,-2.316,-2.3384,-0.9713,0.0,0.0,-0.5,0.0,-0.1314,-0.0825,-0.0905,-0.1278,-0.178,-0.2345,-0.2907,-0.3417,-0.3813,-0.4116,-0.4552,-0.4959,-0.5225,-0.5166,-0.5484,-0.5745,-0.5939,-0.6924,-0.7603,-0.7751,-0.8948,-0.9729,-0.9867,-1.0425,-1.0894,-1.131,-1.0685,-1.035,-1.0424,-0.9951,-0.9837,-1.0148,-1.0654,-1.0906,-1.0828,-1.0109,-0.9183,-0.8022,-0.8985,-0.964,-1.0061,-1.0558,-1.1059,-1.1533,-1.1421,-1.1608,-1.1955,-1.1914,-1.191,-1.1894,-1.2053,-1.1963,-1.1968,-1.3132,-1.3573,-1.3752,-1.4777,-1.5383,-1.5753,-1.6045,-1.6173,-1.6268,-1.635,-1.6207,-1.6004,-1.5787,-1.576,-1.5792,-1.5748,-1.5748,-1.5936,-1.6464,-1.6584,-1.6811,-1.764,-1.7592,-1.758,-1.8198,-1.8396,-1.8781,-1.9569,-2.0248,-2.0718,-2.0718,-2.0891,-2.1167,-2.1455,-2.0952,-2.0932,-2.1743,-2.1547,-2.1449,-2.1631,-2.1542,-2.1089,-2.0161,-2.0051,-1.994,-1.966,-2.0052,-1.9927,-1.9341,-2.1141,-2.1453,-2.05,-2.1886,-2.2048,-0.9192,0.0,-0.6415,-0.4579,-0.3134,0.0,-0.2278,-0.1853,-0.1411,-0.1488,-0.1744,-0.2279,-0.3147,-0.373,-0.4424,-0.5285,-0.5996,-0.6339,-0.6136,-0.6613,-0.7046,-0.7186,-0.7637,-0.8132,-0.8466,-0.9358,-0.996,-1.0086,-1.0435,-1.0887,-1.1304,-1.0455,-0.992,-0.9771,-0.9253,-0.9198,-0.9761,-0.9658,-0.9869,-1.0302,-0.9094,-0.7927,-0.6939,-0.8469,-0.933,-0.9721,-1.0252,-1.0863,-1.1413,-1.0948,-1.1263,-1.2075,-1.1963,-1.1994,-1.2087,-1.2026,-1.2006,-1.2116,-1.3074,-1.3563,-1.3894,-1.4777,-1.5165,-1.5359,-1.5916,-1.5881,-1.5787,-1.6244,-1.615,-1.5875,-1.578,-1.5802,-1.579,-1.579,-1.5771,-1.5913,-1.6453,-1.6584,-1.6907,-1.7881,-1.7834,-1.7762,-1.8343,-1.8643,-1.9044,-1.9684,-2.0235,-2.0519,-2.042,-2.0772,-2.1051,-2.1051,-2.0628,-2.0534,-2.1093,-2.1224,-2.1219,-2.1101,-2.1411,-2.1205,-2.0118,-1.998,-1.9624,-1.9085,-2.0249,-2.0408,-1.9539,-2.1184,-2.1162,-1.955,-2.0699,-2.0686,0.0,0.0,-0.5988,0.0,-0.2947,-0.1969,0.0,-0.1326,-0.0861,-0.1173,-0.2488,-0.354,-0.3766,-0.472,-0.5792,-0.6924,-0.6904,-0.7133,-0.813,-0.8291,-0.8291,-0.8291,-0.8871,-0.9156,-0.8763,-0.9602,-0.9991,-0.9555,-0.9777,-0.9998,-1.0115,-0.9151,-0.8705,-0.893,-0.8684,-0.8619,-0.8678,-0.8947,-0.9128,-0.9215,-0.8007,-0.7255,-0.6944,-0.7456,-0.8014,-0.8594,-0.8874,-0.9703,-1.0926,-1.0822,-1.1425,-1.2379,-1.2083,-1.2134,-1.2333,-1.2228,-1.2253,-1.2472,-1.3266,-1.3905,-1.4373,-1.4926,-1.5108,-1.5211,-1.5739,-1.619,-1.6489,-1.6668,-1.6694,-1.6581,-1.6221,-1.5857,-1.5609,-1.5609,-1.5635,-1.5786,-1.6468,-1.6584,-1.6798,-1.74,-1.8031,-1.8671,-1.9315,-1.9544,-1.9672,-1.9786,-1.9863,-1.9721,-1.9315,-1.9266,-1.9237,-1.9237,-1.9518,-1.9934,-2.0502,-2.0892,-2.1118,-2.1123,-2.1018,-2.0676,-2.0118,-2.0218,-1.9944,-1.9085,-1.9933,-2.0012,-1.9142,-2.0137,-2.0058,-1.9142,-1.9393,-1.9358,-1.0262,-0.8799,-0.7085,0.0,-0.4987,-0.4234,-0.3893,-0.2813,-0.1879,-0.2034,-0.2891,-0.3583,-0.3778,-0.5064,-0.6532,-0.762,-0.8272,-0.8701,-0.8923,-0.9094,-0.9256,-0.9314,-0.9454,-0.9542,-0.9579,-0.9535,-0.9505,-0.9432,-0.9234,-0.9139,-0.9193,-0.8612,-0.8249,-0.8056,-0.7858,-0.7847,-0.7907,-0.8166,-0.8106,-0.7788,-0.7257,-0.6815,-0.6361,-0.6466,-0.7149,-0.814,-0.8828,-0.964,-1.0534,-1.0737,-1.1365,-1.229,-1.2255,-1.2206,-1.2167,-1.2616,-1.2681,-1.272,-1.3862,-1.4566,-1.5083,-1.5717,-1.6005,-1.6063,-1.6244,-1.6512,-1.6627,-1.6351,-1.6367,-1.6309,-1.5887,-1.5674,-1.5586,-1.5609,-1.5881,-1.6249,-1.688,-1.6991,-1.7255,-1.8205,-1.8712,-1.9098,-1.9527,-1.9656,-1.9708,-1.9798,-1.9552,-1.9251,-1.9023,-1.8885,-1.8965,-1.9241,-1.9377,-1.9627,-2.018,-2.0426,-2.0355,-1.9977,-2.0488,-2.0528,-1.9931,-2.0048,-1.9862,-1.9536,-2.0042,-1.9917,-1.9075,-1.9745,-1.9724,-1.9075,-1.9075,-1.921,0.0,0.0,-0.8558,-0.749,-0.6861,-0.624,-0.547,-0.4144,-0.2973,-0.274,-0.3207,-0.3673,-0.3828,-0.5526,-0.7183,-0.8407,-0.9355,-0.9956,-0.9841,-1.0046,-1.0296,-1.0591,-1.0332,-1.0352,-1.0746,-1.0314,-1.0043,-1.0132,-0.9615,-0.924,-0.921,-0.8585,-0.7963,-0.7359,-0.7175,-0.7068,-0.7129,-0.7265,-0.7061,-0.6538,-0.6598,-0.6357,-0.5828,-0.5933,-0.6661,-0.7855,-0.8665,-0.9384,-1.0148,-1.0478,-1.1178,-1.212,-1.2326,-1.2268,-1.2157,-1.2919,-1.3122,-1.3223,-1.452,-1.5226,-1.5701,-1.6373,-1.6685,-1.6734,-1.6623,-1.6685,-1.6616,-1.6041,-1.5927,-1.5867,-1.5416,-1.5406,-1.547,-1.5508,-1.5888,-1.6458,-1.7341,-1.7659,-1.809,-1.9032,-1.9275,-1.9368,-1.9617,-1.9656,-1.9656,-1.9604,-1.9133,-1.8756,-1.8724,-1.852,-1.8538,-1.9089,-1.9091,-1.9168,-1.9469,-1.9706,-1.9661,-1.9217,-2.014,-2.0428,-1.9933,-2.0052,-1.9996,-1.9768,-2.0089,-1.9862,-1.9075,-1.9599,-1.9588,-1.9075,-1.9189,-1.9495,0.0,-1.0804,0.0,-0.8217,-0.7484,-0.6853,-0.5616,-0.453,-0.3521,-0.2666,-0.3366,-0.4144,-0.4295,-0.623,-0.8152,-0.9578,-1.0115,-1.0651,-1.1443,-1.1482,-1.1625,-1.212,-1.2143,-1.2255,-1.2447,-1.2622,-1.256,-1.2206,-1.1551,-1.1067,-1.077,-0.9023,-0.7639,-0.6873,-0.679,-0.6539,-0.6207,-0.6361,-0.6121,-0.5464,-0.5699,-0.5759,-0.5707,-0.6055,-0.6676,-0.7507,-0.7582,-0.8361,-0.9582,-0.9894,-1.085,-1.2089,-1.2059,-1.2204,-1.2547,-1.3092,-1.3594,-1.4155,-1.507,-1.5712,-1.6233,-1.6523,-1.6623,-1.6623,-1.6623,-1.6623,-1.6523,-1.6036,-1.5822,-1.5607,-1.5215,-1.5139,-1.5149,-1.5314,-1.5369,-1.5956,-1.7763,-1.8654,-1.9133,-1.9368,-1.946,-1.9604,-1.9747,-1.9798,-1.9604,-1.9093,-1.8536,-1.81,-1.795,-1.7477,-1.7272,-1.7739,-1.8186,-1.829,-1.7833,-1.8643,-1.9207,-1.9378,-2.0054,-2.0344,-2.0107,-2.0691,-2.0638,-1.9848,-1.9858,-1.9561,-1.9075,-1.9599,-1.9588,-1.9085,-1.9588,-1.9806,0.0,0.0,0.0,-1.0067,-0.8646,-0.7338,-0.6984,-0.5472,-0.4222,-0.4443,-0.4455,-0.4838,-0.5912,-0.7681,-0.9145,-0.982,-1.0803,-1.175,-1.2351,-1.2042,-1.1976,-1.2813,-1.2158,-1.1927,-1.2655,-1.2257,-1.2014,-1.2282,-1.1946,-1.1304,-1.0375,-0.936,-0.8182,-0.6766,-0.6274,-0.5679,-0.4948,-0.5071,-0.4991,-0.4725,-0.4869,-0.5173,-0.5703,-0.5888,-0.6576,-0.7526,-0.7847,-0.8678,-0.9894,-1.0534,-1.124,-1.1802,-1.2165,-1.2278,-1.2321,-1.3589,-1.4157,-1.447,-1.5842,-1.6559,-1.6894,-1.7387,-1.7546,-1.7425,-1.677,-1.6618,-1.6395,-1.5571,-1.5278,-1.5237,-1.505,-1.5034,-1.5225,-1.5833,-1.5961,-1.626,-1.7431,-1.8205,-1.8827,-1.9408,-1.9291,-1.9133,-1.9239,-1.9303,-1.9081,-1.8483,-1.7929,-1.7601,-1.7868,-1.7634,-1.7657,-1.8102,-1.8557,-1.8764,-1.8609,-1.8889,-1.926,-1.9653,-1.9854,-2.025,-2.0713,-2.0709,-2.0659,-2.0627,-2.0338,-1.9965,-1.9588,-1.9453,-1.923,-1.9075,-1.9241,-1.9789,-1.2615,0.0,0.0,0.0,-0.9254,-0.7825,-0.7293,-0.5862,-0.4667,-0.5005,-0.4972,-0.5306,-0.6835,-0.8595,-0.9895,-1.0271,-1.1401,-1.2338,-1.2579,-1.2126,-1.2239,-1.3405,-1.2546,-1.2267,-1.3305,-1.2868,-1.2662,-1.2941,-1.2481,-1.1823,-1.0942,-0.9732,-0.8085,-0.5958,-0.5225,-0.455,-0.3754,-0.3937,-0.4091,-0.4232,-0.4302,-0.4785,-0.5724,-0.5851,-0.6634,-0.7842,-0.8172,-0.8935,-1.0078,-1.0793,-1.131,-1.1685,-1.2236,-1.234,-1.2338,-1.3835,-1.4363,-1.4573,-1.6048,-1.6729,-1.7067,-1.7755,-1.7909,-1.7665,-1.7004,-1.646,-1.5903,-1.5172,-1.4795,-1.4636,-1.4658,-1.4883,-1.5296,-1.585,-1.614,-1.6482,-1.7045,-1.7667,-1.8267,-1.8922,-1.875,-1.859,-1.8655,-1.8709,-1.8483,-1.7875,-1.7479,-1.7329,-1.7755,-1.7767,-1.7957,-1.8547,-1.8889,-1.9013,-1.8847,-1.8982,-1.9199,-1.9578,-1.982,-2.0255,-2.0855,-2.0886,-2.0959,-2.1114,-2.0741,-2.037,-1.9916,-1.9462,-1.9163,-1.9075,-1.9163,-1.9968,0.0,0.0,0.0,-0.9687,-0.9119,-0.8501,-0.6444,-0.5504,-0.4886,-0.4312,-0.4686,-0.5464,-0.6912,-0.8893,-1.0421,-1.1037,-1.1781,-1.2271,-1.2182,-1.1895,-1.2376,-1.3958,-1.3471,-1.349,-1.456,-1.4666,-1.4538,-1.4291,-1.3373,-1.28,-1.2572,-1.0092,-0.7298,-0.4417,-0.382,-0.322,-0.2686,-0.2854,-0.3306,-0.4033,-0.3977,-0.459,-0.5694,-0.5832,-0.6817,-0.849,-0.849,-0.9064,-1.0021,-1.0604,-1.1122,-1.1685,-1.2297,-1.249,-1.2666,-1.3761,-1.4189,-1.4369,-1.5642,-1.6275,-1.6606,-1.7412,-1.7446,-1.7124,-1.7102,-1.6138,-1.4933,-1.4775,-1.4379,-1.4022,-1.4073,-1.4667,-1.5215,-1.5362,-1.5864,-1.6368,-1.6708,-1.7213,-1.7722,-1.7897,-1.8007,-1.8104,-1.8093,-1.8093,-1.7863,-1.7257,-1.7202,-1.7277,-1.7667,-1.7668,-1.8081,-1.8971,-1.9075,-1.8889,-1.8433,-1.8816,-1.9085,-1.9106,-1.9934,-2.0431,-2.0462,-2.1331,-2.16,-2.1145,-2.0903,-2.0614,-2.0165,-1.9716,-1.9325,-1.9085,-1.9377,-2.037,-1.1666,0.0,0.0,0.0,0.0,0.0,-0.8286,-0.6918,-0.5944,-0.6847,-0.6364,-0.6692,-0.9281,-1.0276,-1.1031,-1.2224,-1.2673,-1.2998,-1.3234,-1.3254,-1.3658,-1.4732,-1.4388,-1.4504,-1.5524,-1.5032,-1.4726,-1.5032,-1.4445,-1.3502,-1.2248,-0.9243,-0.678,-0.4942,-0.4151,-0.3222,-0.2151,-0.2158,-0.2287,-0.249,-0.3104,-0.3884,-0.4914,-0.559,-0.6566,-0.7842,-0.8544,-0.9314,-1.0021,-1.0737,-1.1373,-1.1996,-1.2367,-1.2674,-1.2981,-1.389,-1.4189,-1.4309,-1.5294,-1.5642,-1.5806,-1.6368,-1.6252,-1.5862,-1.5205,-1.4727,-1.4301,-1.3844,-1.3793,-1.4026,-1.4628,-1.4944,-1.5264,-1.5556,-1.572,-1.5941,-1.6218,-1.6436,-1.6832,-1.7831,-1.8003,-1.7844,-1.749,-1.7479,-1.7268,-1.6694,-1.6637,-1.6869,-1.7616,-1.7668,-1.8081,-1.8971,-1.9075,-1.9023,-1.8889,-1.9058,-1.9354,-2.0006,-2.0286,-2.0721,-2.1393,-2.1662,-2.1669,-2.1394,-2.1077,-2.0551,-1.9959,-1.9505,-1.912,-1.8906,-2.0072,-2.0875,-1.0819,-1.0685,-1.0436,-1.0337,0.0,0.0,-0.8781,-0.7686,-0.7001,-0.7939,-0.745,-0.7621,-0.9981,-1.0663,-1.1335,-1.2452,-1.3046,-1.3346,-1.3356,-1.3286,-1.3531,-1.4432,-1.4095,-1.4106,-1.493,-1.453,-1.4302,-1.4577,-1.418,-1.3104,-1.1399,-0.8709,-0.651,-0.4797,-0.3816,-0.2755,-0.1482,-0.1398,-0.1551,-0.201,-0.2734,-0.3646,-0.4693,-0.5541,-0.6509,-0.7521,-0.8479,-0.9308,-1.0078,-1.0856,-1.156,-1.2127,-1.2428,-1.2674,-1.3042,-1.37,-1.3881,-1.4001,-1.4656,-1.5001,-1.5216,-1.5718,-1.5605,-1.5186,-1.4782,-1.4357,-1.3931,-1.3801,-1.4079,-1.4484,-1.4972,-1.5205,-1.5371,-1.5614,-1.5672,-1.5788,-1.6056,-1.6257,-1.657,-1.7267,-1.7351,-1.7173,-1.6885,-1.6899,-1.674,-1.6431,-1.6539,-1.6912,-1.7636,-1.7885,-1.8278,-1.8992,-1.9075,-1.9075,-1.9075,-1.9075,-1.9375,-1.9969,-2.001,-2.0422,-2.1422,-2.1192,-2.1097,-2.1226,-2.0639,-2.0038,-1.9453,-1.9274,-1.9051,-1.8838,-2.0401,-2.1114,-0.9676,-0.9676,-0.9559,-0.9154,-0.9193,0.0,-0.8518,-0.8075,-0.789,-0.815,-0.8069,-0.8313,-0.9841,-1.0663,-1.1409,-1.2305,-1.3046,-1.3346,-1.3046,-1.2662,-1.2799,-1.3723,-1.3384,-1.321,-1.3716,-1.3763,-1.3761,-1.3702,-1.3268,-1.227,-1.0564,-0.8538,-0.6498,-0.4367,-0.3299,-0.2161,-0.0812,-0.0767,-0.1132,-0.1998,-0.2757,-0.3631,-0.468,-0.5549,-0.6416,-0.7456,-0.835,-0.918,-0.9952,-1.0919,-1.1622,-1.2189,-1.2428,-1.2728,-1.3103,-1.339,-1.3511,-1.3571,-1.4001,-1.4314,-1.4613,-1.5187,-1.508,-1.4723,-1.508,-1.4438,-1.3717,-1.4328,-1.4743,-1.5029,-1.5156,-1.5313,-1.5488,-1.5732,-1.577,-1.5808,-1.6128,-1.6471,-1.6673,-1.6456,-1.6425,-1.6436,-1.6384,-1.6384,-1.6394,-1.6446,-1.6788,-1.7162,-1.774,-1.8143,-1.8557,-1.9023,-1.9075,-1.9075,-1.9075,-1.9075,-1.9204,-1.9461,-1.9492,-1.9879,-2.0737,-2.0141,-2.0121,-2.0767,-1.9945,-1.93,-1.8904,-1.9093,-1.9031,-1.892,-2.0432,-2.1114,-0.8899,-0.9074,-0.9428,-0.9388,-0.9399,0.0,-0.9369,-0.8596,-0.8171,-0.8941,-0.8642,-0.8912,-1.0956,-1.1484,-1.1929,-1.3046,-1.3419,-1.3492,-1.3419,-1.3643,-1.3981,-1.4186,-1.464,-1.4928,-1.4877,-1.4612,-1.4562,-1.5033,-1.3667,-1.241,-1.1397,-0.9017,-0.674,-0.4624,-0.3637,-0.2427,-0.1043,-0.0856,-0.0899,-0.1227,-0.2557,-0.3446,-0.3974,-0.5284,-0.6152,-0.6675,-0.8285,-0.9052,-0.9308,-1.0912,-1.1872,-1.2428,-1.2482,-1.285,-1.339,-1.3511,-1.3511,-1.3502,-1.3571,-1.3551,-1.3593,-1.4013,-1.374,-1.3273,-1.3816,-1.3805,-1.3775,-1.4477,-1.4843,-1.5029,-1.5156,-1.5313,-1.5557,-1.6267,-1.6165,-1.6014,-1.6711,-1.6636,-1.6477,-1.6394,-1.6663,-1.6798,-1.6446,-1.6384,-1.6498,-1.6801,-1.6925,-1.7336,-1.8143,-1.833,-1.8557,-1.9023,-1.9075,-1.9075,-1.9075,-1.9075,-1.9204,-1.9461,-1.9492,-1.9656,-2.0113,-1.938,-1.9297,-1.9843,-1.9128,-1.8852,-1.8904,-1.8909,-1.9015,-1.9379,-2.0576,-2.1114,-0.8333,-0.8587,-0.9041,-0.8689,-0.8885,0.0,0.0,-0.8965,-0.8875,-0.9062,-0.9369,-0.9938,-1.0942,-1.1691,-1.2378,-1.2973,-1.3273,-1.3492,-1.3492,-1.3848,-1.3985,-1.3768,-1.4258,-1.4474,-1.4122,-1.4245,-1.4423,-1.4583,-1.3278,-1.228,-1.1798,-0.9452,-0.727,-0.5325,-0.393,-0.255,-0.1121,-0.0876,-0.0852,-0.1033,-0.2508,-0.3398,-0.3719,-0.5215,-0.6156,-0.6745,-0.8285,-0.9122,-0.9384,-1.1108,-1.212,-1.2482,-1.2482,-1.2911,-1.3511,-1.3511,-1.3511,-1.3511,-1.3511,-1.339,-1.3273,-1.3647,-1.3494,-1.3212,-1.3776,-1.401,-1.4163,-1.4728,-1.4911,-1.5029,-1.5264,-1.5362,-1.5576,-1.6258,-1.6167,-1.6093,-1.6765,-1.6636,-1.6384,-1.6384,-1.6386,-1.6341,-1.6415,-1.6384,-1.6529,-1.6915,-1.7172,-1.7626,-1.8299,-1.8578,-1.8816,-1.9044,-1.9075,-1.8931,-1.8452,-1.8934,-1.8861,-1.7796,-1.8636,-1.9083,-1.8864,-1.8527,-1.8562,-1.8924,-1.8636,-1.8735,-1.9383,-1.9454,-1.9604,-1.9859,-2.1046,-2.1521,-0.8088,-0.8306,-0.8582,-0.8093,-0.8445,-0.8907,0.0,0.0,0.0,-0.9215,-1.0133,-1.0885,-1.0846,-1.1886,-1.2813,-1.2893,-1.3339,-1.371,-1.371,-1.3912,-1.3833,-1.3339,-1.3622,-1.3622,-1.3046,-1.3622,-1.3943,-1.373,-1.291,-1.2282,-1.1999,-0.982,-0.7735,-0.5974,-0.4235,-0.2604,-0.113,-0.0964,-0.0938,-0.1042,-0.2528,-0.3427,-0.3749,-0.5294,-0.6284,-0.7007,-0.8415,-0.9186,-0.9646,-1.1358,-1.2243,-1.249,-1.2544,-1.2972,-1.3511,-1.3511,-1.3511,-1.3511,-1.3511,-1.3346,-1.3168,-1.3621,-1.362,-1.3593,-1.4019,-1.4323,-1.4575,-1.4921,-1.497,-1.5088,-1.5362,-1.541,-1.5527,-1.6147,-1.6108,-1.6093,-1.6636,-1.6567,-1.6384,-1.6259,-1.5972,-1.5798,-1.6202,-1.6202,-1.6318,-1.6908,-1.7298,-1.7791,-1.8444,-1.8837,-1.8998,-1.8865,-1.8865,-1.8452,-1.7491,-1.8301,-1.8091,-1.6202,-1.7483,-1.8174,-1.7763,-1.7877,-1.8047,-1.8115,-1.8262,-1.8785,-1.9723,-2.0121,-2.0398,-2.0584,-2.1747,-2.2132,-0.8452,-0.8447,-0.8565,-0.8703,-0.884,-0.9037,-0.9439,0.0,-0.9707,-1.0067,0.0,-1.147,-1.1846,0.0,0.0,-1.3912,-1.4209,-1.4497,-1.4497,-1.4776,-1.4633,-1.3564,-1.3848,-1.384,-1.3193,-1.355,-1.3738,-1.3556,-1.323,-1.2832,-1.2244,-1.033,-0.8067,-0.5695,-0.4543,-0.3045,-0.1234,-0.1132,-0.1101,-0.1138,-0.2737,-0.3533,-0.3727,-0.5401,-0.6412,-0.7007,-0.8415,-0.9186,-0.9646,-1.1358,-1.2243,-1.2544,-1.2858,-1.3155,-1.3511,-1.3511,-1.3511,-1.3511,-1.3511,-1.3107,-1.2746,-1.3339,-1.3734,-1.3886,-1.374,-1.4087,-1.4575,-1.4921,-1.497,-1.5088,-1.5362,-1.541,-1.5527,-1.6147,-1.6108,-1.6093,-1.6636,-1.6567,-1.6259,-1.5856,-1.574,-1.574,-1.5798,-1.5371,-1.5515,-1.6805,-1.7026,-1.7557,-1.8878,-1.9044,-1.8798,-1.7978,-1.7842,-1.7491,-1.6515,-1.6551,-1.6563,-1.6425,-1.6378,-1.6652,-1.7387,-1.7808,-1.7839,-1.7636,-1.8203,-1.8799,-1.936,-2.0124,-2.1003,-2.1873,-2.2422,-2.2533,-0.8017,-0.8187,-0.8408,-0.8169,-0.8393,-0.8716,-0.8915,-0.9066,-0.9258,-0.9655,0.0,0.0,0.0,0.0,0.0,0.0,-1.4213,-1.4569,-1.4569,-1.4919,-1.4919,-1.4209,-1.4678,-1.4943,-1.4576,-1.3807,-1.3615,-1.4402,-1.3608,-1.2952,-1.2785,-1.0783,-0.859,-0.636,-0.4862,-0.3277,-0.1566,-0.1308,-0.1344,-0.172,-0.2907,-0.3818,-0.4414,-0.5609,-0.6609,-0.7265,-0.8166,-0.9,-0.9894,-1.1108,-1.174,-1.1981,-1.2736,-1.3216,-1.3511,-1.3511,-1.3511,-1.3476,-1.3271,-1.2958,-1.2663,-1.2985,-1.3304,-1.3573,-1.3929,-1.4182,-1.4446,-1.4725,-1.4843,-1.4902,-1.5196,-1.5254,-1.5429,-1.6027,-1.5851,-1.5606,-1.6097,-1.5851,-1.5488,-1.5254,-1.521,-1.5191,-1.5191,-1.5251,-1.5647,-1.6687,-1.6886,-1.7089,-1.7755,-1.7833,-1.755,-1.6932,-1.6862,-1.6614,-1.5838,-1.6404,-1.6594,-1.608,-1.6558,-1.7122,-1.7707,-1.8122,-1.8201,-1.7985,-1.885,-1.9473,-1.9816,-2.0207,-2.0866,-2.1675,-2.1438,-2.1159,-0.763,-0.7922,-0.8252,-0.7787,-0.8098,-0.8608,-0.8608,-0.8791,-0.9091,-0.9498,-1.0336,0.0,0.0,0.0,-1.3791,-1.3885,0.0,-1.4885,-1.4982,-1.543,-1.5392,-1.4721,-1.509,-1.5503,-1.5511,-1.4313,-1.3935,-1.4985,-1.3958,-1.3171,-1.2938,-1.1081,-0.8969,-0.69,-0.5223,-0.3559,-0.197,-0.1858,-0.1955,-0.2238,-0.3421,-0.425,-0.4683,-0.5881,-0.6802,-0.7521,-0.8231,-0.9128,-1.0085,-1.0919,-1.1365,-1.1545,-1.229,-1.2842,-1.326,-1.326,-1.326,-1.3141,-1.2671,-1.2373,-1.2276,-1.2358,-1.2706,-1.3169,-1.3723,-1.407,-1.4273,-1.4625,-1.4715,-1.4843,-1.5156,-1.5292,-1.5505,-1.5744,-1.5511,-1.5248,-1.5317,-1.4995,-1.4675,-1.4726,-1.4689,-1.4702,-1.4861,-1.5124,-1.5614,-1.6458,-1.6494,-1.6566,-1.6886,-1.6793,-1.6515,-1.5948,-1.5981,-1.5796,-1.5051,-1.5829,-1.6168,-1.5718,-1.6907,-1.7692,-1.7849,-1.8443,-1.8733,-1.8567,-1.9576,-2.008,-2.0053,-2.0207,-2.0495,-2.0725,-2.0365,-2.0099,-0.7526,-0.7722,-0.7987,-0.7987,-0.8414,-0.8918,-0.8918,-0.9028,-0.9402,-1.0165,-1.0927,-1.158,-1.2355,-1.337,-1.4272,-1.455,-1.5095,0.0,0.0,-1.6607,-1.6335,-1.4824,-1.4649,-1.4921,-1.561,-1.5378,-1.4961,-1.4672,-1.4363,-1.381,-1.2666,-1.1093,-0.9115,-0.69,-0.5613,-0.4176,-0.2497,-0.302,-0.2947,-0.2314,-0.4319,-0.4941,-0.4353,-0.6079,-0.7073,-0.7587,-0.8871,-0.964,-1.0085,-1.0919,-1.1365,-1.1483,-1.1406,-1.1826,-1.2512,-1.2512,-1.2512,-1.2395,-1.1451,-1.1279,-1.1401,-1.1366,-1.1974,-1.2719,-1.2898,-1.3416,-1.4027,-1.4579,-1.4843,-1.5029,-1.5156,-1.5623,-1.5853,-1.5118,-1.5109,-1.5099,-1.4408,-1.4118,-1.4081,-1.4276,-1.4301,-1.449,-1.5111,-1.4956,-1.4985,-1.5896,-1.5748,-1.5872,-1.6817,-1.6585,-1.5956,-1.5046,-1.5211,-1.5067,-1.4133,-1.4359,-1.4917,-1.5642,-1.7142,-1.7871,-1.7567,-1.8672,-1.9258,-1.9248,-2.0098,-2.0349,-1.9788,-2.0199,-1.9918,-1.8993,-1.9883,-2.0214,-0.6802,-0.7068,-0.7233,-0.7614,-0.8001,-0.8391,-0.8815,-0.8837,-0.9119,-1.0393,-1.0315,-1.0347,-1.1354,-1.2292,-1.3084,-1.3577,-1.4579,-1.5489,0.0,-1.6254,-1.6351,-1.614,-1.5715,-1.5569,-1.6055,-1.5536,-1.5381,-1.5733,-1.4969,-1.4258,-1.3738,-1.2117,-1.0013,-0.7507,-0.6066,-0.459,-0.2947,-0.3072,-0.3356,-0.3587,-0.4628,-0.5333,-0.5617,-0.6482,-0.7138,-0.7587,-0.8549,-0.9192,-0.9582,-1.0218,-1.0654,-1.1094,-1.1461,-1.202,-1.2451,-1.2012,-1.2135,-1.2371,-1.1269,-1.0907,-1.1015,-1.131,-1.1921,-1.2659,-1.3247,-1.376,-1.4239,-1.4474,-1.481,-1.5144,-1.5378,-1.5289,-1.5065,-1.5056,-1.4417,-1.3743,-1.3437,-1.3222,-1.3058,-1.312,-1.3531,-1.3868,-1.4122,-1.4405,-1.4821,-1.5426,-1.5155,-1.4915,-1.5029,-1.5105,-1.4885,-1.4393,-1.463,-1.4764,-1.4596,-1.5725,-1.6563,-1.6779,-1.8391,-1.9173,-1.9113,-1.9409,-1.9468,-1.918,-1.9679,-1.9614,-1.8828,-1.929,-1.9318,-1.8904,-1.8537,-1.8379,-0.5962,-0.6285,-0.6447,-0.7011,-0.7453,-0.783,-0.8183,-0.8334,-0.8635,-0.9837,-0.9652,-0.9652,-1.0793,-1.1636,-1.2372,-1.3247,-1.4313,-1.5376,0.0,-1.6219,-1.6254,-1.6758,-1.6344,-1.6144,-1.6595,-1.6287,-1.6169,-1.6418,-1.5744,-1.5041,-1.4458,-1.2698,-1.0685,-0.8571,-0.6984,-0.5538,-0.4229,-0.4322,-0.4433,-0.4571,-0.5395,-0.5929,-0.621,-0.6806,-0.7335,-0.7722,-0.8554,-0.9069,-0.9338,-0.9703,-1.0205,-1.0836,-1.1142,-1.164,-1.2074,-1.164,-1.137,-1.1061,-1.0545,-1.0293,-1.0264,-1.0821,-1.1607,-1.2448,-1.307,-1.367,-1.4187,-1.4432,-1.479,-1.5164,-1.5216,-1.5169,-1.5023,-1.4609,-1.3887,-1.3121,-1.2734,-1.2375,-1.2313,-1.2609,-1.3079,-1.353,-1.391,-1.4198,-1.4561,-1.4919,-1.4633,-1.4392,-1.429,-1.4275,-1.4313,-1.4219,-1.4443,-1.4765,-1.5087,-1.6508,-1.7403,-1.7346,-1.8737,-1.9514,-1.9334,-1.9426,-1.9342,-1.8923,-1.9341,-1.9183,-1.8283,-1.8806,-1.8831,-1.8643,-1.7978,-1.7754]}]]